Wetterdaten: Sonntag, 11.09.2016
Datum Zeit Temp. A. Temp. A. max Feuchte A. Luftdruck Regen Wind Richtung Richtung Sonnenschein ET UV Solar Taupunkt Windben
11.09.2016 00:00 15,3 C 15,4 C 91 % 1015,2 hPa 0,0 mm 2,7 km/h (1 Bft) S-SW 198 0 min 0,000 mm 0,0 UV-I 0 W/m 13,8 C 4,8 km/h (1 Bft)
11.09.2016 00:01 15,4 C 15,4 C 90 % 1015,3 hPa 0,0 mm 2,4 km/h (1 Bft) S-SW 198 0 min 0,000 mm 0,0 UV-I 0 W/m 13,8 C 3,2 km/h (1 Bft)
11.09.2016 00:02 15,4 C 15,4 C 91 % 1015,3 hPa 0,0 mm 2,5 km/h (1 Bft) S-SW 198 0 min 0,000 mm 0,0 UV-I 0 W/m 13,9 C 3,2 km/h (1 Bft)
11.09.2016 00:03 15,3 C 15,4 C 90 % 1015,3 hPa 0,0 mm 1,9 km/h (1 Bft) S-SW 198 0 min 0,000 mm 0,0 UV-I 0 W/m 13,7 C 3,2 km/h (1 Bft)
11.09.2016 00:04 15,4 C 15,4 C 90 % 1015,3 hPa 0,0 mm 2,4 km/h (1 Bft) S-SW 198 0 min 0,000 mm 0,0 UV-I 0 W/m 13,8 C 3,2 km/h (1 Bft)
11.09.2016 00:05 15,4 C 15,4 C 91 % 1015,3 hPa 0,0 mm 2,4 km/h (1 Bft) S-SW 198 0 min 0,000 mm 0,0 UV-I 0 W/m 13,9 C 3,2 km/h (1 Bft)
11.09.2016 00:06 15,4 C 15,4 C 91 % 1015,2 hPa 0,0 mm 2,7 km/h (1 Bft) S-SW 198 0 min 0,000 mm 0,0 UV-I 0 W/m 13,9 C 4,8 km/h (1 Bft)
11.09.2016 00:07 15,5 C 15,5 C 90 % 1015,3 hPa 0,0 mm 2,7 km/h (1 Bft) S 184 0 min 0,000 mm 0,0 UV-I 0 W/m 13,9 C 4,8 km/h (1 Bft)
11.09.2016 00:08 15,6 C 15,6 C 91 % 1015,2 hPa 0,0 mm 2,9 km/h (1 Bft) S 184 0 min 0,000 mm 0,0 UV-I 0 W/m 14,1 C 3,2 km/h (1 Bft)
11.09.2016 00:09 15,6 C 15,6 C 90 % 1015,2 hPa 0,0 mm 2,4 km/h (1 Bft) S 184 0 min 0,000 mm 0,0 UV-I 0 W/m 14,0 C 3,2 km/h (1 Bft)
11.09.2016 00:10 15,6 C 15,6 C 90 % 1015,2 hPa 0,0 mm 2,3 km/h (1 Bft) S 184 0 min 0,000 mm 0,0 UV-I 0 W/m 14,0 C 3,2 km/h (1 Bft)
11.09.2016 00:11 15,6 C 15,6 C 90 % 1015,2 hPa 0,0 mm 1,0 km/h (0 Bft) S-SW 208 0 min 0,000 mm 0,0 UV-I 0 W/m 14,0 C 3,2 km/h (1 Bft)
11.09.2016 00:12 15,6 C 15,6 C 90 % 1015,3 hPa 0,0 mm 0,9 km/h (0 Bft) S-SW 207 0 min 0,000 mm 0,0 UV-I 0 W/m 14,0 C 3,2 km/h (1 Bft)
11.09.2016 00:13 15,6 C 15,6 C 90 % 1015,3 hPa 0,0 mm 1,1 km/h (1 Bft) S-SW 207 0 min 0,000 mm 0,0 UV-I 0 W/m 14,0 C 3,2 km/h (1 Bft)
11.09.2016 00:14 15,5 C 15,6 C 90 % 1015,3 hPa 0,0 mm 1,7 km/h (1 Bft) S-SW 207 0 min 0,000 mm 0,0 UV-I 0 W/m 13,9 C 3,2 km/h (1 Bft)
11.09.2016 00:15 15,5 C 15,5 C 90 % 1015,3 hPa 0,0 mm 0,2 km/h (0 Bft) S-SW 207 0 min 0,000 mm 0,0 UV-I 0 W/m 13,9 C 1,6 km/h (1 Bft)
11.09.2016 00:16 15,5 C 15,5 C 90 % 1015,3 hPa 0,0 mm 2,9 km/h (1 Bft) S 186 0 min 0,000 mm 0,0 UV-I 0 W/m 13,9 C 4,8 km/h (1 Bft)
11.09.2016 00:17 15,5 C 15,5 C 90 % 1015,3 hPa 0,0 mm 2,7 km/h (1 Bft) S 186 0 min 0,000 mm 0,0 UV-I 0 W/m 13,9 C 3,2 km/h (1 Bft)
11.09.2016 00:18 15,4 C 15,5 C 90 % 1015,3 hPa 0,0 mm 2,0 km/h (1 Bft) S 186 0 min 0,000 mm 0,0 UV-I 0 W/m 13,8 C 3,2 km/h (1 Bft)
11.09.2016 00:19 15,4 C 15,4 C 90 % 1015,3 hPa 0,0 mm 2,4 km/h (1 Bft) S 188 0 min 0,000 mm 0,0 UV-I 0 W/m 13,8 C 4,8 km/h (1 Bft)
11.09.2016 00:20 15,4 C 15,4 C 90 % 1015,2 hPa 0,0 mm 1,8 km/h (1 Bft) S 188 0 min 0,000 mm 0,0 UV-I 0 W/m 13,8 C 3,2 km/h (1 Bft)
11.09.2016 00:21 15,3 C 15,4 C 90 % 1015,2 hPa 0,0 mm 0,7 km/h (0 Bft) S 188 0 min 0,000 mm 0,0 UV-I 0 W/m 13,7 C 1,6 km/h (1 Bft)
11.09.2016 00:22 15,3 C 15,3 C 90 % 1015,2 hPa 0,0 mm 0,5 km/h (0 Bft) S 188 0 min 0,000 mm 0,0 UV-I 0 W/m 13,7 C 1,6 km/h (1 Bft)
11.09.2016 00:23 15,3 C 15,3 C 89 % 1015,2 hPa 0,0 mm 0,5 km/h (0 Bft) S 188 0 min 0,000 mm 0,0 UV-I 0 W/m 13,5 C 3,2 km/h (1 Bft)
11.09.2016 00:24 15,2 C 15,3 C 89 % 1015,2 hPa 0,0 mm 1,6 km/h (1 Bft) S 188 0 min 0,000 mm 0,0 UV-I 0 W/m 13,4 C 3,2 km/h (1 Bft)
11.09.2016 00:25 15,2 C 15,2 C 90 % 1015,2 hPa 0,0 mm 0,7 km/h (0 Bft) S 188 0 min 0,000 mm 0,0 UV-I 0 W/m 13,6 C 1,6 km/h (1 Bft)
11.09.2016 00:26 15,2 C 15,2 C 90 % 1015,2 hPa 0,0 mm 0,0 km/h (0 Bft) S 188 0 min 0,000 mm 0,0 UV-I 0 W/m 13,6 C 0,0 km/h (0 Bft)
11.09.2016 00:27 15,1 C 15,2 C 90 % 1015,2 hPa 0,0 mm 0,0 km/h (0 Bft) S 188 0 min 0,000 mm 0,0 UV-I 0 W/m 13,5 C 0,0 km/h (0 Bft)
11.09.2016 00:28 15,1 C 15,1 C 90 % 1015,2 hPa 0,0 mm 0,5 km/h (0 Bft) S 188 0 min 0,000 mm 0,0 UV-I 0 W/m 13,5 C 1,6 km/h (1 Bft)
11.09.2016 00:29 15,1 C 15,2 C 90 % 1015,2 hPa 0,0 mm 1,0 km/h (0 Bft) S 188 0 min 0,000 mm 0,0 UV-I 0 W/m 13,5 C 4,8 km/h (1 Bft)
11.09.2016 00:30 15,1 C 15,1 C 90 % 1015,3 hPa 0,0 mm 4,6 km/h (1 Bft) S 175 0 min 0,000 mm 0,0 UV-I 0 W/m 13,5 C 8,0 km/h (2 Bft)
11.09.2016 00:31 15,1 C 15,1 C 90 % 1015,2 hPa 0,0 mm 1,0 km/h (0 Bft) S 175 0 min 0,000 mm 0,0 UV-I 0 W/m 13,5 C 1,6 km/h (1 Bft)
11.09.2016 00:32 15,1 C 15,1 C 90 % 1015,2 hPa 0,0 mm 1,1 km/h (1 Bft) S 175 0 min 0,000 mm 0,0 UV-I 0 W/m 13,5 C 3,2 km/h (1 Bft)
11.09.2016 00:33 15,1 C 15,1 C 90 % 1015,2 hPa 0,0 mm 0,4 km/h (0 Bft) S 175 0 min 0,000 mm 0,0 UV-I 0 W/m 13,5 C 1,6 km/h (1 Bft)
11.09.2016 00:34 15,1 C 15,1 C 90 % 1015,3 hPa 0,0 mm 0,4 km/h (0 Bft) S 178 0 min 0,000 mm 0,0 UV-I 0 W/m 13,5 C 1,6 km/h (1 Bft)
11.09.2016 00:35 15,1 C 15,1 C 90 % 1015,2 hPa 0,0 mm 6,3 km/h (2 Bft) S-SW 199 0 min 0,000 mm 0,0 UV-I 0 W/m 13,5 C 11,3 km/h (2 Bft)
11.09.2016 00:36 15,1 C 15,1 C 90 % 1015,2 hPa 0,0 mm 3,7 km/h (1 Bft) S 190 0 min 0,000 mm 0,0 UV-I 0 W/m 13,5 C 4,8 km/h (1 Bft)
11.09.2016 00:37 15,1 C 15,1 C 90 % 1015,2 hPa 0,0 mm 1,8 km/h (1 Bft) S 190 0 min 0,000 mm 0,0 UV-I 0 W/m 13,5 C 3,2 km/h (1 Bft)
11.09.2016 00:38 15,0 C 15,1 C 90 % 1015,2 hPa 0,0 mm 2,1 km/h (1 Bft) S 190 0 min 0,000 mm 0,0 UV-I 0 W/m 13,4 C 3,2 km/h (1 Bft)
11.09.2016 00:39 14,9 C 15,0 C 90 % 1015,2 hPa 0,0 mm 2,7 km/h (1 Bft) S 190 0 min 0,000 mm 0,0 UV-I 0 W/m 13,3 C 4,8 km/h (1 Bft)
11.09.2016 00:40 14,9 C 14,9 C 90 % 1015,3 hPa 0,0 mm 1,9 km/h (1 Bft) S 190 0 min 0,000 mm 0,0 UV-I 0 W/m 13,3 C 3,2 km/h (1 Bft)
11.09.2016 00:41 14,9 C 14,9 C 90 % 1015,3 hPa 0,0 mm 1,1 km/h (1 Bft) S 190 0 min 0,000 mm 0,0 UV-I 0 W/m 13,3 C 1,6 km/h (1 Bft)
11.09.2016 00:42 14,9 C 14,9 C 91 % 1015,3 hPa 0,0 mm 2,2 km/h (1 Bft) S 190 0 min 0,000 mm 0,0 UV-I 0 W/m 13,4 C 4,8 km/h (1 Bft)
11.09.2016 00:43 15,1 C 15,1 C 90 % 1015,3 hPa 0,0 mm 2,4 km/h (1 Bft) S 190 0 min 0,000 mm 0,0 UV-I 0 W/m 13,5 C 3,2 km/h (1 Bft)
11.09.2016 00:44 15,1 C 15,1 C 90 % 1015,3 hPa 0,0 mm 2,5 km/h (1 Bft) S 180 0 min 0,000 mm 0,0 UV-I 0 W/m 13,5 C 4,8 km/h (1 Bft)
11.09.2016 00:45 15,1 C 15,1 C 90 % 1015,3 hPa 0,0 mm 0,6 km/h (0 Bft) S 180 0 min 0,000 mm 0,0 UV-I 0 W/m 13,5 C 1,6 km/h (1 Bft)
11.09.2016 00:46 15,1 C 15,1 C 90 % 1015,3 hPa 0,0 mm 0,2 km/h (0 Bft) S 180 0 min 0,000 mm 0,0 UV-I 0 W/m 13,5 C 1,6 km/h (1 Bft)
11.09.2016 00:47 15,1 C 15,1 C 90 % 1015,3 hPa 0,0 mm 2,1 km/h (1 Bft) S 184 0 min 0,000 mm 0,0 UV-I 0 W/m 13,5 C 4,8 km/h (1 Bft)
11.09.2016 00:48 15,1 C 15,2 C 90 % 1015,3 hPa 0,0 mm 5,8 km/h (2 Bft) S 178 0 min 0,000 mm 0,0 UV-I 0 W/m 13,5 C 12,9 km/h (3 Bft)
11.09.2016 00:49 15,2 C 15,2 C 89 % 1015,3 hPa 0,0 mm 8,6 km/h (2 Bft) S 182 0 min 0,000 mm 0,0 UV-I 0 W/m 13,4 C 11,3 km/h (2 Bft)
11.09.2016 00:50 15,3 C 15,3 C 89 % 1015,3 hPa 0,0 mm 6,0 km/h (2 Bft) S 169 0 min 0,000 mm 0,0 UV-I 0 W/m 13,5 C 8,0 km/h (2 Bft)
11.09.2016 00:51 15,3 C 15,3 C 89 % 1015,3 hPa 0,0 mm 5,4 km/h (1 Bft) S 180 0 min 0,000 mm 0,0 UV-I 0 W/m 13,5 C 9,7 km/h (2 Bft)
11.09.2016 00:52 15,3 C 15,3 C 89 % 1015,3 hPa 0,0 mm 1,9 km/h (1 Bft) S 180 0 min 0,000 mm 0,0 UV-I 0 W/m 13,5 C 3,2 km/h (1 Bft)
11.09.2016 00:53 15,3 C 15,3 C 89 % 1015,3 hPa 0,0 mm 2,3 km/h (1 Bft) S 180 0 min 0,000 mm 0,0 UV-I 0 W/m 13,5 C 4,8 km/h (1 Bft)
11.09.2016 00:54 15,2 C 15,3 C 89 % 1015,3 hPa 0,0 mm 1,4 km/h (1 Bft) S 180 0 min 0,000 mm 0,0 UV-I 0 W/m 13,4 C 1,6 km/h (1 Bft)
11.09.2016 00:55 15,3 C 15,3 C 89 % 1015,3 hPa 0,0 mm 2,6 km/h (1 Bft) S 175 0 min 0,000 mm 0,0 UV-I 0 W/m 13,5 C 4,8 km/h (1 Bft)
11.09.2016 00:56 15,3 C 15,3 C 89 % 1015,3 hPa 0,0 mm 1,6 km/h (1 Bft) S 175 0 min 0,000 mm 0,0 UV-I 0 W/m 13,5 C 3,2 km/h (1 Bft)
11.09.2016 00:57 15,2 C 15,3 C 89 % 1015,3 hPa 0,0 mm 1,1 km/h (1 Bft) S 175 0 min 0,000 mm 0,0 UV-I 0 W/m 13,4 C 3,2 km/h (1 Bft)
11.09.2016 00:58 15,2 C 15,2 C 89 % 1015,3 hPa 0,0 mm 0,5 km/h (0 Bft) S 175 0 min 0,000 mm 0,0 UV-I 0 W/m 13,4 C 1,6 km/h (1 Bft)
11.09.2016 00:59 15,1 C 15,2 C 89 % 1015,3 hPa 0,0 mm 0,9 km/h (0 Bft) S 175 0 min 0,000 mm 0,0 UV-I 0 W/m 13,3 C 3,2 km/h (1 Bft)
11.09.2016 01:00 15,1 C 15,2 C 90 % 1015,3 hPa 0,0 mm 0,4 km/h (0 Bft) S 175 0 min 0,000 mm 0,0 UV-I 0 W/m 13,5 C 1,6 km/h (1 Bft)
11.09.2016 01:01 15,2 C 15,2 C 90 % 1015,3 hPa 0,0 mm 1,0 km/h (0 Bft) S 175 0 min 0,000 mm 0,0 UV-I 0 W/m 13,6 C 3,2 km/h (1 Bft)
11.09.2016 01:02 15,1 C 15,2 C 89 % 1015,3 hPa 0,0 mm 1,3 km/h (1 Bft) S 175 0 min 0,000 mm 0,0 UV-I 0 W/m 13,3 C 1,6 km/h (1 Bft)
11.09.2016 01:03 15,1 C 15,2 C 90 % 1015,3 hPa 0,0 mm 0,0 km/h (0 Bft) S 175 0 min 0,000 mm 0,0 UV-I 0 W/m 13,5 C 0,0 km/h (0 Bft)
11.09.2016 01:04 15,1 C 15,1 C 89 % 1015,3 hPa 0,0 mm 0,1 km/h (0 Bft) S 175 0 min 0,000 mm 0,0 UV-I 0 W/m 13,3 C 1,6 km/h (1 Bft)
11.09.2016 01:05 15,1 C 15,1 C 89 % 1015,2 hPa 0,0 mm 0,1 km/h (0 Bft) S 175 0 min 0,000 mm 0,0 UV-I 0 W/m 13,3 C 1,6 km/h (1 Bft)
11.09.2016 01:06 15,1 C 15,1 C 89 % 1015,2 hPa 0,0 mm 1,3 km/h (1 Bft) S 175 0 min 0,000 mm 0,0 UV-I 0 W/m 13,3 C 3,2 km/h (1 Bft)
11.09.2016 01:07 15,1 C 15,1 C 89 % 1015,2 hPa 0,0 mm 0,5 km/h (0 Bft) S 175 0 min 0,000 mm 0,0 UV-I 0 W/m 13,3 C 1,6 km/h (1 Bft)
11.09.2016 01:08 15,1 C 15,1 C 89 % 1015,2 hPa 0,0 mm 1,3 km/h (1 Bft) S 175 0 min 0,000 mm 0,0 UV-I 0 W/m 13,3 C 3,2 km/h (1 Bft)
11.09.2016 01:09 15,1 C 15,1 C 90 % 1015,2 hPa 0,0 mm 1,7 km/h (1 Bft) S 175 0 min 0,000 mm 0,0 UV-I 0 W/m 13,5 C 3,2 km/h (1 Bft)
11.09.2016 01:10 15,1 C 15,1 C 90 % 1015,2 hPa 0,0 mm 1,8 km/h (1 Bft) S 175 0 min 0,000 mm 0,0 UV-I 0 W/m 13,5 C 3,2 km/h (1 Bft)
11.09.2016 01:11 15,1 C 15,1 C 90 % 1015,3 hPa 0,0 mm 0,8 km/h (0 Bft) S 175 0 min 0,000 mm 0,0 UV-I 0 W/m 13,5 C 1,6 km/h (1 Bft)
11.09.2016 01:12 15,0 C 15,1 C 89 % 1015,3 hPa 0,0 mm 0,1 km/h (0 Bft) S 175 0 min 0,000 mm 0,0 UV-I 0 W/m 13,2 C 1,6 km/h (1 Bft)
11.09.2016 01:13 15,0 C 15,0 C 89 % 1015,2 hPa 0,0 mm 0,6 km/h (0 Bft) S 175 0 min 0,000 mm 0,0 UV-I 0 W/m 13,2 C 1,6 km/h (1 Bft)
11.09.2016 01:14 14,9 C 15,0 C 89 % 1015,3 hPa 0,0 mm 0,1 km/h (0 Bft) S 175 0 min 0,000 mm 0,0 UV-I 0 W/m 13,1 C 1,6 km/h (1 Bft)
11.09.2016 01:15 14,9 C 14,9 C 89 % 1015,2 hPa 0,0 mm 0,2 km/h (0 Bft) S 175 0 min 0,000 mm 0,0 UV-I 0 W/m 13,1 C 1,6 km/h (1 Bft)
11.09.2016 01:16 14,8 C 14,9 C 90 % 1015,2 hPa 0,0 mm 0,1 km/h (0 Bft) S 175 0 min 0,000 mm 0,0 UV-I 0 W/m 13,2 C 1,6 km/h (1 Bft)
11.09.2016 01:17 14,7 C 14,8 C 90 % 1015,2 hPa 0,0 mm 0,1 km/h (0 Bft) S 175 0 min 0,000 mm 0,0 UV-I 0 W/m 13,1 C 1,6 km/h (1 Bft)
11.09.2016 01:18 14,6 C 14,7 C 90 % 1015,2 hPa 0,0 mm 0,0 km/h (0 Bft) S 175 0 min 0,000 mm 0,0 UV-I 0 W/m 13,0 C 0,0 km/h (0 Bft)
11.09.2016 01:19 14,6 C 14,6 C 90 % 1015,2 hPa 0,0 mm 0,0 km/h (0 Bft) S 175 0 min 0,000 mm 0,0 UV-I 0 W/m 13,0 C 0,0 km/h (0 Bft)
11.09.2016 01:20 14,5 C 14,6 C 90 % 1015,2 hPa 0,0 mm 0,3 km/h (0 Bft) S 175 0 min 0,000 mm 0,0 UV-I 0 W/m 12,9 C 1,6 km/h (1 Bft)
11.09.2016 01:21 14,4 C 14,5 C 91 % 1015,2 hPa 0,0 mm 0,0 km/h (0 Bft) S 175 0 min 0,000 mm 0,0 UV-I 0 W/m 12,9 C 0,0 km/h (0 Bft)
11.09.2016 01:22 14,4 C 14,5 C 91 % 1015,2 hPa 0,0 mm 0,5 km/h (0 Bft) S 175 0 min 0,000 mm 0,0 UV-I 0 W/m 12,9 C 1,6 km/h (1 Bft)
11.09.2016 01:23 14,4 C 14,4 C 91 % 1015,1 hPa 0,0 mm 0,3 km/h (0 Bft) S 175 0 min 0,000 mm 0,0 UV-I 0 W/m 12,9 C 1,6 km/h (1 Bft)
11.09.2016 01:24 14,5 C 14,5 C 91 % 1015,2 hPa 0,0 mm 0,5 km/h (0 Bft) S 175 0 min 0,000 mm 0,0 UV-I 0 W/m 13,0 C 1,6 km/h (1 Bft)
11.09.2016 01:25 14,6 C 14,6 C 91 % 1015,2 hPa 0,0 mm 0,4 km/h (0 Bft) S 175 0 min 0,000 mm 0,0 UV-I 0 W/m 13,1 C 1,6 km/h (1 Bft)
11.09.2016 01:26 14,6 C 14,6 C 91 % 1015,2 hPa 0,0 mm 0,0 km/h (0 Bft) S 175 0 min 0,000 mm 0,0 UV-I 0 W/m 13,1 C 0,0 km/h (0 Bft)
11.09.2016 01:27 14,6 C 14,6 C 91 % 1015,2 hPa 0,0 mm 0,5 km/h (0 Bft) S 175 0 min 0,000 mm 0,0 UV-I 0 W/m 13,1 C 1,6 km/h (1 Bft)
11.09.2016 01:28 14,5 C 14,6 C 90 % 1015,2 hPa 0,0 mm 1,7 km/h (1 Bft) S 175 0 min 0,000 mm 0,0 UV-I 0 W/m 12,9 C 3,2 km/h (1 Bft)
11.09.2016 01:29 14,5 C 14,5 C 90 % 1015,2 hPa 0,0 mm 1,0 km/h (0 Bft) S 176 0 min 0,000 mm 0,0 UV-I 0 W/m 12,9 C 1,6 km/h (1 Bft)
11.09.2016 01:30 14,4 C 14,5 C 90 % 1015,2 hPa 0,0 mm 1,1 km/h (1 Bft) S 180 0 min 0,000 mm 0,0 UV-I 0 W/m 12,8 C 3,2 km/h (1 Bft)
11.09.2016 01:31 14,4 C 14,4 C 90 % 1015,2 hPa 0,0 mm 1,1 km/h (1 Bft) S 180 0 min 0,000 mm 0,0 UV-I 0 W/m 12,8 C 3,2 km/h (1 Bft)
11.09.2016 01:32 14,3 C 14,4 C 90 % 1015,2 hPa 0,0 mm 0,1 km/h (0 Bft) S 180 0 min 0,000 mm 0,0 UV-I 0 W/m 12,7 C 1,6 km/h (1 Bft)
11.09.2016 01:33 14,3 C 14,3 C 91 % 1015,2 hPa 0,0 mm 1,9 km/h (1 Bft) S-SO 163 0 min 0,000 mm 0,0 UV-I 0 W/m 12,8 C 3,2 km/h (1 Bft)
11.09.2016 01:34 14,3 C 14,3 C 91 % 1015,2 hPa 0,0 mm 1,2 km/h (1 Bft) S-SO 163 0 min 0,000 mm 0,0 UV-I 0 W/m 12,8 C 3,2 km/h (1 Bft)
11.09.2016 01:35 14,3 C 14,3 C 92 % 1015,1 hPa 0,0 mm 0,3 km/h (0 Bft) S-SO 163 0 min 0,000 mm 0,0 UV-I 0 W/m 13,0 C 1,6 km/h (1 Bft)
11.09.2016 01:36 14,2 C 14,3 C 92 % 1015,2 hPa 0,0 mm 1,5 km/h (1 Bft) O-NO 61 0 min 0,000 mm 0,0 UV-I 0 W/m 12,9 C 3,2 km/h (1 Bft)
11.09.2016 01:37 14,2 C 14,2 C 92 % 1015,2 hPa 0,0 mm 0,5 km/h (0 Bft) NO 46 0 min 0,000 mm 0,0 UV-I 0 W/m 12,9 C 3,2 km/h (1 Bft)
11.09.2016 01:38 14,2 C 14,2 C 91 % 1015,2 hPa 0,0 mm 1,5 km/h (1 Bft) NO 46 0 min 0,000 mm 0,0 UV-I 0 W/m 12,8 C 3,2 km/h (1 Bft)
11.09.2016 01:39 14,2 C 14,2 C 92 % 1015,2 hPa 0,0 mm 0,1 km/h (0 Bft) NO 46 0 min 0,000 mm 0,0 UV-I 0 W/m 12,9 C 1,6 km/h (1 Bft)
11.09.2016 01:40 14,2 C 14,2 C 92 % 1015,2 hPa 0,0 mm 0,1 km/h (0 Bft) NO 46 0 min 0,000 mm 0,0 UV-I 0 W/m 12,9 C 1,6 km/h (1 Bft)
11.09.2016 01:41 14,2 C 14,2 C 92 % 1015,2 hPa 0,0 mm 0,1 km/h (0 Bft) NO 46 0 min 0,000 mm 0,0 UV-I 0 W/m 12,9 C 1,6 km/h (1 Bft)
11.09.2016 01:42 14,2 C 14,2 C 92 % 1015,2 hPa 0,0 mm 0,6 km/h (0 Bft) NO 46 0 min 0,000 mm 0,0 UV-I 0 W/m 12,9 C 1,6 km/h (1 Bft)
11.09.2016 01:43 14,2 C 14,2 C 92 % 1015,1 hPa 0,0 mm 0,3 km/h (0 Bft) NO 46 0 min 0,000 mm 0,0 UV-I 0 W/m 12,9 C 1,6 km/h (1 Bft)
11.09.2016 01:44 14,2 C 14,2 C 92 % 1015,1 hPa 0,0 mm 1,7 km/h (1 Bft) O 92 0 min 0,000 mm 0,0 UV-I 0 W/m 12,9 C 3,2 km/h (1 Bft)
11.09.2016 01:45 14,3 C 14,3 C 92 % 1015,1 hPa 0,0 mm 0,2 km/h (0 Bft) O 92 0 min 0,000 mm 0,0 UV-I 0 W/m 13,0 C 1,6 km/h (1 Bft)
11.09.2016 01:46 14,3 C 14,3 C 92 % 1015,1 hPa 0,0 mm 0,1 km/h (0 Bft) O 92 0 min 0,000 mm 0,0 UV-I 0 W/m 13,0 C 1,6 km/h (1 Bft)
11.09.2016 01:47 14,3 C 14,3 C 92 % 1015,1 hPa 0,0 mm 1,6 km/h (1 Bft) O 89 0 min 0,000 mm 0,0 UV-I 0 W/m 13,0 C 3,2 km/h (1 Bft)
11.09.2016 01:48 14,3 C 14,3 C 92 % 1015,1 hPa 0,0 mm 0,8 km/h (0 Bft) O 89 0 min 0,000 mm 0,0 UV-I 0 W/m 13,0 C 3,2 km/h (1 Bft)
11.09.2016 01:49 14,2 C 14,3 C 92 % 1015,1 hPa 0,0 mm 0,9 km/h (0 Bft) O 89 0 min 0,000 mm 0,0 UV-I 0 W/m 12,9 C 3,2 km/h (1 Bft)
11.09.2016 01:50 14,2 C 14,2 C 92 % 1015,1 hPa 0,0 mm 0,1 km/h (0 Bft) O 89 0 min 0,000 mm 0,0 UV-I 0 W/m 12,9 C 1,6 km/h (1 Bft)
11.09.2016 01:51 14,2 C 14,2 C 92 % 1015,1 hPa 0,0 mm 2,3 km/h (1 Bft) NO 44 0 min 0,000 mm 0,0 UV-I 0 W/m 12,9 C 4,8 km/h (1 Bft)
11.09.2016 01:52 14,2 C 14,2 C 92 % 1015,1 hPa 0,0 mm 1,1 km/h (1 Bft) NO 44 0 min 0,000 mm 0,0 UV-I 0 W/m 12,9 C 3,2 km/h (1 Bft)
11.09.2016 01:53 14,2 C 14,2 C 92 % 1015,1 hPa 0,0 mm 0,2 km/h (0 Bft) NO 44 0 min 0,000 mm 0,0 UV-I 0 W/m 12,9 C 1,6 km/h (1 Bft)
11.09.2016 01:54 14,2 C 14,2 C 92 % 1015,1 hPa 0,0 mm 0,1 km/h (0 Bft) NO 44 0 min 0,000 mm 0,0 UV-I 0 W/m 12,9 C 1,6 km/h (1 Bft)
11.09.2016 01:55 14,2 C 14,2 C 92 % 1015,1 hPa 0,0 mm 0,0 km/h (0 Bft) NO 44 0 min 0,000 mm 0,0 UV-I 0 W/m 12,9 C 0,0 km/h (0 Bft)
11.09.2016 01:56 14,2 C 14,2 C 92 % 1015,1 hPa 0,0 mm 0,7 km/h (0 Bft) NO 44 0 min 0,000 mm 0,0 UV-I 0 W/m 12,9 C 3,2 km/h (1 Bft)
11.09.2016 01:57 14,1 C 14,2 C 91 % 1015,1 hPa 0,0 mm 1,8 km/h (1 Bft) NO 44 0 min 0,000 mm 0,0 UV-I 0 W/m 12,7 C 3,2 km/h (1 Bft)
11.09.2016 01:58 14,1 C 14,1 C 91 % 1015,1 hPa 0,0 mm 0,7 km/h (0 Bft) NO 44 0 min 0,000 mm 0,0 UV-I 0 W/m 12,7 C 1,6 km/h (1 Bft)
11.09.2016 01:59 14,1 C 14,1 C 91 % 1015,1 hPa 0,0 mm 0,2 km/h (0 Bft) NO 44 0 min 0,000 mm 0,0 UV-I 0 W/m 12,7 C 1,6 km/h (1 Bft)
11.09.2016 02:00 14,1 C 14,1 C 91 % 1015,1 hPa 0,0 mm 0,9 km/h (0 Bft) W-NW 303 0 min 0,000 mm 0,0 UV-I 0 W/m 12,7 C 4,8 km/h (1 Bft)
11.09.2016 02:01 14,1 C 14,1 C 91 % 1015,1 hPa 0,0 mm 1,8 km/h (1 Bft) W-NW 303 0 min 0,000 mm 0,0 UV-I 0 W/m 12,7 C 4,8 km/h (1 Bft)
11.09.2016 02:02 14,0 C 14,1 C 91 % 1015,2 hPa 0,0 mm 0,5 km/h (0 Bft) W-NW 303 0 min 0,000 mm 0,0 UV-I 0 W/m 12,6 C 1,6 km/h (1 Bft)
11.09.2016 02:03 13,9 C 14,0 C 91 % 1015,2 hPa 0,0 mm 0,6 km/h (0 Bft) W-NW 303 0 min 0,000 mm 0,0 UV-I 0 W/m 12,5 C 1,6 km/h (1 Bft)
11.09.2016 02:04 13,9 C 13,9 C 91 % 1015,2 hPa 0,0 mm 0,3 km/h (0 Bft) W-NW 303 0 min 0,000 mm 0,0 UV-I 0 W/m 12,5 C 1,6 km/h (1 Bft)
11.09.2016 02:05 13,9 C 13,9 C 92 % 1015,2 hPa 0,0 mm 0,0 km/h (0 Bft) W-NW 303 0 min 0,000 mm 0,0 UV-I 0 W/m 12,6 C 0,0 km/h (0 Bft)
11.09.2016 02:06 13,9 C 13,9 C 92 % 1015,2 hPa 0,0 mm 0,0 km/h (0 Bft) W-NW 303 0 min 0,000 mm 0,0 UV-I 0 W/m 12,6 C 0,0 km/h (0 Bft)
11.09.2016 02:07 13,8 C 13,9 C 91 % 1015,2 hPa 0,0 mm 0,0 km/h (0 Bft) W-NW 303 0 min 0,000 mm 0,0 UV-I 0 W/m 12,4 C 0,0 km/h (0 Bft)
11.09.2016 02:08 13,9 C 13,9 C 91 % 1015,2 hPa 0,0 mm 0,1 km/h (0 Bft) W-NW 303 0 min 0,000 mm 0,0 UV-I 0 W/m 12,5 C 1,6 km/h (1 Bft)
11.09.2016 02:09 13,8 C 13,9 C 92 % 1015,2 hPa 0,0 mm 0,7 km/h (0 Bft) W-NW 303 0 min 0,000 mm 0,0 UV-I 0 W/m 12,5 C 1,6 km/h (1 Bft)
11.09.2016 02:10 13,8 C 13,9 C 92 % 1015,2 hPa 0,0 mm 1,5 km/h (1 Bft) W-NW 303 0 min 0,000 mm 0,0 UV-I 0 W/m 12,5 C 3,2 km/h (1 Bft)
11.09.2016 02:11 13,9 C 13,9 C 92 % 1015,2 hPa 0,0 mm 2,2 km/h (1 Bft) W-NW 303 0 min 0,000 mm 0,0 UV-I 0 W/m 12,6 C 3,2 km/h (1 Bft)
11.09.2016 02:12 14,0 C 14,0 C 92 % 1015,2 hPa 0,0 mm 0,3 km/h (0 Bft) W-NW 303 0 min 0,000 mm 0,0 UV-I 0 W/m 12,7 C 1,6 km/h (1 Bft)
11.09.2016 02:13 13,9 C 14,0 C 92 % 1015,2 hPa 0,0 mm 0,0 km/h (0 Bft) W-NW 303 0 min 0,000 mm 0,0 UV-I 0 W/m 12,6 C 0,0 km/h (0 Bft)
11.09.2016 02:14 14,0 C 14,0 C 92 % 1015,2 hPa 0,0 mm 0,2 km/h (0 Bft) W-NW 303 0 min 0,000 mm 0,0 UV-I 0 W/m 12,7 C 1,6 km/h (1 Bft)
11.09.2016 02:15 14,0 C 14,0 C 92 % 1015,2 hPa 0,0 mm 0,6 km/h (0 Bft) W-NW 303 0 min 0,000 mm 0,0 UV-I 0 W/m 12,7 C 1,6 km/h (1 Bft)
11.09.2016 02:16 14,0 C 14,0 C 92 % 1015,2 hPa 0,0 mm 0,0 km/h (0 Bft) W-NW 303 0 min 0,000 mm 0,0 UV-I 0 W/m 12,7 C 0,0 km/h (0 Bft)
11.09.2016 02:17 14,0 C 14,0 C 92 % 1015,2 hPa 0,0 mm 0,0 km/h (0 Bft) W-NW 303 0 min 0,000 mm 0,0 UV-I 0 W/m 12,7 C 0,0 km/h (0 Bft)
11.09.2016 02:18 13,9 C 14,0 C 92 % 1015,2 hPa 0,0 mm 0,0 km/h (0 Bft) W-NW 303 0 min 0,000 mm 0,0 UV-I 0 W/m 12,6 C 0,0 km/h (0 Bft)
11.09.2016 02:19 13,9 C 13,9 C 92 % 1015,2 hPa 0,0 mm 0,0 km/h (0 Bft) W-NW 303 0 min 0,000 mm 0,0 UV-I 0 W/m 12,6 C 0,0 km/h (0 Bft)
11.09.2016 02:20 13,8 C 13,9 C 91 % 1015,2 hPa 0,0 mm 0,0 km/h (0 Bft) W-NW 303 0 min 0,000 mm 0,0 UV-I 0 W/m 12,4 C 0,0 km/h (0 Bft)
11.09.2016 02:21 13,8 C 13,8 C 91 % 1015,2 hPa 0,0 mm 0,0 km/h (0 Bft) W-NW 303 0 min 0,000 mm 0,0 UV-I 0 W/m 12,4 C 0,0 km/h (0 Bft)
11.09.2016 02:22 13,8 C 13,8 C 92 % 1015,2 hPa 0,0 mm 0,0 km/h (0 Bft) W-NW 303 0 min 0,000 mm 0,0 UV-I 0 W/m 12,5 C 0,0 km/h (0 Bft)
11.09.2016 02:23 13,8 C 13,8 C 92 % 1015,2 hPa 0,0 mm 0,0 km/h (0 Bft) W-NW 303 0 min 0,000 mm 0,0 UV-I 0 W/m 12,5 C 0,0 km/h (0 Bft)
11.09.2016 02:24 13,8 C 13,8 C 92 % 1015,2 hPa 0,0 mm 0,0 km/h (0 Bft) W-NW 303 0 min 0,000 mm 0,0 UV-I 0 W/m 12,5 C 0,0 km/h (0 Bft)
11.09.2016 02:25 13,8 C 13,8 C 92 % 1015,2 hPa 0,0 mm 0,0 km/h (0 Bft) W-NW 303 0 min 0,000 mm 0,0 UV-I 0 W/m 12,5 C 0,0 km/h (0 Bft)
11.09.2016 02:26 13,8 C 13,8 C 92 % 1015,2 hPa 0,0 mm 0,0 km/h (0 Bft) W-NW 303 0 min 0,000 mm 0,0 UV-I 0 W/m 12,5 C 0,0 km/h (0 Bft)
11.09.2016 02:27 13,8 C 13,8 C 92 % 1015,1 hPa 0,0 mm 0,0 km/h (0 Bft) W-NW 303 0 min 0,000 mm 0,0 UV-I 0 W/m 12,5 C 0,0 km/h (0 Bft)
11.09.2016 02:28 13,8 C 13,8 C 92 % 1015,2 hPa 0,0 mm 0,0 km/h (0 Bft) W-NW 303 0 min 0,000 mm 0,0 UV-I 0 W/m 12,5 C 0,0 km/h (0 Bft)
11.09.2016 02:29 13,8 C 13,8 C 93 % 1015,2 hPa 0,0 mm 0,0 km/h (0 Bft) W-NW 303 0 min 0,000 mm 0,0 UV-I 0 W/m 12,7 C 0,0 km/h (0 Bft)
11.09.2016 02:30 13,8 C 13,8 C 92 % 1015,2 hPa 0,0 mm 0,0 km/h (0 Bft) W-NW 303 0 min 0,000 mm 0,0 UV-I 0 W/m 12,5 C 0,0 km/h (0 Bft)
11.09.2016 02:31 13,7 C 13,8 C 92 % 1015,2 hPa 0,0 mm 0,0 km/h (0 Bft) W-NW 303 0 min 0,000 mm 0,0 UV-I 0 W/m 12,4 C 0,0 km/h (0 Bft)
11.09.2016 02:32 13,7 C 13,7 C 92 % 1015,2 hPa 0,0 mm 0,0 km/h (0 Bft) W-NW 303 0 min 0,000 mm 0,0 UV-I 0 W/m 12,4 C 0,0 km/h (0 Bft)
11.09.2016 02:33 13,7 C 13,7 C 92 % 1015,2 hPa 0,0 mm 0,0 km/h (0 Bft) W-NW 303 0 min 0,000 mm 0,0 UV-I 0 W/m 12,4 C 0,0 km/h (0 Bft)
11.09.2016 02:34 13,7 C 13,7 C 93 % 1015,2 hPa 0,0 mm 0,0 km/h (0 Bft) W-NW 303 0 min 0,000 mm 0,0 UV-I 0 W/m 12,6 C 0,0 km/h (0 Bft)
11.09.2016 02:35 13,7 C 13,7 C 93 % 1015,2 hPa 0,0 mm 0,0 km/h (0 Bft) W-NW 303 0 min 0,000 mm 0,0 UV-I 0 W/m 12,6 C 0,0 km/h (0 Bft)
11.09.2016 02:36 13,7 C 13,7 C 93 % 1015,2 hPa 0,0 mm 0,0 km/h (0 Bft) W-NW 303 0 min 0,000 mm 0,0 UV-I 0 W/m 12,6 C 0,0 km/h (0 Bft)
11.09.2016 02:37 13,8 C 13,8 C 93 % 1015,1 hPa 0,0 mm 0,0 km/h (0 Bft) W-NW 303 0 min 0,000 mm 0,0 UV-I 0 W/m 12,7 C 0,0 km/h (0 Bft)
11.09.2016 02:38 13,8 C 13,8 C 92 % 1015,2 hPa 0,0 mm 0,0 km/h (0 Bft) W-NW 303 0 min 0,000 mm 0,0 UV-I 0 W/m 12,5 C 0,0 km/h (0 Bft)
11.09.2016 02:39 13,7 C 13,8 C 92 % 1015,2 hPa 0,0 mm 0,0 km/h (0 Bft) W-NW 303 0 min 0,000 mm 0,0 UV-I 0 W/m 12,4 C 0,0 km/h (0 Bft)
11.09.2016 02:40 13,8 C 13,8 C 92 % 1015,2 hPa 0,0 mm 0,0 km/h (0 Bft) W-NW 303 0 min 0,000 mm 0,0 UV-I 0 W/m 12,5 C 0,0 km/h (0 Bft)
11.09.2016 02:41 13,8 C 13,8 C 93 % 1015,2 hPa 0,0 mm 0,0 km/h (0 Bft) W-NW 303 0 min 0,000 mm 0,0 UV-I 0 W/m 12,7 C 0,0 km/h (0 Bft)
11.09.2016 02:42 13,8 C 13,8 C 92 % 1015,2 hPa 0,0 mm 0,0 km/h (0 Bft) W-NW 303 0 min 0,000 mm 0,0 UV-I 0 W/m 12,5 C 0,0 km/h (0 Bft)
11.09.2016 02:43 13,8 C 13,8 C 92 % 1015,2 hPa 0,0 mm 0,0 km/h (0 Bft) W-NW 303 0 min 0,000 mm 0,0 UV-I 0 W/m 12,5 C 0,0 km/h (0 Bft)
11.09.2016 02:44 13,8 C 13,8 C 92 % 1015,2 hPa 0,0 mm 0,0 km/h (0 Bft) W-NW 303 0 min 0,000 mm 0,0 UV-I 0 W/m 12,5 C 0,0 km/h (0 Bft)
11.09.2016 02:45 13,8 C 13,8 C 92 % 1015,2 hPa 0,0 mm 0,0 km/h (0 Bft) W-NW 303 0 min 0,000 mm 0,0 UV-I 0 W/m 12,5 C 0,0 km/h (0 Bft)
11.09.2016 02:46 13,8 C 13,8 C 92 % 1015,2 hPa 0,0 mm 0,0 km/h (0 Bft) W-NW 303 0 min 0,000 mm 0,0 UV-I 0 W/m 12,5 C 0,0 km/h (0 Bft)
11.09.2016 02:47 13,8 C 13,8 C 93 % 1015,2 hPa 0,0 mm 0,0 km/h (0 Bft) W-NW 303 0 min 0,000 mm 0,0 UV-I 0 W/m 12,7 C 0,0 km/h (0 Bft)
11.09.2016 02:48 13,8 C 13,8 C 92 % 1015,1 hPa 0,0 mm 0,0 km/h (0 Bft) W-NW 303 0 min 0,000 mm 0,0 UV-I 0 W/m 12,5 C 0,0 km/h (0 Bft)
11.09.2016 02:49 13,8 C 13,8 C 92 % 1015,1 hPa 0,0 mm 1,5 km/h (1 Bft) W-NW 303 0 min 0,000 mm 0,0 UV-I 0 W/m 12,5 C 3,2 km/h (1 Bft)
11.09.2016 02:50 13,8 C 13,8 C 92 % 1015,1 hPa 0,0 mm 0,1 km/h (0 Bft) W-NW 303 0 min 0,000 mm 0,0 UV-I 0 W/m 12,5 C 1,6 km/h (1 Bft)
11.09.2016 02:51 13,8 C 13,8 C 92 % 1015,1 hPa 0,0 mm 0,0 km/h (0 Bft) W-NW 303 0 min 0,000 mm 0,0 UV-I 0 W/m 12,5 C 0,0 km/h (0 Bft)
11.09.2016 02:52 13,8 C 13,8 C 92 % 1015,2 hPa 0,0 mm 0,0 km/h (0 Bft) W-NW 303 0 min 0,000 mm 0,0 UV-I 0 W/m 12,5 C 0,0 km/h (0 Bft)
11.09.2016 02:53 13,8 C 13,8 C 93 % 1015,2 hPa 0,0 mm 0,0 km/h (0 Bft) W-NW 303 0 min 0,000 mm 0,0 UV-I 0 W/m 12,7 C 0,0 km/h (0 Bft)
11.09.2016 02:54 13,9 C 13,9 C 93 % 1015,2 hPa 0,0 mm 0,0 km/h (0 Bft) W-NW 303 0 min 0,000 mm 0,0 UV-I 0 W/m 12,8 C 0,0 km/h (0 Bft)
11.09.2016 02:55 13,9 C 13,9 C 93 % 1015,2 hPa 0,0 mm 0,0 km/h (0 Bft) W-NW 303 0 min 0,000 mm 0,0 UV-I 0 W/m 12,8 C 0,0 km/h (0 Bft)
11.09.2016 02:56 14,0 C 14,0 C 93 % 1015,2 hPa 0,0 mm 0,0 km/h (0 Bft) W-NW 303 0 min 0,000 mm 0,0 UV-I 0 W/m 12,9 C 0,0 km/h (0 Bft)
11.09.2016 02:57 14,0 C 14,0 C 92 % 1015,2 hPa 0,0 mm 0,0 km/h (0 Bft) W-NW 303 0 min 0,000 mm 0,0 UV-I 0 W/m 12,7 C 0,0 km/h (0 Bft)
11.09.2016 02:58 14,0 C 14,0 C 92 % 1015,2 hPa 0,0 mm 0,0 km/h (0 Bft) W-NW 303 0 min 0,000 mm 0,0 UV-I 0 W/m 12,7 C 0,0 km/h (0 Bft)
11.09.2016 02:59 14,0 C 14,0 C 92 % 1015,2 hPa 0,0 mm 0,7 km/h (0 Bft) W-NW 303 0 min 0,000 mm 0,0 UV-I 0 W/m 12,7 C 3,2 km/h (1 Bft)
11.09.2016 03:00 14,0 C 14,0 C 91 % 1015,2 hPa 0,0 mm 1,1 km/h (1 Bft) W-NW 303 0 min 0,000 mm 0,0 UV-I 0 W/m 12,6 C 1,6 km/h (1 Bft)
11.09.2016 03:01 14,0 C 14,0 C 92 % 1015,3 hPa 0,0 mm 1,0 km/h (0 Bft) W-NW 303 0 min 0,000 mm 0,0 UV-I 0 W/m 12,7 C 1,6 km/h (1 Bft)
11.09.2016 03:02 14,0 C 14,0 C 92 % 1015,3 hPa 0,0 mm 0,1 km/h (0 Bft) W-NW 303 0 min 0,000 mm 0,0 UV-I 0 W/m 12,7 C 1,6 km/h (1 Bft)
11.09.2016 03:03 14,0 C 14,0 C 92 % 1015,2 hPa 0,0 mm 0,0 km/h (0 Bft) W-NW 303 0 min 0,000 mm 0,0 UV-I 0 W/m 12,7 C 0,0 km/h (0 Bft)
11.09.2016 03:04 14,0 C 14,0 C 92 % 1015,3 hPa 0,0 mm 0,0 km/h (0 Bft) W-NW 303 0 min 0,000 mm 0,0 UV-I 0 W/m 12,7 C 0,0 km/h (0 Bft)
11.09.2016 03:05 14,0 C 14,0 C 92 % 1015,2 hPa 0,0 mm 1,5 km/h (1 Bft) W-NW 303 0 min 0,000 mm 0,0 UV-I 0 W/m 12,7 C 3,2 km/h (1 Bft)
11.09.2016 03:06 14,0 C 14,1 C 92 % 1015,3 hPa 0,0 mm 1,5 km/h (1 Bft) W-NW 303 0 min 0,000 mm 0,0 UV-I 0 W/m 12,7 C 3,2 km/h (1 Bft)
11.09.2016 03:07 14,1 C 14,1 C 92 % 1015,3 hPa 0,0 mm 0,1 km/h (0 Bft) W-NW 303 0 min 0,000 mm 0,0 UV-I 0 W/m 12,8 C 1,6 km/h (1 Bft)
11.09.2016 03:08 14,1 C 14,1 C 92 % 1015,3 hPa 0,0 mm 0,7 km/h (0 Bft) W-NW 303 0 min 0,000 mm 0,0 UV-I 0 W/m 12,8 C 1,6 km/h (1 Bft)
11.09.2016 03:09 14,1 C 14,1 C 92 % 1015,3 hPa 0,0 mm 0,0 km/h (0 Bft) W-NW 303 0 min 0,000 mm 0,0 UV-I 0 W/m 12,8 C 0,0 km/h (0 Bft)
11.09.2016 03:10 14,2 C 14,2 C 92 % 1015,2 hPa 0,0 mm 0,0 km/h (0 Bft) W-NW 303 0 min 0,000 mm 0,0 UV-I 0 W/m 12,9 C 0,0 km/h (0 Bft)
11.09.2016 03:11 14,2 C 14,2 C 92 % 1015,2 hPa 0,0 mm 0,6 km/h (0 Bft) W-NW 303 0 min 0,000 mm 0,0 UV-I 0 W/m 12,9 C 1,6 km/h (1 Bft)
11.09.2016 03:12 14,1 C 14,2 C 92 % 1015,3 hPa 0,0 mm 0,7 km/h (0 Bft) W-NW 303 0 min 0,000 mm 0,0 UV-I 0 W/m 12,8 C 1,6 km/h (1 Bft)
11.09.2016 03:13 14,1 C 14,1 C 92 % 1015,3 hPa 0,0 mm 2,0 km/h (1 Bft) W-NW 303 0 min 0,000 mm 0,0 UV-I 0 W/m 12,8 C 3,2 km/h (1 Bft)
11.09.2016 03:14 14,1 C 14,2 C 91 % 1015,2 hPa 0,0 mm 1,1 km/h (1 Bft) W-NW 303 0 min 0,000 mm 0,0 UV-I 0 W/m 12,7 C 3,2 km/h (1 Bft)
11.09.2016 03:15 14,1 C 14,1 C 91 % 1015,3 hPa 0,0 mm 0,1 km/h (0 Bft) W-NW 303 0 min 0,000 mm 0,0 UV-I 0 W/m 12,7 C 1,6 km/h (1 Bft)
11.09.2016 03:16 14,1 C 14,1 C 91 % 1015,2 hPa 0,0 mm 0,0 km/h (0 Bft) W-NW 303 0 min 0,000 mm 0,0 UV-I 0 W/m 12,7 C 0,0 km/h (0 Bft)
11.09.2016 03:17 14,1 C 14,1 C 92 % 1015,3 hPa 0,0 mm 0,0 km/h (0 Bft) W-NW 303 0 min 0,000 mm 0,0 UV-I 0 W/m 12,8 C 0,0 km/h (0 Bft)
11.09.2016 03:18 14,1 C 14,1 C 92 % 1015,2 hPa 0,0 mm 0,1 km/h (0 Bft) W-NW 303 0 min 0,000 mm 0,0 UV-I 0 W/m 12,8 C 1,6 km/h (1 Bft)
11.09.2016 03:19 14,2 C 14,2 C 92 % 1015,2 hPa 0,0 mm 1,2 km/h (1 Bft) W-NW 303 0 min 0,000 mm 0,0 UV-I 0 W/m 12,9 C 3,2 km/h (1 Bft)
11.09.2016 03:20 14,2 C 14,2 C 92 % 1015,2 hPa 0,0 mm 0,1 km/h (0 Bft) W-NW 303 0 min 0,000 mm 0,0 UV-I 0 W/m 12,9 C 1,6 km/h (1 Bft)
11.09.2016 03:21 14,2 C 14,2 C 92 % 1015,2 hPa 0,0 mm 0,4 km/h (0 Bft) W-NW 303 0 min 0,000 mm 0,0 UV-I 0 W/m 12,9 C 1,6 km/h (1 Bft)
11.09.2016 03:22 14,2 C 14,2 C 91 % 1015,2 hPa 0,0 mm 0,5 km/h (0 Bft) W-NW 303 0 min 0,000 mm 0,0 UV-I 0 W/m 12,8 C 1,6 km/h (1 Bft)
11.09.2016 03:23 14,2 C 14,2 C 91 % 1015,2 hPa 0,0 mm 0,1 km/h (0 Bft) W-NW 303 0 min 0,000 mm 0,0 UV-I 0 W/m 12,8 C 1,6 km/h (1 Bft)
11.09.2016 03:24 14,2 C 14,3 C 91 % 1015,2 hPa 0,0 mm 0,5 km/h (0 Bft) W-NW 303 0 min 0,000 mm 0,0 UV-I 0 W/m 12,8 C 1,6 km/h (1 Bft)
11.09.2016 03:25 14,2 C 14,2 C 91 % 1015,2 hPa 0,0 mm 0,0 km/h (0 Bft) W-NW 303 0 min 0,000 mm 0,0 UV-I 0 W/m 12,8 C 0,0 km/h (0 Bft)
11.09.2016 03:26 14,3 C 14,3 C 91 % 1015,2 hPa 0,0 mm 0,2 km/h (0 Bft) W-NW 303 0 min 0,000 mm 0,0 UV-I 0 W/m 12,8 C 1,6 km/h (1 Bft)
11.09.2016 03:27 14,3 C 14,3 C 91 % 1015,2 hPa 0,0 mm 0,3 km/h (0 Bft) W-NW 303 0 min 0,000 mm 0,0 UV-I 0 W/m 12,8 C 1,6 km/h (1 Bft)
11.09.2016 03:28 14,3 C 14,3 C 90 % 1015,2 hPa 0,0 mm 0,3 km/h (0 Bft) W 271 0 min 0,000 mm 0,0 UV-I 0 W/m 12,7 C 1,6 km/h (1 Bft)
11.09.2016 03:29 14,3 C 14,3 C 90 % 1015,2 hPa 0,0 mm 0,5 km/h (0 Bft) W 271 0 min 0,000 mm 0,0 UV-I 0 W/m 12,7 C 1,6 km/h (1 Bft)
11.09.2016 03:30 14,3 C 14,3 C 91 % 1015,2 hPa 0,0 mm 1,0 km/h (0 Bft) W 271 0 min 0,000 mm 0,0 UV-I 0 W/m 12,8 C 3,2 km/h (1 Bft)
11.09.2016 03:31 14,3 C 14,3 C 91 % 1015,3 hPa 0,0 mm 0,0 km/h (0 Bft) W 271 0 min 0,000 mm 0,0 UV-I 0 W/m 12,8 C 0,0 km/h (0 Bft)
11.09.2016 03:32 14,3 C 14,3 C 91 % 1015,2 hPa 0,0 mm 0,0 km/h (0 Bft) W 271 0 min 0,000 mm 0,0 UV-I 0 W/m 12,8 C 0,0 km/h (0 Bft)
11.09.2016 03:33 14,3 C 14,3 C 90 % 1015,3 hPa 0,0 mm 1,9 km/h (1 Bft) W 271 0 min 0,000 mm 0,0 UV-I 0 W/m 12,7 C 4,8 km/h (1 Bft)
11.09.2016 03:34 14,2 C 14,3 C 90 % 1015,3 hPa 0,0 mm 2,3 km/h (1 Bft) W 271 0 min 0,000 mm 0,0 UV-I 0 W/m 12,6 C 3,2 km/h (1 Bft)
11.09.2016 03:35 14,2 C 14,2 C 90 % 1015,3 hPa 0,0 mm 0,6 km/h (0 Bft) W 271 0 min 0,000 mm 0,0 UV-I 0 W/m 12,6 C 3,2 km/h (1 Bft)
11.09.2016 03:36 14,1 C 14,2 C 90 % 1015,2 hPa 0,0 mm 0,0 km/h (0 Bft) W 271 0 min 0,000 mm 0,0 UV-I 0 W/m 12,5 C 0,0 km/h (0 Bft)
11.09.2016 03:37 14,0 C 14,1 C 91 % 1015,2 hPa 0,0 mm 0,0 km/h (0 Bft) W 271 0 min 0,000 mm 0,0 UV-I 0 W/m 12,6 C 0,0 km/h (0 Bft)
11.09.2016 03:38 14,0 C 14,0 C 91 % 1015,3 hPa 0,0 mm 0,0 km/h (0 Bft) W 271 0 min 0,000 mm 0,0 UV-I 0 W/m 12,6 C 0,0 km/h (0 Bft)
11.09.2016 03:39 14,0 C 14,0 C 91 % 1015,3 hPa 0,0 mm 0,2 km/h (0 Bft) W 271 0 min 0,000 mm 0,0 UV-I 0 W/m 12,6 C 1,6 km/h (1 Bft)
11.09.2016 03:40 14,0 C 14,0 C 91 % 1015,3 hPa 0,0 mm 0,1 km/h (0 Bft) W 271 0 min 0,000 mm 0,0 UV-I 0 W/m 12,6 C 1,6 km/h (1 Bft)
11.09.2016 03:41 14,0 C 14,0 C 91 % 1015,3 hPa 0,0 mm 0,0 km/h (0 Bft) W 271 0 min 0,000 mm 0,0 UV-I 0 W/m 12,6 C 0,0 km/h (0 Bft)
11.09.2016 03:42 14,0 C 14,1 C 91 % 1015,3 hPa 0,0 mm 0,4 km/h (0 Bft) W 271 0 min 0,000 mm 0,0 UV-I 0 W/m 12,6 C 1,6 km/h (1 Bft)
11.09.2016 03:43 14,1 C 14,1 C 91 % 1015,3 hPa 0,0 mm 0,1 km/h (0 Bft) W 271 0 min 0,000 mm 0,0 UV-I 0 W/m 12,7 C 1,6 km/h (1 Bft)
11.09.2016 03:44 14,1 C 14,1 C 91 % 1015,2 hPa 0,0 mm 0,1 km/h (0 Bft) W 271 0 min 0,000 mm 0,0 UV-I 0 W/m 12,7 C 1,6 km/h (1 Bft)
11.09.2016 03:45 14,2 C 14,2 C 91 % 1015,2 hPa 0,0 mm 0,1 km/h (0 Bft) W 271 0 min 0,000 mm 0,0 UV-I 0 W/m 12,8 C 1,6 km/h (1 Bft)
11.09.2016 03:46 14,2 C 14,2 C 91 % 1015,3 hPa 0,0 mm 0,1 km/h (0 Bft) W 271 0 min 0,000 mm 0,0 UV-I 0 W/m 12,8 C 1,6 km/h (1 Bft)
11.09.2016 03:47 14,2 C 14,2 C 91 % 1015,3 hPa 0,0 mm 0,0 km/h (0 Bft) W 271 0 min 0,000 mm 0,0 UV-I 0 W/m 12,8 C 0,0 km/h (0 Bft)
11.09.2016 03:48 14,3 C 14,3 C 91 % 1015,3 hPa 0,0 mm 0,1 km/h (0 Bft) W 271 0 min 0,000 mm 0,0 UV-I 0 W/m 12,8 C 1,6 km/h (1 Bft)
11.09.2016 03:49 14,3 C 14,3 C 91 % 1015,2 hPa 0,0 mm 0,3 km/h (0 Bft) W 271 0 min 0,000 mm 0,0 UV-I 0 W/m 12,8 C 1,6 km/h (1 Bft)
11.09.2016 03:50 14,3 C 14,3 C 91 % 1015,3 hPa 0,0 mm 0,6 km/h (0 Bft) W 271 0 min 0,000 mm 0,0 UV-I 0 W/m 12,8 C 1,6 km/h (1 Bft)
11.09.2016 03:51 14,3 C 14,3 C 91 % 1015,3 hPa 0,0 mm 0,0 km/h (0 Bft) W 271 0 min 0,000 mm 0,0 UV-I 0 W/m 12,8 C 0,0 km/h (0 Bft)
11.09.2016 03:52 14,4 C 14,4 C 91 % 1015,3 hPa 0,0 mm 0,0 km/h (0 Bft) W 271 0 min 0,000 mm 0,0 UV-I 0 W/m 12,9 C 0,0 km/h (0 Bft)
11.09.2016 03:53 14,4 C 14,4 C 91 % 1015,3 hPa 0,0 mm 0,1 km/h (0 Bft) W 271 0 min 0,000 mm 0,0 UV-I 0 W/m 12,9 C 1,6 km/h (1 Bft)
11.09.2016 03:54 14,6 C 14,6 C 91 % 1015,3 hPa 0,0 mm 0,1 km/h (0 Bft) W 271 0 min 0,000 mm 0,0 UV-I 0 W/m 13,1 C 1,6 km/h (1 Bft)
11.09.2016 03:55 14,6 C 14,6 C 91 % 1015,3 hPa 0,0 mm 0,1 km/h (0 Bft) W 271 0 min 0,000 mm 0,0 UV-I 0 W/m 13,1 C 1,6 km/h (1 Bft)
11.09.2016 03:56 14,6 C 14,6 C 90 % 1015,2 hPa 0,0 mm 0,4 km/h (0 Bft) W 271 0 min 0,000 mm 0,0 UV-I 0 W/m 13,0 C 1,6 km/h (1 Bft)
11.09.2016 03:57 14,7 C 14,7 C 90 % 1015,3 hPa 0,0 mm 0,8 km/h (0 Bft) W 271 0 min 0,000 mm 0,0 UV-I 0 W/m 13,1 C 3,2 km/h (1 Bft)
11.09.2016 03:58 14,7 C 14,7 C 90 % 1015,3 hPa 0,0 mm 0,5 km/h (0 Bft) W 271 0 min 0,000 mm 0,0 UV-I 0 W/m 13,1 C 1,6 km/h (1 Bft)
11.09.2016 03:59 14,7 C 14,7 C 90 % 1015,3 hPa 0,0 mm 0,1 km/h (0 Bft) W 271 0 min 0,000 mm 0,0 UV-I 0 W/m 13,1 C 1,6 km/h (1 Bft)
11.09.2016 04:00 14,7 C 14,7 C 90 % 1015,3 hPa 0,0 mm 0,0 km/h (0 Bft) W 271 0 min 0,000 mm 0,0 UV-I 0 W/m 13,1 C 0,0 km/h (0 Bft)
11.09.2016 04:01 14,7 C 14,7 C 90 % 1015,3 hPa 0,0 mm 0,7 km/h (0 Bft) W 271 0 min 0,000 mm 0,0 UV-I 0 W/m 13,1 C 1,6 km/h (1 Bft)
11.09.2016 04:02 14,7 C 14,7 C 90 % 1015,3 hPa 0,0 mm 0,0 km/h (0 Bft) W 271 0 min 0,000 mm 0,0 UV-I 0 W/m 13,1 C 0,0 km/h (0 Bft)
11.09.2016 04:03 14,6 C 14,7 C 90 % 1015,3 hPa 0,0 mm 0,0 km/h (0 Bft) W 271 0 min 0,000 mm 0,0 UV-I 0 W/m 13,0 C 0,0 km/h (0 Bft)
11.09.2016 04:04 14,6 C 14,7 C 90 % 1015,3 hPa 0,0 mm 0,3 km/h (0 Bft) W 271 0 min 0,000 mm 0,0 UV-I 0 W/m 13,0 C 1,6 km/h (1 Bft)
11.09.2016 04:05 14,6 C 14,7 C 90 % 1015,3 hPa 0,0 mm 0,9 km/h (0 Bft) W 271 0 min 0,000 mm 0,0 UV-I 0 W/m 13,0 C 1,6 km/h (1 Bft)
11.09.2016 04:06 14,6 C 14,7 C 90 % 1015,3 hPa 0,0 mm 1,0 km/h (0 Bft) W 271 0 min 0,000 mm 0,0 UV-I 0 W/m 13,0 C 1,6 km/h (1 Bft)
11.09.2016 04:07 14,6 C 14,7 C 90 % 1015,3 hPa 0,0 mm 0,1 km/h (0 Bft) W 271 0 min 0,000 mm 0,0 UV-I 0 W/m 13,0 C 1,6 km/h (1 Bft)
11.09.2016 04:08 14,6 C 14,7 C 90 % 1015,3 hPa 0,0 mm 0,0 km/h (0 Bft) W 271 0 min 0,000 mm 0,0 UV-I 0 W/m 13,0 C 0,0 km/h (0 Bft)
11.09.2016 04:09 14,6 C 14,6 C 90 % 1015,3 hPa 0,0 mm 0,0 km/h (0 Bft) W 271 0 min 0,000 mm 0,0 UV-I 0 W/m 13,0 C 0,0 km/h (0 Bft)
11.09.2016 04:10 14,5 C 14,6 C 90 % 1015,3 hPa 0,0 mm 0,0 km/h (0 Bft) W 271 0 min 0,000 mm 0,0 UV-I 0 W/m 12,9 C 0,0 km/h (0 Bft)
11.09.2016 04:11 14,4 C 14,5 C 90 % 1015,3 hPa 0,0 mm 0,0 km/h (0 Bft) W 271 0 min 0,000 mm 0,0 UV-I 0 W/m 12,8 C 0,0 km/h (0 Bft)
11.09.2016 04:12 14,4 C 14,4 C 90 % 1015,3 hPa 0,0 mm 0,0 km/h (0 Bft) W 271 0 min 0,000 mm 0,0 UV-I 0 W/m 12,8 C 0,0 km/h (0 Bft)
11.09.2016 04:13 14,3 C 14,4 C 90 % 1015,3 hPa 0,0 mm 0,0 km/h (0 Bft) W 271 0 min 0,000 mm 0,0 UV-I 0 W/m 12,7 C 0,0 km/h (0 Bft)
11.09.2016 04:14 14,3 C 14,3 C 90 % 1015,3 hPa 0,0 mm 0,0 km/h (0 Bft) W 271 0 min 0,000 mm 0,0 UV-I 0 W/m 12,7 C 0,0 km/h (0 Bft)
11.09.2016 04:15 14,3 C 14,3 C 90 % 1015,3 hPa 0,0 mm 0,0 km/h (0 Bft) W 271 0 min 0,000 mm 0,0 UV-I 0 W/m 12,7 C 0,0 km/h (0 Bft)
11.09.2016 04:16 14,3 C 14,3 C 91 % 1015,3 hPa 0,0 mm 0,0 km/h (0 Bft) W 271 0 min 0,000 mm 0,0 UV-I 0 W/m 12,8 C 0,0 km/h (0 Bft)
11.09.2016 04:17 14,2 C 14,3 C 90 % 1015,3 hPa 0,0 mm 0,0 km/h (0 Bft) W 271 0 min 0,000 mm 0,0 UV-I 0 W/m 12,6 C 0,0 km/h (0 Bft)
11.09.2016 04:18 14,2 C 14,2 C 91 % 1015,3 hPa 0,0 mm 0,0 km/h (0 Bft) W 271 0 min 0,000 mm 0,0 UV-I 0 W/m 12,8 C 0,0 km/h (0 Bft)
11.09.2016 04:19 14,2 C 14,2 C 91 % 1015,3 hPa 0,0 mm 0,0 km/h (0 Bft) W 271 0 min 0,000 mm 0,0 UV-I 0 W/m 12,8 C 0,0 km/h (0 Bft)
11.09.2016 04:20 14,2 C 14,2 C 91 % 1015,3 hPa 0,0 mm 0,0 km/h (0 Bft) W 271 0 min 0,000 mm 0,0 UV-I 0 W/m 12,8 C 0,0 km/h (0 Bft)
11.09.2016 04:21 14,2 C 14,2 C 91 % 1015,3 hPa 0,0 mm 0,0 km/h (0 Bft) W 271 0 min 0,000 mm 0,0 UV-I 0 W/m 12,8 C 0,0 km/h (0 Bft)
11.09.2016 04:22 14,2 C 14,2 C 91 % 1015,3 hPa 0,0 mm 0,0 km/h (0 Bft) W 271 0 min 0,000 mm 0,0 UV-I 0 W/m 12,8 C 0,0 km/h (0 Bft)
11.09.2016 04:23 14,2 C 14,2 C 91 % 1015,3 hPa 0,0 mm 0,0 km/h (0 Bft) W 271 0 min 0,000 mm 0,0 UV-I 0 W/m 12,8 C 0,0 km/h (0 Bft)
11.09.2016 04:24 14,2 C 14,2 C 91 % 1015,3 hPa 0,0 mm 0,0 km/h (0 Bft) W 271 0 min 0,000 mm 0,0 UV-I 0 W/m 12,8 C 0,0 km/h (0 Bft)
11.09.2016 04:25 14,1 C 14,2 C 91 % 1015,3 hPa 0,0 mm 0,0 km/h (0 Bft) W 271 0 min 0,000 mm 0,0 UV-I 0 W/m 12,7 C 0,0 km/h (0 Bft)
11.09.2016 04:26 14,1 C 14,1 C 91 % 1015,3 hPa 0,0 mm 0,0 km/h (0 Bft) W 271 0 min 0,000 mm 0,0 UV-I 0 W/m 12,7 C 0,0 km/h (0 Bft)
11.09.2016 04:27 14,2 C 14,2 C 91 % 1015,3 hPa 0,0 mm 0,0 km/h (0 Bft) NW 319 0 min 0,000 mm 0,0 UV-I 0 W/m 12,8 C 0,0 km/h (0 Bft)
11.09.2016 04:28 14,1 C 14,2 C 91 % 1015,3 hPa 0,0 mm 0,0 km/h (0 Bft) NW 319 0 min 0,000 mm 0,0 UV-I 0 W/m 12,7 C 0,0 km/h (0 Bft)
11.09.2016 04:29 14,1 C 14,1 C 91 % 1015,3 hPa 0,0 mm 0,0 km/h (0 Bft) S-SW 202 0 min 0,000 mm 0,0 UV-I 0 W/m 12,7 C 0,0 km/h (0 Bft)
11.09.2016 04:30 14,2 C 14,2 C 91 % 1015,3 hPa 0,0 mm 0,0 km/h (0 Bft) S-SW 203 0 min 0,000 mm 0,0 UV-I 0 W/m 12,8 C 0,0 km/h (0 Bft)
11.09.2016 04:31 14,2 C 14,2 C 91 % 1015,3 hPa 0,0 mm 0,0 km/h (0 Bft) SW 225 0 min 0,000 mm 0,0 UV-I 0 W/m 12,8 C 0,0 km/h (0 Bft)
11.09.2016 04:32 14,1 C 14,2 C 91 % 1015,3 hPa 0,0 mm 0,0 km/h (0 Bft) SW 225 0 min 0,000 mm 0,0 UV-I 0 W/m 12,7 C 0,0 km/h (0 Bft)
11.09.2016 04:33 14,1 C 14,1 C 90 % 1015,3 hPa 0,0 mm 0,0 km/h (0 Bft) SW 225 0 min 0,000 mm 0,0 UV-I 0 W/m 12,5 C 0,0 km/h (0 Bft)
11.09.2016 04:34 14,1 C 14,1 C 90 % 1015,3 hPa 0,0 mm 0,0 km/h (0 Bft) SW 225 0 min 0,000 mm 0,0 UV-I 0 W/m 12,5 C 0,0 km/h (0 Bft)
11.09.2016 04:35 14,2 C 14,2 C 90 % 1015,3 hPa 0,0 mm 0,0 km/h (0 Bft) SW 225 0 min 0,000 mm 0,0 UV-I 0 W/m 12,6 C 0,0 km/h (0 Bft)
11.09.2016 04:36 14,1 C 14,2 C 91 % 1015,3 hPa 0,0 mm 0,0 km/h (0 Bft) SW 225 0 min 0,000 mm 0,0 UV-I 0 W/m 12,7 C 0,0 km/h (0 Bft)
11.09.2016 04:37 14,1 C 14,1 C 91 % 1015,3 hPa 0,0 mm 0,0 km/h (0 Bft) SW 225 0 min 0,000 mm 0,0 UV-I 0 W/m 12,7 C 0,0 km/h (0 Bft)
11.09.2016 04:38 14,1 C 14,1 C 91 % 1015,2 hPa 0,0 mm 0,0 km/h (0 Bft) SW 225 0 min 0,000 mm 0,0 UV-I 0 W/m 12,7 C 0,0 km/h (0 Bft)
11.09.2016 04:39 14,1 C 14,1 C 91 % 1015,3 hPa 0,0 mm 0,0 km/h (0 Bft) SW 225 0 min 0,000 mm 0,0 UV-I 0 W/m 12,7 C 0,0 km/h (0 Bft)
11.09.2016 04:40 14,1 C 14,1 C 92 % 1015,3 hPa 0,0 mm 0,0 km/h (0 Bft) SW 225 0 min 0,000 mm 0,0 UV-I 0 W/m 12,8 C 0,0 km/h (0 Bft)
11.09.2016 04:41 14,1 C 14,1 C 91 % 1015,3 hPa 0,0 mm 0,0 km/h (0 Bft) SW 225 0 min 0,000 mm 0,0 UV-I 0 W/m 12,7 C 0,0 km/h (0 Bft)
11.09.2016 04:42 14,1 C 14,1 C 91 % 1015,3 hPa 0,0 mm 0,0 km/h (0 Bft) SW 225 0 min 0,000 mm 0,0 UV-I 0 W/m 12,7 C 0,0 km/h (0 Bft)
11.09.2016 04:43 14,1 C 14,1 C 91 % 1015,3 hPa 0,0 mm 0,0 km/h (0 Bft) W 279 0 min 0,000 mm 0,0 UV-I 0 W/m 12,7 C 0,0 km/h (0 Bft)
11.09.2016 04:44 14,0 C 14,1 C 90 % 1015,3 hPa 0,0 mm 0,0 km/h (0 Bft) W 279 0 min 0,000 mm 0,0 UV-I 0 W/m 12,4 C 0,0 km/h (0 Bft)
11.09.2016 04:45 13,9 C 14,0 C 91 % 1015,3 hPa 0,0 mm 0,0 km/h (0 Bft) W 279 0 min 0,000 mm 0,0 UV-I 0 W/m 12,5 C 0,0 km/h (0 Bft)
11.09.2016 04:46 13,9 C 13,9 C 91 % 1015,3 hPa 0,0 mm 0,0 km/h (0 Bft) W 279 0 min 0,000 mm 0,0 UV-I 0 W/m 12,5 C 0,0 km/h (0 Bft)
11.09.2016 04:47 13,9 C 13,9 C 90 % 1015,3 hPa 0,0 mm 0,0 km/h (0 Bft) W 279 0 min 0,000 mm 0,0 UV-I 0 W/m 12,3 C 0,0 km/h (0 Bft)
11.09.2016 04:48 13,9 C 13,9 C 90 % 1015,3 hPa 0,0 mm 0,0 km/h (0 Bft) W 279 0 min 0,000 mm 0,0 UV-I 0 W/m 12,3 C 0,0 km/h (0 Bft)
11.09.2016 04:49 13,8 C 13,9 C 91 % 1015,3 hPa 0,0 mm 0,0 km/h (0 Bft) W 279 0 min 0,000 mm 0,0 UV-I 0 W/m 12,4 C 0,0 km/h (0 Bft)
11.09.2016 04:50 13,8 C 13,8 C 91 % 1015,4 hPa 0,0 mm 0,0 km/h (0 Bft) W 279 0 min 0,000 mm 0,0 UV-I 0 W/m 12,4 C 0,0 km/h (0 Bft)
11.09.2016 04:51 13,9 C 13,9 C 91 % 1015,4 hPa 0,0 mm 0,0 km/h (0 Bft) W 279 0 min 0,000 mm 0,0 UV-I 0 W/m 12,5 C 0,0 km/h (0 Bft)
11.09.2016 04:52 13,9 C 13,9 C 91 % 1015,4 hPa 0,0 mm 0,0 km/h (0 Bft) W 279 0 min 0,000 mm 0,0 UV-I 0 W/m 12,5 C 0,0 km/h (0 Bft)
11.09.2016 04:53 13,9 C 13,9 C 91 % 1015,4 hPa 0,0 mm 0,0 km/h (0 Bft) W 279 0 min 0,000 mm 0,0 UV-I 0 W/m 12,5 C 0,0 km/h (0 Bft)
11.09.2016 04:54 13,9 C 13,9 C 91 % 1015,4 hPa 0,0 mm 0,0 km/h (0 Bft) W 279 0 min 0,000 mm 0,0 UV-I 0 W/m 12,5 C 0,0 km/h (0 Bft)
11.09.2016 04:55 13,8 C 13,9 C 91 % 1015,4 hPa 0,0 mm 0,0 km/h (0 Bft) W 279 0 min 0,000 mm 0,0 UV-I 0 W/m 12,4 C 0,0 km/h (0 Bft)
11.09.2016 04:56 13,8 C 13,8 C 91 % 1015,4 hPa 0,0 mm 0,0 km/h (0 Bft) W 279 0 min 0,000 mm 0,0 UV-I 0 W/m 12,4 C 0,0 km/h (0 Bft)
11.09.2016 04:57 13,8 C 13,8 C 91 % 1015,4 hPa 0,0 mm 0,0 km/h (0 Bft) W 279 0 min 0,000 mm 0,0 UV-I 0 W/m 12,4 C 0,0 km/h (0 Bft)
11.09.2016 04:58 13,8 C 13,8 C 91 % 1015,4 hPa 0,0 mm 0,0 km/h (0 Bft) W 279 0 min 0,000 mm 0,0 UV-I 0 W/m 12,4 C 0,0 km/h (0 Bft)
11.09.2016 04:59 13,7 C 13,8 C 91 % 1015,4 hPa 0,0 mm 0,0 km/h (0 Bft) W 279 0 min 0,000 mm 0,0 UV-I 0 W/m 12,3 C 0,0 km/h (0 Bft)
11.09.2016 05:00 13,7 C 13,8 C 91 % 1015,4 hPa 0,0 mm 0,0 km/h (0 Bft) W 279 0 min 0,000 mm 0,0 UV-I 0 W/m 12,3 C 0,0 km/h (0 Bft)
11.09.2016 05:01 13,7 C 13,7 C 91 % 1015,4 hPa 0,0 mm 0,0 km/h (0 Bft) W 279 0 min 0,000 mm 0,0 UV-I 0 W/m 12,3 C 0,0 km/h (0 Bft)
11.09.2016 05:02 13,7 C 13,7 C 91 % 1015,4 hPa 0,0 mm 0,0 km/h (0 Bft) W 279 0 min 0,000 mm 0,0 UV-I 0 W/m 12,3 C 0,0 km/h (0 Bft)
11.09.2016 05:03 13,6 C 13,7 C 91 % 1015,5 hPa 0,0 mm 0,0 km/h (0 Bft) W 279 0 min 0,000 mm 0,0 UV-I 0 W/m 12,2 C 0,0 km/h (0 Bft)
11.09.2016 05:04 13,6 C 13,6 C 91 % 1015,5 hPa 0,0 mm 0,0 km/h (0 Bft) W 279 0 min 0,000 mm 0,0 UV-I 0 W/m 12,2 C 0,0 km/h (0 Bft)
11.09.2016 05:05 13,6 C 13,6 C 91 % 1015,5 hPa 0,0 mm 0,0 km/h (0 Bft) W 279 0 min 0,000 mm 0,0 UV-I 0 W/m 12,2 C 0,0 km/h (0 Bft)
11.09.2016 05:06 13,6 C 13,6 C 91 % 1015,5 hPa 0,0 mm 0,0 km/h (0 Bft) W 279 0 min 0,000 mm 0,0 UV-I 0 W/m 12,2 C 0,0 km/h (0 Bft)
11.09.2016 05:07 13,6 C 13,6 C 91 % 1015,5 hPa 0,0 mm 0,0 km/h (0 Bft) W 279 0 min 0,000 mm 0,0 UV-I 0 W/m 12,2 C 0,0 km/h (0 Bft)
11.09.2016 05:08 13,6 C 13,6 C 92 % 1015,5 hPa 0,0 mm 0,0 km/h (0 Bft) W 279 0 min 0,000 mm 0,0 UV-I 0 W/m 12,3 C 0,0 km/h (0 Bft)
11.09.2016 05:09 13,5 C 13,6 C 92 % 1015,5 hPa 0,0 mm 0,0 km/h (0 Bft) W 279 0 min 0,000 mm 0,0 UV-I 0 W/m 12,2 C 0,0 km/h (0 Bft)
11.09.2016 05:10 13,5 C 13,6 C 92 % 1015,5 hPa 0,0 mm 0,0 km/h (0 Bft) W 279 0 min 0,000 mm 0,0 UV-I 0 W/m 12,2 C 0,0 km/h (0 Bft)
11.09.2016 05:11 13,5 C 13,5 C 92 % 1015,5 hPa 0,0 mm 0,0 km/h (0 Bft) W 279 0 min 0,000 mm 0,0 UV-I 0 W/m 12,2 C 0,0 km/h (0 Bft)
11.09.2016 05:12 13,4 C 13,5 C 92 % 1015,5 hPa 0,0 mm 0,0 km/h (0 Bft) W 279 0 min 0,000 mm 0,0 UV-I 0 W/m 12,1 C 0,0 km/h (0 Bft)
11.09.2016 05:13 13,6 C 13,6 C 93 % 1015,5 hPa 0,0 mm 0,0 km/h (0 Bft) W 279 0 min 0,000 mm 0,0 UV-I 0 W/m 12,5 C 0,0 km/h (0 Bft)
11.09.2016 05:14 13,6 C 13,6 C 92 % 1015,5 hPa 0,0 mm 0,0 km/h (0 Bft) W 279 0 min 0,000 mm 0,0 UV-I 0 W/m 12,3 C 0,0 km/h (0 Bft)
11.09.2016 05:15 13,6 C 13,6 C 92 % 1015,5 hPa 0,0 mm 0,0 km/h (0 Bft) W 279 0 min 0,000 mm 0,0 UV-I 0 W/m 12,3 C 0,0 km/h (0 Bft)
11.09.2016 05:16 13,6 C 13,6 C 92 % 1015,5 hPa 0,0 mm 0,0 km/h (0 Bft) W 279 0 min 0,000 mm 0,0 UV-I 0 W/m 12,3 C 0,0 km/h (0 Bft)
11.09.2016 05:17 13,5 C 13,6 C 92 % 1015,5 hPa 0,0 mm 0,0 km/h (0 Bft) W 279 0 min 0,000 mm 0,0 UV-I 0 W/m 12,2 C 0,0 km/h (0 Bft)
11.09.2016 05:18 13,4 C 13,5 C 92 % 1015,5 hPa 0,0 mm 0,0 km/h (0 Bft) W 279 0 min 0,000 mm 0,0 UV-I 0 W/m 12,1 C 0,0 km/h (0 Bft)
11.09.2016 05:19 13,4 C 13,4 C 92 % 1015,5 hPa 0,0 mm 0,0 km/h (0 Bft) W 279 0 min 0,000 mm 0,0 UV-I 0 W/m 12,1 C 0,0 km/h (0 Bft)
11.09.2016 05:20 13,4 C 13,4 C 92 % 1015,5 hPa 0,0 mm 0,0 km/h (0 Bft) W 279 0 min 0,000 mm 0,0 UV-I 0 W/m 12,1 C 0,0 km/h (0 Bft)
11.09.2016 05:21 13,4 C 13,4 C 92 % 1015,5 hPa 0,0 mm 0,0 km/h (0 Bft) W 279 0 min 0,000 mm 0,0 UV-I 0 W/m 12,1 C 0,0 km/h (0 Bft)
11.09.2016 05:22 13,3 C 13,4 C 92 % 1015,4 hPa 0,0 mm 0,0 km/h (0 Bft) W 279 0 min 0,000 mm 0,0 UV-I 0 W/m 12,0 C 0,0 km/h (0 Bft)
11.09.2016 05:23 13,3 C 13,3 C 92 % 1015,5 hPa 0,0 mm 0,0 km/h (0 Bft) W 279 0 min 0,000 mm 0,0 UV-I 0 W/m 12,0 C 0,0 km/h (0 Bft)
11.09.2016 05:24 13,3 C 13,3 C 92 % 1015,5 hPa 0,0 mm 0,0 km/h (0 Bft) W 279 0 min 0,000 mm 0,0 UV-I 0 W/m 12,0 C 0,0 km/h (0 Bft)
11.09.2016 05:25 13,2 C 13,3 C 91 % 1015,5 hPa 0,0 mm 0,0 km/h (0 Bft) W 279 0 min 0,000 mm 0,0 UV-I 0 W/m 11,8 C 0,0 km/h (0 Bft)
11.09.2016 05:26 13,2 C 13,2 C 92 % 1015,5 hPa 0,0 mm 0,0 km/h (0 Bft) W 279 0 min 0,000 mm 0,0 UV-I 0 W/m 11,9 C 0,0 km/h (0 Bft)
11.09.2016 05:27 13,2 C 13,2 C 93 % 1015,5 hPa 0,0 mm 0,0 km/h (0 Bft) W 279 0 min 0,000 mm 0,0 UV-I 0 W/m 12,1 C 0,0 km/h (0 Bft)
11.09.2016 05:28 13,1 C 13,2 C 93 % 1015,5 hPa 0,0 mm 0,0 km/h (0 Bft) W 279 0 min 0,000 mm 0,0 UV-I 0 W/m 12,0 C 0,0 km/h (0 Bft)
11.09.2016 05:29 13,1 C 13,2 C 93 % 1015,5 hPa 0,0 mm 0,0 km/h (0 Bft) W 279 0 min 0,000 mm 0,0 UV-I 0 W/m 12,0 C 0,0 km/h (0 Bft)
11.09.2016 05:30 13,1 C 13,2 C 93 % 1015,5 hPa 0,0 mm 0,0 km/h (0 Bft) W 279 0 min 0,000 mm 0,0 UV-I 0 W/m 12,0 C 0,0 km/h (0 Bft)
11.09.2016 05:31 13,1 C 13,2 C 93 % 1015,5 hPa 0,0 mm 0,0 km/h (0 Bft) W 279 0 min 0,000 mm 0,0 UV-I 0 W/m 12,0 C 0,0 km/h (0 Bft)
11.09.2016 05:32 13,1 C 13,2 C 93 % 1015,5 hPa 0,0 mm 0,0 km/h (0 Bft) W 279 0 min 0,000 mm 0,0 UV-I 0 W/m 12,0 C 0,0 km/h (0 Bft)
11.09.2016 05:33 13,1 C 13,1 C 93 % 1015,5 hPa 0,0 mm 0,0 km/h (0 Bft) W 279 0 min 0,000 mm 0,0 UV-I 0 W/m 12,0 C 0,0 km/h (0 Bft)
11.09.2016 05:34 13,1 C 13,2 C 93 % 1015,5 hPa 0,0 mm 0,0 km/h (0 Bft) W 279 0 min 0,000 mm 0,0 UV-I 0 W/m 12,0 C 0,0 km/h (0 Bft)
11.09.2016 05:35 13,1 C 13,2 C 93 % 1015,5 hPa 0,0 mm 0,0 km/h (0 Bft) W 279 0 min 0,000 mm 0,0 UV-I 0 W/m 12,0 C 0,0 km/h (0 Bft)
11.09.2016 05:36 13,1 C 13,1 C 93 % 1015,5 hPa 0,0 mm 0,0 km/h (0 Bft) W 279 0 min 0,000 mm 0,0 UV-I 0 W/m 12,0 C 0,0 km/h (0 Bft)
11.09.2016 05:37 13,1 C 13,1 C 93 % 1015,5 hPa 0,0 mm 0,0 km/h (0 Bft) W 279 0 min 0,000 mm 0,0 UV-I 0 W/m 12,0 C 0,0 km/h (0 Bft)
11.09.2016 05:38 13,1 C 13,1 C 93 % 1015,5 hPa 0,0 mm 0,0 km/h (0 Bft) W 279 0 min 0,000 mm 0,0 UV-I 0 W/m 12,0 C 0,0 km/h (0 Bft)
11.09.2016 05:39 13,1 C 13,1 C 93 % 1015,5 hPa 0,0 mm 0,0 km/h (0 Bft) W 279 0 min 0,000 mm 0,0 UV-I 0 W/m 12,0 C 0,0 km/h (0 Bft)
11.09.2016 05:40 13,0 C 13,1 C 93 % 1015,5 hPa 0,0 mm 0,0 km/h (0 Bft) W 279 0 min 0,000 mm 0,0 UV-I 0 W/m 11,9 C 0,0 km/h (0 Bft)
11.09.2016 05:41 13,1 C 13,1 C 94 % 1015,5 hPa 0,0 mm 0,0 km/h (0 Bft) W 279 0 min 0,000 mm 0,0 UV-I 0 W/m 12,2 C 0,0 km/h (0 Bft)
11.09.2016 05:42 13,0 C 13,1 C 93 % 1015,5 hPa 0,0 mm 0,0 km/h (0 Bft) W 279 0 min 0,000 mm 0,0 UV-I 0 W/m 11,9 C 0,0 km/h (0 Bft)
11.09.2016 05:43 12,9 C 13,0 C 93 % 1015,5 hPa 0,0 mm 0,0 km/h (0 Bft) W 279 0 min 0,000 mm 0,0 UV-I 0 W/m 11,8 C 0,0 km/h (0 Bft)
11.09.2016 05:44 12,9 C 13,0 C 94 % 1015,5 hPa 0,0 mm 0,0 km/h (0 Bft) W 279 0 min 0,000 mm 0,0 UV-I 0 W/m 12,0 C 0,0 km/h (0 Bft)
11.09.2016 05:45 12,9 C 12,9 C 94 % 1015,5 hPa 0,0 mm 0,0 km/h (0 Bft) W 279 0 min 0,000 mm 0,0 UV-I 0 W/m 12,0 C 0,0 km/h (0 Bft)
11.09.2016 05:46 13,0 C 13,0 C 94 % 1015,5 hPa 0,0 mm 0,0 km/h (0 Bft) W 279 0 min 0,000 mm 0,0 UV-I 0 W/m 12,1 C 0,0 km/h (0 Bft)
11.09.2016 05:47 13,0 C 13,0 C 94 % 1015,5 hPa 0,0 mm 0,0 km/h (0 Bft) W 279 0 min 0,000 mm 0,0 UV-I 0 W/m 12,1 C 0,0 km/h (0 Bft)
11.09.2016 05:48 13,1 C 13,1 C 94 % 1015,5 hPa 0,0 mm 0,0 km/h (0 Bft) W 279 0 min 0,000 mm 0,0 UV-I 0 W/m 12,2 C 0,0 km/h (0 Bft)
11.09.2016 05:49 13,1 C 13,1 C 94 % 1015,6 hPa 0,0 mm 0,0 km/h (0 Bft) W 279 0 min 0,000 mm 0,0 UV-I 0 W/m 12,2 C 0,0 km/h (0 Bft)
11.09.2016 05:50 13,1 C 13,2 C 94 % 1015,5 hPa 0,0 mm 0,0 km/h (0 Bft) W 279 0 min 0,000 mm 0,0 UV-I 0 W/m 12,2 C 0,0 km/h (0 Bft)
11.09.2016 05:51 13,2 C 13,2 C 94 % 1015,5 hPa 0,0 mm 0,0 km/h (0 Bft) W 279 0 min 0,000 mm 0,0 UV-I 0 W/m 12,3 C 0,0 km/h (0 Bft)
11.09.2016 05:52 13,1 C 13,2 C 93 % 1015,5 hPa 0,0 mm 0,0 km/h (0 Bft) W 279 0 min 0,000 mm 0,0 UV-I 0 W/m 12,0 C 0,0 km/h (0 Bft)
11.09.2016 05:53 13,1 C 13,1 C 93 % 1015,5 hPa 0,0 mm 0,0 km/h (0 Bft) W 279 0 min 0,000 mm 0,0 UV-I 0 W/m 12,0 C 0,0 km/h (0 Bft)
11.09.2016 05:54 13,1 C 13,1 C 93 % 1015,6 hPa 0,0 mm 0,0 km/h (0 Bft) W 279 0 min 0,000 mm 0,0 UV-I 0 W/m 12,0 C 0,0 km/h (0 Bft)
11.09.2016 05:55 13,1 C 13,1 C 93 % 1015,5 hPa 0,0 mm 0,0 km/h (0 Bft) W 279 0 min 0,000 mm 0,0 UV-I 0 W/m 12,0 C 0,0 km/h (0 Bft)
11.09.2016 05:56 13,1 C 13,1 C 93 % 1015,6 hPa 0,0 mm 0,0 km/h (0 Bft) W 279 0 min 0,000 mm 0,0 UV-I 0 W/m 12,0 C 0,0 km/h (0 Bft)
11.09.2016 05:57 13,0 C 13,1 C 93 % 1015,6 hPa 0,0 mm 0,0 km/h (0 Bft) W 279 0 min 0,000 mm 0,0 UV-I 0 W/m 11,9 C 0,0 km/h (0 Bft)
11.09.2016 05:58 13,0 C 13,0 C 94 % 1015,6 hPa 0,0 mm 0,0 km/h (0 Bft) W 279 0 min 0,000 mm 0,0 UV-I 0 W/m 12,1 C 0,0 km/h (0 Bft)
11.09.2016 05:59 13,0 C 13,0 C 93 % 1015,6 hPa 0,0 mm 0,0 km/h (0 Bft) W 279 0 min 0,000 mm 0,0 UV-I 0 W/m 11,9 C 0,0 km/h (0 Bft)
11.09.2016 06:00 12,9 C 13,0 C 93 % 1015,6 hPa 0,0 mm 0,0 km/h (0 Bft) W 279 0 min 0,000 mm 0,0 UV-I 0 W/m 11,8 C 0,0 km/h (0 Bft)
11.09.2016 06:01 12,9 C 12,9 C 94 % 1015,6 hPa 0,0 mm 0,0 km/h (0 Bft) W 279 0 min 0,000 mm 0,0 UV-I 0 W/m 12,0 C 0,0 km/h (0 Bft)
11.09.2016 06:02 12,9 C 12,9 C 94 % 1015,6 hPa 0,0 mm 0,0 km/h (0 Bft) W 279 0 min 0,000 mm 0,0 UV-I 0 W/m 12,0 C 0,0 km/h (0 Bft)
11.09.2016 06:03 12,9 C 12,9 C 94 % 1015,6 hPa 0,0 mm 0,0 km/h (0 Bft) W 279 0 min 0,000 mm 0,0 UV-I 0 W/m 12,0 C 0,0 km/h (0 Bft)
11.09.2016 06:04 12,9 C 12,9 C 93 % 1015,6 hPa 0,0 mm 0,0 km/h (0 Bft) W 279 0 min 0,000 mm 0,0 UV-I 0 W/m 11,8 C 0,0 km/h (0 Bft)
11.09.2016 06:05 12,9 C 12,9 C 93 % 1015,6 hPa 0,0 mm 0,0 km/h (0 Bft) W 279 0 min 0,000 mm 0,0 UV-I 0 W/m 11,8 C 0,0 km/h (0 Bft)
11.09.2016 06:06 12,9 C 12,9 C 94 % 1015,6 hPa 0,0 mm 0,0 km/h (0 Bft) W 279 0 min 0,000 mm 0,0 UV-I 0 W/m 12,0 C 0,0 km/h (0 Bft)
11.09.2016 06:07 12,8 C 12,9 C 94 % 1015,6 hPa 0,0 mm 0,0 km/h (0 Bft) W 279 0 min 0,000 mm 0,0 UV-I 0 W/m 11,9 C 0,0 km/h (0 Bft)
11.09.2016 06:08 12,8 C 12,9 C 94 % 1015,6 hPa 0,0 mm 0,0 km/h (0 Bft) W 279 0 min 0,000 mm 0,0 UV-I 0 W/m 11,9 C 0,0 km/h (0 Bft)
11.09.2016 06:09 12,8 C 12,8 C 94 % 1015,6 hPa 0,0 mm 0,0 km/h (0 Bft) W 279 0 min 0,000 mm 0,0 UV-I 0 W/m 11,9 C 0,0 km/h (0 Bft)
11.09.2016 06:10 12,8 C 12,8 C 94 % 1015,6 hPa 0,0 mm 0,0 km/h (0 Bft) W 279 0 min 0,000 mm 0,0 UV-I 0 W/m 11,9 C 0,0 km/h (0 Bft)
11.09.2016 06:11 12,8 C 12,8 C 94 % 1015,6 hPa 0,0 mm 0,0 km/h (0 Bft) W 279 0 min 0,000 mm 0,0 UV-I 0 W/m 11,9 C 0,0 km/h (0 Bft)
11.09.2016 06:12 12,7 C 12,8 C 94 % 1015,6 hPa 0,0 mm 0,0 km/h (0 Bft) W 279 0 min 0,000 mm 0,0 UV-I 0 W/m 11,8 C 0,0 km/h (0 Bft)
11.09.2016 06:13 12,7 C 12,7 C 94 % 1015,6 hPa 0,0 mm 0,0 km/h (0 Bft) W 279 0 min 0,000 mm 0,0 UV-I 0 W/m 11,8 C 0,0 km/h (0 Bft)
11.09.2016 06:14 12,7 C 12,7 C 94 % 1015,7 hPa 0,0 mm 0,0 km/h (0 Bft) W 279 0 min 0,000 mm 0,0 UV-I 0 W/m 11,8 C 0,0 km/h (0 Bft)
11.09.2016 06:15 12,7 C 12,7 C 94 % 1015,7 hPa 0,0 mm 0,0 km/h (0 Bft) W 279 0 min 0,000 mm 0,0 UV-I 0 W/m 11,8 C 0,0 km/h (0 Bft)
11.09.2016 06:16 12,7 C 12,7 C 94 % 1015,7 hPa 0,0 mm 0,0 km/h (0 Bft) W 279 0 min 0,000 mm 0,0 UV-I 0 W/m 11,8 C 0,0 km/h (0 Bft)
11.09.2016 06:17 12,7 C 12,7 C 94 % 1015,7 hPa 0,0 mm 0,0 km/h (0 Bft) W 279 0 min 0,000 mm 0,0 UV-I 0 W/m 11,8 C 0,0 km/h (0 Bft)
11.09.2016 06:18 12,7 C 12,7 C 94 % 1015,7 hPa 0,0 mm 0,0 km/h (0 Bft) W 279 0 min 0,000 mm 0,0 UV-I 0 W/m 11,8 C 0,0 km/h (0 Bft)
11.09.2016 06:19 12,7 C 12,7 C 94 % 1015,7 hPa 0,0 mm 0,0 km/h (0 Bft) W 279 0 min 0,000 mm 0,0 UV-I 0 W/m 11,8 C 0,0 km/h (0 Bft)
11.09.2016 06:20 12,7 C 12,7 C 94 % 1015,7 hPa 0,0 mm 0,0 km/h (0 Bft) W 279 0 min 0,000 mm 0,0 UV-I 0 W/m 11,8 C 0,0 km/h (0 Bft)
11.09.2016 06:21 12,7 C 12,7 C 94 % 1015,7 hPa 0,0 mm 0,0 km/h (0 Bft) W 279 0 min 0,000 mm 0,0 UV-I 0 W/m 11,8 C 0,0 km/h (0 Bft)
11.09.2016 06:22 12,7 C 12,7 C 94 % 1015,7 hPa 0,0 mm 0,0 km/h (0 Bft) W 279 0 min 0,000 mm 0,0 UV-I 0 W/m 11,8 C 0,0 km/h (0 Bft)
11.09.2016 06:23 12,7 C 12,7 C 95 % 1015,7 hPa 0,0 mm 0,0 km/h (0 Bft) W 279 0 min 0,000 mm 0,0 UV-I 0 W/m 11,9 C 0,0 km/h (0 Bft)
11.09.2016 06:24 12,7 C 12,7 C 95 % 1015,7 hPa 0,0 mm 0,0 km/h (0 Bft) W 279 0 min 0,000 mm 0,0 UV-I 0 W/m 11,9 C 0,0 km/h (0 Bft)
11.09.2016 06:25 12,7 C 12,7 C 94 % 1015,7 hPa 0,0 mm 0,0 km/h (0 Bft) W 279 0 min 0,000 mm 0,0 UV-I 0 W/m 11,8 C 0,0 km/h (0 Bft)
11.09.2016 06:26 12,7 C 12,7 C 94 % 1015,7 hPa 0,0 mm 0,0 km/h (0 Bft) W 279 0 min 0,000 mm 0,0 UV-I 0 W/m 11,8 C 0,0 km/h (0 Bft)
11.09.2016 06:27 12,7 C 12,7 C 94 % 1015,7 hPa 0,0 mm 0,0 km/h (0 Bft) W 279 0 min 0,000 mm 0,0 UV-I 0 W/m 11,8 C 0,0 km/h (0 Bft)
11.09.2016 06:28 12,7 C 12,7 C 94 % 1015,7 hPa 0,0 mm 0,0 km/h (0 Bft) W 279 0 min 0,000 mm 0,0 UV-I 0 W/m 11,8 C 0,0 km/h (0 Bft)
11.09.2016 06:29 12,7 C 12,7 C 95 % 1015,7 hPa 0,0 mm 0,0 km/h (0 Bft) W 279 0 min 0,000 mm 0,0 UV-I 0 W/m 11,9 C 0,0 km/h (0 Bft)
11.09.2016 06:30 12,7 C 12,7 C 95 % 1015,7 hPa 0,0 mm 0,0 km/h (0 Bft) W 279 0 min 0,000 mm 0,0 UV-I 0 W/m 11,9 C 0,0 km/h (0 Bft)
11.09.2016 06:31 12,7 C 12,7 C 95 % 1015,7 hPa 0,0 mm 0,0 km/h (0 Bft) W 279 0 min 0,000 mm 0,0 UV-I 0 W/m 11,9 C 0,0 km/h (0 Bft)
11.09.2016 06:32 12,7 C 12,7 C 95 % 1015,7 hPa 0,0 mm 0,0 km/h (0 Bft) W 279 0 min 0,000 mm 0,0 UV-I 0 W/m 11,9 C 0,0 km/h (0 Bft)
11.09.2016 06:33 12,7 C 12,7 C 95 % 1015,7 hPa 0,0 mm 0,0 km/h (0 Bft) W 279 0 min 0,000 mm 0,0 UV-I 0 W/m 11,9 C 0,0 km/h (0 Bft)
11.09.2016 06:34 12,7 C 12,7 C 95 % 1015,7 hPa 0,0 mm 0,0 km/h (0 Bft) W 279 0 min 0,000 mm 0,0 UV-I 0 W/m 11,9 C 0,0 km/h (0 Bft)
11.09.2016 06:35 12,7 C 12,7 C 95 % 1015,7 hPa 0,0 mm 0,0 km/h (0 Bft) W 279 0 min 0,000 mm 0,0 UV-I 0 W/m 11,9 C 0,0 km/h (0 Bft)
11.09.2016 06:36 12,7 C 12,7 C 95 % 1015,7 hPa 0,0 mm 0,0 km/h (0 Bft) W 279 0 min 0,000 mm 0,0 UV-I 0 W/m 11,9 C 0,0 km/h (0 Bft)
11.09.2016 06:37 12,7 C 12,7 C 95 % 1015,7 hPa 0,0 mm 0,0 km/h (0 Bft) W 279 0 min 0,000 mm 0,0 UV-I 0 W/m 11,9 C 0,0 km/h (0 Bft)
11.09.2016 06:38 12,6 C 12,7 C 95 % 1015,7 hPa 0,0 mm 0,0 km/h (0 Bft) W 279 0 min 0,000 mm 0,0 UV-I 0 W/m 11,8 C 0,0 km/h (0 Bft)
11.09.2016 06:39 12,6 C 12,6 C 95 % 1015,8 hPa 0,0 mm 0,0 km/h (0 Bft) W 279 0 min 0,000 mm 0,0 UV-I 0 W/m 11,8 C 0,0 km/h (0 Bft)
11.09.2016 06:40 12,6 C 12,6 C 95 % 1015,8 hPa 0,0 mm 0,0 km/h (0 Bft) W 279 0 min 0,000 mm 0,0 UV-I 0 W/m 11,8 C 0,0 km/h (0 Bft)
11.09.2016 06:41 12,6 C 12,6 C 95 % 1015,8 hPa 0,0 mm 0,0 km/h (0 Bft) W 279 0 min 0,000 mm 0,0 UV-I 0 W/m 11,8 C 0,0 km/h (0 Bft)
11.09.2016 06:42 12,6 C 12,6 C 95 % 1015,8 hPa 0,0 mm 0,0 km/h (0 Bft) W 279 0 min 0,000 mm 0,0 UV-I 0 W/m 11,8 C 0,0 km/h (0 Bft)
11.09.2016 06:43 12,6 C 12,6 C 95 % 1015,8 hPa 0,0 mm 0,0 km/h (0 Bft) W 279 0 min 0,000 mm 0,0 UV-I 0 W/m 11,8 C 0,0 km/h (0 Bft)
11.09.2016 06:44 12,6 C 12,6 C 95 % 1015,8 hPa 0,0 mm 0,0 km/h (0 Bft) W 279 0 min 0,000 mm 0,0 UV-I 0 W/m 11,8 C 0,0 km/h (0 Bft)
11.09.2016 06:45 12,7 C 12,7 C 95 % 1015,8 hPa 0,0 mm 0,0 km/h (0 Bft) W 279 0 min 0,000 mm 0,0 UV-I 0 W/m 11,9 C 0,0 km/h (0 Bft)
11.09.2016 06:46 12,7 C 12,7 C 95 % 1015,8 hPa 0,0 mm 0,0 km/h (0 Bft) W 279 0 min 0,000 mm 0,0 UV-I 0 W/m 11,9 C 0,0 km/h (0 Bft)
11.09.2016 06:47 12,7 C 12,7 C 95 % 1015,9 hPa 0,0 mm 0,0 km/h (0 Bft) W 279 0 min 0,000 mm 0,0 UV-I 0 W/m 11,9 C 0,0 km/h (0 Bft)
11.09.2016 06:48 12,8 C 12,8 C 95 % 1015,9 hPa 0,0 mm 0,0 km/h (0 Bft) W 279 0 min 0,000 mm 0,0 UV-I 0 W/m 12,0 C 0,0 km/h (0 Bft)
11.09.2016 06:49 12,8 C 12,8 C 95 % 1015,9 hPa 0,0 mm 0,0 km/h (0 Bft) W 279 0 min 0,000 mm 0,0 UV-I 0 W/m 12,0 C 0,0 km/h (0 Bft)
11.09.2016 06:50 12,8 C 12,8 C 95 % 1015,9 hPa 0,0 mm 0,0 km/h (0 Bft) W 279 0 min 0,000 mm 0,0 UV-I 0 W/m 12,0 C 0,0 km/h (0 Bft)
11.09.2016 06:51 12,8 C 12,8 C 95 % 1016,0 hPa 0,0 mm 0,0 km/h (0 Bft) W 279 0 min 0,000 mm 0,0 UV-I 0 W/m 12,0 C 0,0 km/h (0 Bft)
11.09.2016 06:52 12,8 C 12,8 C 95 % 1016,0 hPa 0,0 mm 0,0 km/h (0 Bft) W 279 0 min 0,000 mm 0,0 UV-I 5 W/m 12,0 C 0,0 km/h (0 Bft)
11.09.2016 06:53 12,8 C 12,8 C 94 % 1016,0 hPa 0,0 mm 0,0 km/h (0 Bft) W 279 0 min 0,000 mm 0,0 UV-I 5 W/m 11,9 C 0,0 km/h (0 Bft)
11.09.2016 06:54 12,8 C 12,8 C 94 % 1016,0 hPa 0,0 mm 0,0 km/h (0 Bft) W 279 0 min 0,000 mm 0,0 UV-I 5 W/m 11,9 C 0,0 km/h (0 Bft)
11.09.2016 06:55 12,8 C 12,8 C 94 % 1016,1 hPa 0,0 mm 0,0 km/h (0 Bft) W 279 0 min 0,000 mm 0,0 UV-I 5 W/m 11,9 C 0,0 km/h (0 Bft)
11.09.2016 06:56 12,8 C 12,8 C 95 % 1016,0 hPa 0,0 mm 0,0 km/h (0 Bft) W 279 0 min 0,000 mm 0,0 UV-I 7 W/m 12,0 C 0,0 km/h (0 Bft)
11.09.2016 06:57 12,9 C 12,9 C 94 % 1016,0 hPa 0,0 mm 0,0 km/h (0 Bft) W 279 0 min 0,000 mm 0,0 UV-I 7 W/m 12,0 C 0,0 km/h (0 Bft)
11.09.2016 06:58 12,9 C 12,9 C 95 % 1016,1 hPa 0,0 mm 0,0 km/h (0 Bft) W 279 0 min 0,000 mm 0,0 UV-I 7 W/m 12,1 C 0,0 km/h (0 Bft)
11.09.2016 06:59 12,9 C 12,9 C 95 % 1016,1 hPa 0,0 mm 0,0 km/h (0 Bft) W 279 0 min 0,000 mm 0,0 UV-I 7 W/m 12,1 C 0,0 km/h (0 Bft)
11.09.2016 07:00 13,0 C 13,0 C 94 % 1016,1 hPa 0,0 mm 0,0 km/h (0 Bft) W 279 0 min 0,000 mm 0,0 UV-I 9 W/m 12,1 C 0,0 km/h (0 Bft)
11.09.2016 07:01 13,0 C 13,1 C 94 % 1016,1 hPa 0,0 mm 0,0 km/h (0 Bft) W 279 0 min 0,000 mm 0,0 UV-I 9 W/m 12,1 C 0,0 km/h (0 Bft)
11.09.2016 07:02 13,1 C 13,1 C 94 % 1016,1 hPa 0,0 mm 0,0 km/h (0 Bft) W 279 0 min 0,000 mm 0,0 UV-I 11 W/m 12,2 C 0,0 km/h (0 Bft)
11.09.2016 07:03 13,1 C 13,1 C 94 % 1016,1 hPa 0,0 mm 0,0 km/h (0 Bft) W 279 0 min 0,000 mm 0,0 UV-I 11 W/m 12,2 C 0,0 km/h (0 Bft)
11.09.2016 07:04 13,1 C 13,1 C 94 % 1016,1 hPa 0,0 mm 0,0 km/h (0 Bft) W 279 0 min 0,000 mm 0,0 UV-I 11 W/m 12,2 C 0,0 km/h (0 Bft)
11.09.2016 07:05 13,1 C 13,1 C 94 % 1016,1 hPa 0,0 mm 0,0 km/h (0 Bft) W 279 0 min 0,000 mm 0,0 UV-I 12 W/m 12,2 C 0,0 km/h (0 Bft)
11.09.2016 07:06 13,1 C 13,1 C 94 % 1016,1 hPa 0,0 mm 0,0 km/h (0 Bft) W 279 0 min 0,000 mm 0,0 UV-I 12 W/m 12,2 C 0,0 km/h (0 Bft)
11.09.2016 07:07 13,1 C 13,1 C 94 % 1016,1 hPa 0,0 mm 0,0 km/h (0 Bft) W 279 0 min 0,000 mm 0,0 UV-I 14 W/m 12,2 C 0,0 km/h (0 Bft)
11.09.2016 07:08 13,1 C 13,1 C 94 % 1016,1 hPa 0,0 mm 0,0 km/h (0 Bft) W 279 0 min 0,000 mm 0,0 UV-I 14 W/m 12,2 C 0,0 km/h (0 Bft)
11.09.2016 07:09 13,1 C 13,1 C 94 % 1016,1 hPa 0,0 mm 0,0 km/h (0 Bft) W 279 0 min 0,000 mm 0,0 UV-I 14 W/m 12,2 C 0,0 km/h (0 Bft)
11.09.2016 07:10 13,1 C 13,1 C 94 % 1016,1 hPa 0,0 mm 0,0 km/h (0 Bft) W 279 0 min 0,000 mm 0,0 UV-I 16 W/m 12,2 C 0,0 km/h (0 Bft)
11.09.2016 07:11 13,1 C 13,1 C 94 % 1016,2 hPa 0,0 mm 0,0 km/h (0 Bft) W 279 0 min 0,000 mm 0,0 UV-I 16 W/m 12,2 C 0,0 km/h (0 Bft)
11.09.2016 07:12 13,1 C 13,1 C 94 % 1016,2 hPa 0,0 mm 0,0 km/h (0 Bft) W 279 0 min 0,000 mm 0,0 UV-I 18 W/m 12,2 C 0,0 km/h (0 Bft)
11.09.2016 07:13 13,1 C 13,1 C 94 % 1016,2 hPa 0,0 mm 0,0 km/h (0 Bft) W 279 0 min 0,000 mm 0,0 UV-I 19 W/m 12,2 C 0,0 km/h (0 Bft)
11.09.2016 07:14 13,1 C 13,1 C 94 % 1016,2 hPa 0,0 mm 0,0 km/h (0 Bft) W 279 0 min 0,000 mm 0,0 UV-I 19 W/m 12,2 C 0,0 km/h (0 Bft)
11.09.2016 07:15 13,0 C 13,1 C 94 % 1016,2 hPa 0,0 mm 0,0 km/h (0 Bft) S-SW 213 0 min 0,000 mm 0,0 UV-I 21 W/m 12,1 C 0,0 km/h (0 Bft)
11.09.2016 07:16 13,1 C 13,1 C 94 % 1016,2 hPa 0,0 mm 0,0 km/h (0 Bft) S-SW 213 0 min 0,000 mm 0,0 UV-I 23 W/m 12,2 C 0,0 km/h (0 Bft)
11.09.2016 07:17 13,1 C 13,1 C 94 % 1016,2 hPa 0,0 mm 0,0 km/h (0 Bft) SW 214 0 min 0,000 mm 0,0 UV-I 25 W/m 12,2 C 0,0 km/h (0 Bft)
11.09.2016 07:18 13,1 C 13,1 C 94 % 1016,2 hPa 0,0 mm 0,0 km/h (0 Bft) SW 214 0 min 0,000 mm 0,0 UV-I 25 W/m 12,2 C 0,0 km/h (0 Bft)
11.09.2016 07:19 13,1 C 13,1 C 94 % 1016,2 hPa 0,0 mm 0,0 km/h (0 Bft) SW 214 0 min 0,000 mm 0,0 UV-I 30 W/m 12,2 C 0,0 km/h (0 Bft)
11.09.2016 07:20 13,1 C 13,1 C 94 % 1016,2 hPa 0,0 mm 0,0 km/h (0 Bft) SW 214 0 min 0,000 mm 0,0 UV-I 32 W/m 12,2 C 0,0 km/h (0 Bft)
11.09.2016 07:21 13,2 C 13,2 C 95 % 1016,3 hPa 0,0 mm 0,0 km/h (0 Bft) SW 214 0 min 0,000 mm 0,0 UV-I 33 W/m 12,4 C 0,0 km/h (0 Bft)
11.09.2016 07:22 13,2 C 13,2 C 95 % 1016,3 hPa 0,0 mm 0,0 km/h (0 Bft) SW 214 0 min 0,000 mm 0,0 UV-I 35 W/m 12,4 C 0,0 km/h (0 Bft)
11.09.2016 07:23 13,3 C 13,3 C 95 % 1016,3 hPa 0,0 mm 0,0 km/h (0 Bft) SW 214 0 min 0,000 mm 0,0 UV-I 37 W/m 12,5 C 0,0 km/h (0 Bft)
11.09.2016 07:24 13,4 C 13,4 C 94 % 1016,3 hPa 0,0 mm 0,0 km/h (0 Bft) SW 214 0 min 0,000 mm 0,0 UV-I 40 W/m 12,5 C 0,0 km/h (0 Bft)
11.09.2016 07:25 13,4 C 13,4 C 94 % 1016,3 hPa 0,0 mm 0,0 km/h (0 Bft) SW 214 0 min 0,000 mm 0,0 UV-I 40 W/m 12,5 C 0,0 km/h (0 Bft)
11.09.2016 07:26 13,4 C 13,5 C 94 % 1016,3 hPa 0,0 mm 0,0 km/h (0 Bft) SW 214 0 min 0,000 mm 0,0 UV-I 40 W/m 12,5 C 0,0 km/h (0 Bft)
11.09.2016 07:27 13,5 C 13,5 C 94 % 1016,2 hPa 0,0 mm 0,0 km/h (0 Bft) SW 214 0 min 0,000 mm 0,0 UV-I 40 W/m 12,6 C 0,0 km/h (0 Bft)
11.09.2016 07:28 13,5 C 13,5 C 94 % 1016,2 hPa 0,0 mm 0,0 km/h (0 Bft) SW 214 0 min 0,000 mm 0,0 UV-I 42 W/m 12,6 C 0,0 km/h (0 Bft)
11.09.2016 07:29 13,4 C 13,5 C 93 % 1016,3 hPa 0,0 mm 0,0 km/h (0 Bft) SW 214 0 min 0,000 mm 0,0 UV-I 42 W/m 12,3 C 0,0 km/h (0 Bft)
11.09.2016 07:30 13,4 C 13,4 C 94 % 1016,3 hPa 0,0 mm 0,0 km/h (0 Bft) SW 214 0 min 0,000 mm 0,0 UV-I 42 W/m 12,5 C 0,0 km/h (0 Bft)
11.09.2016 07:31 13,4 C 13,4 C 94 % 1016,2 hPa 0,0 mm 0,0 km/h (0 Bft) SW 214 0 min 0,000 mm 0,0 UV-I 42 W/m 12,5 C 0,0 km/h (0 Bft)
11.09.2016 07:32 13,4 C 13,4 C 94 % 1016,2 hPa 0,0 mm 0,0 km/h (0 Bft) SW 214 0 min 0,000 mm 0,0 UV-I 42 W/m 12,5 C 0,0 km/h (0 Bft)
11.09.2016 07:33 13,5 C 13,5 C 94 % 1016,2 hPa 0,0 mm 0,0 km/h (0 Bft) SW 214 0 min 0,000 mm 0,0 UV-I 42 W/m 12,6 C 0,0 km/h (0 Bft)
11.09.2016 07:34 13,6 C 13,6 C 94 % 1016,2 hPa 0,0 mm 0,0 km/h (0 Bft) SW 214 0 min 0,000 mm 0,0 UV-I 42 W/m 12,7 C 0,0 km/h (0 Bft)
11.09.2016 07:35 13,6 C 13,6 C 94 % 1016,3 hPa 0,0 mm 0,0 km/h (0 Bft) SW 214 0 min 0,000 mm 0,0 UV-I 44 W/m 12,7 C 0,0 km/h (0 Bft)
11.09.2016 07:36 13,7 C 13,7 C 93 % 1016,3 hPa 0,0 mm 0,0 km/h (0 Bft) SW 214 0 min 0,000 mm 0,0 UV-I 42 W/m 12,6 C 0,0 km/h (0 Bft)
11.09.2016 07:37 13,7 C 13,7 C 94 % 1016,3 hPa 0,0 mm 0,0 km/h (0 Bft) SW 214 0 min 0,000 mm 0,0 UV-I 42 W/m 12,8 C 0,0 km/h (0 Bft)
11.09.2016 07:38 13,7 C 13,7 C 93 % 1016,2 hPa 0,0 mm 0,0 km/h (0 Bft) SW 214 0 min 0,000 mm 0,0 UV-I 42 W/m 12,6 C 0,0 km/h (0 Bft)
11.09.2016 07:39 13,8 C 13,8 C 93 % 1016,3 hPa 0,0 mm 0,0 km/h (0 Bft) SW 214 0 min 0,000 mm 0,0 UV-I 42 W/m 12,7 C 0,0 km/h (0 Bft)
11.09.2016 07:40 13,8 C 13,8 C 93 % 1016,3 hPa 0,0 mm 0,0 km/h (0 Bft) SW 214 0 min 0,000 mm 0,0 UV-I 42 W/m 12,7 C 0,0 km/h (0 Bft)
11.09.2016 07:41 13,8 C 13,8 C 93 % 1016,3 hPa 0,0 mm 0,0 km/h (0 Bft) SW 214 0 min 0,000 mm 0,0 UV-I 42 W/m 12,7 C 0,0 km/h (0 Bft)
11.09.2016 07:42 13,8 C 13,8 C 93 % 1016,3 hPa 0,0 mm 0,0 km/h (0 Bft) SW 214 0 min 0,000 mm 0,0 UV-I 42 W/m 12,7 C 0,0 km/h (0 Bft)
11.09.2016 07:43 13,9 C 13,9 C 93 % 1016,3 hPa 0,0 mm 0,0 km/h (0 Bft) SW 214 0 min 0,000 mm 0,0 UV-I 42 W/m 12,8 C 0,0 km/h (0 Bft)
11.09.2016 07:44 13,9 C 13,9 C 93 % 1016,3 hPa 0,0 mm 0,0 km/h (0 Bft) SW 214 0 min 0,000 mm 0,0 UV-I 42 W/m 12,8 C 0,0 km/h (0 Bft)
11.09.2016 07:45 13,9 C 13,9 C 93 % 1016,3 hPa 0,0 mm 0,0 km/h (0 Bft) SW 214 0 min 0,000 mm 0,0 UV-I 42 W/m 12,8 C 0,0 km/h (0 Bft)
11.09.2016 07:46 13,9 C 13,9 C 93 % 1016,3 hPa 0,0 mm 0,0 km/h (0 Bft) SW 214 0 min 0,000 mm 0,0 UV-I 42 W/m 12,8 C 0,0 km/h (0 Bft)
11.09.2016 07:47 13,9 C 13,9 C 93 % 1016,3 hPa 0,0 mm 0,0 km/h (0 Bft) SW 214 0 min 0,000 mm 0,0 UV-I 42 W/m 12,8 C 0,0 km/h (0 Bft)
11.09.2016 07:48 14,0 C 14,0 C 93 % 1016,3 hPa 0,0 mm 0,0 km/h (0 Bft) SW 214 0 min 0,000 mm 0,0 UV-I 42 W/m 12,9 C 0,0 km/h (0 Bft)
11.09.2016 07:49 14,0 C 14,0 C 93 % 1016,3 hPa 0,0 mm 0,0 km/h (0 Bft) SW 214 0 min 0,000 mm 0,0 UV-I 44 W/m 12,9 C 0,0 km/h (0 Bft)
11.09.2016 07:50 14,0 C 14,0 C 93 % 1016,3 hPa 0,0 mm 0,0 km/h (0 Bft) SW 214 0 min 0,000 mm 0,0 UV-I 44 W/m 12,9 C 0,0 km/h (0 Bft)
11.09.2016 07:51 14,1 C 14,1 C 93 % 1016,3 hPa 0,0 mm 0,0 km/h (0 Bft) SW 214 0 min 0,000 mm 0,0 UV-I 44 W/m 13,0 C 0,0 km/h (0 Bft)
11.09.2016 07:52 14,1 C 14,1 C 93 % 1016,3 hPa 0,0 mm 0,0 km/h (0 Bft) SW 214 0 min 0,000 mm 0,0 UV-I 44 W/m 13,0 C 0,0 km/h (0 Bft)
11.09.2016 07:53 14,1 C 14,1 C 93 % 1016,3 hPa 0,0 mm 0,0 km/h (0 Bft) SW 214 0 min 0,000 mm 0,0 UV-I 46 W/m 13,0 C 0,0 km/h (0 Bft)
11.09.2016 07:54 14,1 C 14,1 C 93 % 1016,3 hPa 0,0 mm 0,0 km/h (0 Bft) SW 214 0 min 0,000 mm 0,0 UV-I 46 W/m 13,0 C 0,0 km/h (0 Bft)
11.09.2016 07:55 14,2 C 14,2 C 93 % 1016,3 hPa 0,0 mm 0,0 km/h (0 Bft) SW 214 0 min 0,000 mm 0,0 UV-I 47 W/m 13,1 C 0,0 km/h (0 Bft)
11.09.2016 07:56 14,2 C 14,2 C 92 % 1016,3 hPa 0,0 mm 0,0 km/h (0 Bft) SW 214 0 min 0,000 mm 0,0 UV-I 47 W/m 12,9 C 0,0 km/h (0 Bft)
11.09.2016 07:57 14,2 C 14,2 C 93 % 1016,3 hPa 0,0 mm 0,0 km/h (0 Bft) SW 214 0 min 0,000 mm 0,0 UV-I 47 W/m 13,1 C 0,0 km/h (0 Bft)
11.09.2016 07:58 14,1 C 14,2 C 93 % 1016,3 hPa 0,0 mm 0,0 km/h (0 Bft) SW 214 0 min 0,000 mm 0,0 UV-I 49 W/m 13,0 C 0,0 km/h (0 Bft)
11.09.2016 07:59 14,2 C 14,2 C 93 % 1016,4 hPa 0,0 mm 0,0 km/h (0 Bft) SW 214 0 min 0,000 mm 0,0 UV-I 51 W/m 13,1 C 0,0 km/h (0 Bft)
11.09.2016 08:00 14,2 C 14,2 C 93 % 1016,3 hPa 0,0 mm 0,0 km/h (0 Bft) SW 214 0 min 0,000 mm 0,0 UV-I 54 W/m 13,1 C 0,0 km/h (0 Bft)
11.09.2016 08:01 14,2 C 14,2 C 93 % 1016,4 hPa 0,0 mm 0,0 km/h (0 Bft) SW 214 0 min 0,025 mm 0,5 UV-I 60 W/m 13,1 C 0,0 km/h (0 Bft)
11.09.2016 08:02 14,2 C 14,2 C 93 % 1016,3 hPa 0,0 mm 0,0 km/h (0 Bft) SW 214 0 min 0,000 mm 0,5 UV-I 67 W/m 13,1 C 0,0 km/h (0 Bft)
11.09.2016 08:03 14,2 C 14,2 C 93 % 1016,3 hPa 0,0 mm 0,0 km/h (0 Bft) SW 214 0 min 0,000 mm 0,5 UV-I 70 W/m 13,1 C 0,0 km/h (0 Bft)
11.09.2016 08:04 14,3 C 14,3 C 93 % 1016,3 hPa 0,0 mm 0,0 km/h (0 Bft) SW 214 0 min 0,000 mm 0,5 UV-I 76 W/m 13,2 C 0,0 km/h (0 Bft)
11.09.2016 08:05 14,4 C 14,4 C 93 % 1016,3 hPa 0,0 mm 0,0 km/h (0 Bft) SW 214 0 min 0,000 mm 0,5 UV-I 93 W/m 13,3 C 0,0 km/h (0 Bft)
11.09.2016 08:06 14,4 C 14,4 C 92 % 1016,4 hPa 0,0 mm 0,0 km/h (0 Bft) SW 214 0 min 0,000 mm 0,5 UV-I 95 W/m 13,1 C 0,0 km/h (0 Bft)
11.09.2016 08:07 14,6 C 14,6 C 92 % 1016,4 hPa 0,0 mm 0,0 km/h (0 Bft) SW 214 0 min 0,000 mm 0,5 UV-I 97 W/m 13,3 C 0,0 km/h (0 Bft)
11.09.2016 08:08 14,6 C 14,6 C 92 % 1016,4 hPa 0,0 mm 0,0 km/h (0 Bft) SW 214 0 min 0,000 mm 0,5 UV-I 98 W/m 13,3 C 0,0 km/h (0 Bft)
11.09.2016 08:09 14,6 C 14,6 C 92 % 1016,4 hPa 0,0 mm 0,0 km/h (0 Bft) SW 214 0 min 0,000 mm 0,5 UV-I 100 W/m 13,3 C 0,0 km/h (0 Bft)
11.09.2016 08:10 14,6 C 14,6 C 92 % 1016,4 hPa 0,0 mm 0,0 km/h (0 Bft) SW 214 0 min 0,000 mm 0,5 UV-I 98 W/m 13,3 C 0,0 km/h (0 Bft)
11.09.2016 08:11 14,6 C 14,7 C 92 % 1016,4 hPa 0,0 mm 0,0 km/h (0 Bft) SW 214 0 min 0,000 mm 0,5 UV-I 100 W/m 13,3 C 0,0 km/h (0 Bft)
11.09.2016 08:12 14,7 C 14,7 C 92 % 1016,4 hPa 0,0 mm 0,0 km/h (0 Bft) SW 214 0 min 0,000 mm 0,6 UV-I 107 W/m 13,4 C 0,0 km/h (0 Bft)
11.09.2016 08:13 14,8 C 14,8 C 92 % 1016,4 hPa 0,0 mm 0,0 km/h (0 Bft) SW 214 0 min 0,000 mm 0,6 UV-I 111 W/m 13,5 C 0,0 km/h (0 Bft)
11.09.2016 08:14 14,8 C 14,8 C 92 % 1016,4 hPa 0,0 mm 0,0 km/h (0 Bft) SW 214 0 min 0,000 mm 0,6 UV-I 111 W/m 13,5 C 0,0 km/h (0 Bft)
11.09.2016 08:15 14,9 C 14,9 C 92 % 1016,4 hPa 0,0 mm 0,0 km/h (0 Bft) SW 214 0 min 0,000 mm 0,6 UV-I 111 W/m 13,6 C 0,0 km/h (0 Bft)
11.09.2016 08:16 14,9 C 14,9 C 92 % 1016,4 hPa 0,0 mm 0,0 km/h (0 Bft) SW 214 0 min 0,000 mm 0,6 UV-I 100 W/m 13,6 C 0,0 km/h (0 Bft)
11.09.2016 08:17 15,0 C 15,0 C 92 % 1016,4 hPa 0,0 mm 0,0 km/h (0 Bft) SW 214 0 min 0,000 mm 0,6 UV-I 98 W/m 13,7 C 0,0 km/h (0 Bft)
11.09.2016 08:18 15,0 C 15,0 C 92 % 1016,4 hPa 0,0 mm 0,0 km/h (0 Bft) SW 214 0 min 0,000 mm 0,6 UV-I 105 W/m 13,7 C 0,0 km/h (0 Bft)
11.09.2016 08:19 15,1 C 15,1 C 91 % 1016,4 hPa 0,0 mm 0,0 km/h (0 Bft) SW 214 0 min 0,000 mm 0,6 UV-I 109 W/m 13,6 C 0,0 km/h (0 Bft)
11.09.2016 08:20 15,1 C 15,1 C 92 % 1016,4 hPa 0,0 mm 0,0 km/h (0 Bft) SW 214 0 min 0,000 mm 0,6 UV-I 113 W/m 13,8 C 0,0 km/h (0 Bft)
11.09.2016 08:21 15,1 C 15,2 C 92 % 1016,5 hPa 0,0 mm 0,0 km/h (0 Bft) SW 214 0 min 0,000 mm 0,6 UV-I 114 W/m 13,8 C 0,0 km/h (0 Bft)
11.09.2016 08:22 15,2 C 15,2 C 91 % 1016,4 hPa 0,0 mm 0,0 km/h (0 Bft) SW 214 0 min 0,000 mm 0,6 UV-I 114 W/m 13,7 C 0,0 km/h (0 Bft)
11.09.2016 08:23 15,3 C 15,3 C 91 % 1016,5 hPa 0,0 mm 0,0 km/h (0 Bft) SW 214 0 min 0,000 mm 0,6 UV-I 114 W/m 13,8 C 0,0 km/h (0 Bft)
11.09.2016 08:24 15,4 C 15,4 C 92 % 1016,4 hPa 0,0 mm 0,0 km/h (0 Bft) SW 214 0 min 0,000 mm 0,6 UV-I 111 W/m 14,1 C 0,0 km/h (0 Bft)
11.09.2016 08:25 15,4 C 15,4 C 92 % 1016,4 hPa 0,0 mm 0,0 km/h (0 Bft) SW 214 0 min 0,000 mm 0,6 UV-I 107 W/m 14,1 C 0,0 km/h (0 Bft)
11.09.2016 08:26 15,4 C 15,4 C 92 % 1016,4 hPa 0,0 mm 0,0 km/h (0 Bft) SW 214 0 min 0,000 mm 0,6 UV-I 104 W/m 14,1 C 0,0 km/h (0 Bft)
11.09.2016 08:27 15,6 C 15,6 C 92 % 1016,5 hPa 0,0 mm 0,0 km/h (0 Bft) SW 214 0 min 0,000 mm 0,6 UV-I 98 W/m 14,3 C 0,0 km/h (0 Bft)
11.09.2016 08:28 15,6 C 15,6 C 91 % 1016,5 hPa 0,0 mm 0,0 km/h (0 Bft) SW 214 0 min 0,000 mm 0,6 UV-I 97 W/m 14,1 C 0,0 km/h (0 Bft)
11.09.2016 08:29 15,7 C 15,7 C 92 % 1016,5 hPa 0,0 mm 0,0 km/h (0 Bft) SW 214 0 min 0,000 mm 0,6 UV-I 93 W/m 14,4 C 0,0 km/h (0 Bft)
11.09.2016 08:30 15,8 C 15,8 C 91 % 1016,5 hPa 0,0 mm 0,0 km/h (0 Bft) SW 214 0 min 0,000 mm 0,6 UV-I 93 W/m 14,3 C 0,0 km/h (0 Bft)
11.09.2016 08:31 15,9 C 15,9 C 91 % 1016,5 hPa 0,0 mm 0,0 km/h (0 Bft) SW 214 0 min 0,000 mm 0,6 UV-I 93 W/m 14,4 C 0,0 km/h (0 Bft)
11.09.2016 08:32 15,9 C 15,9 C 90 % 1016,5 hPa 0,0 mm 0,0 km/h (0 Bft) SW 214 0 min 0,000 mm 0,6 UV-I 93 W/m 14,3 C 0,0 km/h (0 Bft)
11.09.2016 08:33 16,0 C 16,0 C 91 % 1016,5 hPa 0,0 mm 0,0 km/h (0 Bft) SW 214 0 min 0,000 mm 0,6 UV-I 95 W/m 14,5 C 0,0 km/h (0 Bft)
11.09.2016 08:34 16,1 C 16,1 C 90 % 1016,6 hPa 0,0 mm 0,0 km/h (0 Bft) SW 214 0 min 0,000 mm 0,6 UV-I 95 W/m 14,5 C 0,0 km/h (0 Bft)
11.09.2016 08:35 16,2 C 16,2 C 91 % 1016,6 hPa 0,0 mm 0,0 km/h (0 Bft) SW 214 0 min 0,000 mm 0,6 UV-I 95 W/m 14,7 C 0,0 km/h (0 Bft)
11.09.2016 08:36 16,3 C 16,3 C 91 % 1016,6 hPa 0,0 mm 0,0 km/h (0 Bft) SW 214 0 min 0,000 mm 0,6 UV-I 97 W/m 14,8 C 0,0 km/h (0 Bft)
11.09.2016 08:37 16,3 C 16,3 C 90 % 1016,6 hPa 0,0 mm 0,0 km/h (0 Bft) SW 214 0 min 0,000 mm 0,6 UV-I 97 W/m 14,7 C 0,0 km/h (0 Bft)
11.09.2016 08:38 16,3 C 16,3 C 91 % 1016,6 hPa 0,0 mm 0,0 km/h (0 Bft) SW 214 0 min 0,000 mm 0,6 UV-I 97 W/m 14,8 C 0,0 km/h (0 Bft)
11.09.2016 08:39 16,3 C 16,3 C 91 % 1016,6 hPa 0,0 mm 0,0 km/h (0 Bft) SW 214 0 min 0,000 mm 0,6 UV-I 95 W/m 14,8 C 0,0 km/h (0 Bft)
11.09.2016 08:40 16,4 C 16,4 C 91 % 1016,7 hPa 0,0 mm 0,0 km/h (0 Bft) SW 214 0 min 0,000 mm 0,6 UV-I 95 W/m 14,9 C 0,0 km/h (0 Bft)
11.09.2016 08:41 16,4 C 16,4 C 91 % 1016,6 hPa 0,0 mm 0,0 km/h (0 Bft) SW 214 0 min 0,000 mm 0,7 UV-I 95 W/m 14,9 C 0,0 km/h (0 Bft)
11.09.2016 08:42 16,4 C 16,4 C 92 % 1016,6 hPa 0,0 mm 0,0 km/h (0 Bft) SW 214 0 min 0,000 mm 0,7 UV-I 93 W/m 15,1 C 0,0 km/h (0 Bft)
11.09.2016 08:43 16,4 C 16,4 C 91 % 1016,6 hPa 0,0 mm 0,0 km/h (0 Bft) SW 214 0 min 0,000 mm 0,7 UV-I 93 W/m 14,9 C 0,0 km/h (0 Bft)
11.09.2016 08:44 16,4 C 16,4 C 90 % 1016,7 hPa 0,0 mm 0,0 km/h (0 Bft) SW 214 0 min 0,000 mm 0,7 UV-I 93 W/m 14,8 C 0,0 km/h (0 Bft)
11.09.2016 08:45 16,5 C 16,5 C 89 % 1016,6 hPa 0,0 mm 0,0 km/h (0 Bft) SW 214 0 min 0,000 mm 0,7 UV-I 93 W/m 14,7 C 0,0 km/h (0 Bft)
11.09.2016 08:46 16,6 C 16,6 C 90 % 1016,7 hPa 0,0 mm 0,0 km/h (0 Bft) SW 214 0 min 0,000 mm 0,7 UV-I 93 W/m 15,0 C 0,0 km/h (0 Bft)
11.09.2016 08:47 16,7 C 16,7 C 90 % 1016,7 hPa 0,0 mm 0,0 km/h (0 Bft) SW 214 0 min 0,000 mm 0,7 UV-I 91 W/m 15,0 C 0,0 km/h (0 Bft)
11.09.2016 08:48 16,7 C 16,7 C 90 % 1016,7 hPa 0,0 mm 0,0 km/h (0 Bft) SW 214 0 min 0,000 mm 0,8 UV-I 90 W/m 15,0 C 0,0 km/h (0 Bft)
11.09.2016 08:49 16,7 C 16,7 C 90 % 1016,7 hPa 0,0 mm 0,0 km/h (0 Bft) SW 214 0 min 0,000 mm 0,8 UV-I 90 W/m 15,0 C 0,0 km/h (0 Bft)
11.09.2016 08:50 16,7 C 16,7 C 90 % 1016,7 hPa 0,0 mm 0,0 km/h (0 Bft) SW 214 0 min 0,000 mm 0,8 UV-I 90 W/m 15,0 C 0,0 km/h (0 Bft)
11.09.2016 08:51 16,7 C 16,8 C 90 % 1016,8 hPa 0,0 mm 0,0 km/h (0 Bft) SW 214 0 min 0,000 mm 0,8 UV-I 91 W/m 15,0 C 0,0 km/h (0 Bft)
11.09.2016 08:52 16,8 C 16,8 C 90 % 1016,8 hPa 0,0 mm 0,0 km/h (0 Bft) SW 214 0 min 0,000 mm 0,8 UV-I 139 W/m 15,1 C 0,0 km/h (0 Bft)
11.09.2016 08:53 16,8 C 16,8 C 90 % 1016,8 hPa 0,0 mm 0,0 km/h (0 Bft) SW 214 1 min 0,000 mm 0,9 UV-I 232 W/m 15,1 C 0,0 km/h (0 Bft)
11.09.2016 08:54 16,8 C 16,8 C 90 % 1016,7 hPa 0,0 mm 0,0 km/h (0 Bft) SW 214 1 min 0,000 mm 0,9 UV-I 209 W/m 15,1 C 0,0 km/h (0 Bft)
11.09.2016 08:55 16,9 C 16,9 C 91 % 1016,8 hPa 0,0 mm 0,0 km/h (0 Bft) SW 214 0 min 0,000 mm 0,9 UV-I 118 W/m 15,4 C 0,0 km/h (0 Bft)
11.09.2016 08:56 16,9 C 16,9 C 89 % 1016,7 hPa 0,0 mm 0,0 km/h (0 Bft) SW 214 0 min 0,000 mm 0,9 UV-I 141 W/m 15,1 C 0,0 km/h (0 Bft)
11.09.2016 08:57 16,9 C 16,9 C 89 % 1016,8 hPa 0,0 mm 0,0 km/h (0 Bft) SW 214 0 min 0,000 mm 1,0 UV-I 176 W/m 15,1 C 0,0 km/h (0 Bft)
11.09.2016 08:58 16,9 C 16,9 C 89 % 1016,8 hPa 0,0 mm 0,0 km/h (0 Bft) SW 214 1 min 0,000 mm 1,0 UV-I 234 W/m 15,1 C 0,0 km/h (0 Bft)
11.09.2016 08:59 17,0 C 17,0 C 89 % 1016,8 hPa 0,0 mm 0,0 km/h (0 Bft) SW 214 1 min 0,000 mm 1,1 UV-I 206 W/m 15,2 C 0,0 km/h (0 Bft)
11.09.2016 09:00 17,1 C 17,1 C 90 % 1016,7 hPa 0,0 mm 0,0 km/h (0 Bft) SW 214 1 min 0,051 mm 1,2 UV-I 251 W/m 15,4 C 0,0 km/h (0 Bft)
11.09.2016 09:01 17,2 C 17,2 C 90 % 1016,7 hPa 0,0 mm 0,0 km/h (0 Bft) SW 214 1 min 0,000 mm 1,2 UV-I 271 W/m 15,5 C 0,0 km/h (0 Bft)
11.09.2016 09:02 17,2 C 17,2 C 89 % 1016,7 hPa 0,0 mm 0,0 km/h (0 Bft) SW 214 1 min 0,000 mm 1,3 UV-I 287 W/m 15,4 C 0,0 km/h (0 Bft)
11.09.2016 09:03 17,2 C 17,2 C 89 % 1016,7 hPa 0,0 mm 0,0 km/h (0 Bft) SW 214 1 min 0,000 mm 1,3 UV-I 292 W/m 15,4 C 0,0 km/h (0 Bft)
11.09.2016 09:04 17,3 C 17,3 C 90 % 1016,7 hPa 0,0 mm 0,0 km/h (0 Bft) SW 214 1 min 0,000 mm 1,3 UV-I 288 W/m 15,6 C 0,0 km/h (0 Bft)
11.09.2016 09:05 17,4 C 17,4 C 89 % 1016,7 hPa 0,0 mm 0,0 km/h (0 Bft) SW 214 1 min 0,000 mm 1,4 UV-I 287 W/m 15,6 C 0,0 km/h (0 Bft)
11.09.2016 09:06 17,4 C 17,4 C 88 % 1016,7 hPa 0,0 mm 0,0 km/h (0 Bft) SW 214 1 min 0,000 mm 1,4 UV-I 287 W/m 15,4 C 0,0 km/h (0 Bft)
11.09.2016 09:07 17,4 C 17,4 C 88 % 1016,7 hPa 0,0 mm 0,0 km/h (0 Bft) SW 214 1 min 0,000 mm 1,4 UV-I 283 W/m 15,4 C 0,0 km/h (0 Bft)
11.09.2016 09:08 17,4 C 17,4 C 88 % 1016,7 hPa 0,0 mm 0,0 km/h (0 Bft) SW 214 1 min 0,000 mm 1,4 UV-I 283 W/m 15,4 C 0,0 km/h (0 Bft)
11.09.2016 09:09 17,4 C 17,5 C 87 % 1016,7 hPa 0,0 mm 0,0 km/h (0 Bft) SW 214 1 min 0,000 mm 1,4 UV-I 281 W/m 15,2 C 0,0 km/h (0 Bft)
11.09.2016 09:10 17,6 C 17,6 C 89 % 1016,7 hPa 0,0 mm 0,0 km/h (0 Bft) SW 214 1 min 0,000 mm 1,4 UV-I 281 W/m 15,8 C 0,0 km/h (0 Bft)
11.09.2016 09:11 17,6 C 17,6 C 87 % 1016,7 hPa 0,0 mm 0,0 km/h (0 Bft) SW 214 1 min 0,000 mm 1,5 UV-I 285 W/m 15,4 C 0,0 km/h (0 Bft)
11.09.2016 09:12 17,7 C 17,7 C 87 % 1016,8 hPa 0,0 mm 0,0 km/h (0 Bft) SW 214 1 min 0,000 mm 1,5 UV-I 288 W/m 15,5 C 0,0 km/h (0 Bft)
11.09.2016 09:13 17,7 C 17,7 C 87 % 1016,7 hPa 0,0 mm 0,0 km/h (0 Bft) SW 214 1 min 0,000 mm 1,5 UV-I 288 W/m 15,5 C 0,0 km/h (0 Bft)
11.09.2016 09:14 17,7 C 17,7 C 89 % 1016,8 hPa 0,0 mm 0,0 km/h (0 Bft) SW 214 1 min 0,000 mm 1,5 UV-I 290 W/m 15,9 C 0,0 km/h (0 Bft)
11.09.2016 09:15 17,8 C 17,8 C 87 % 1016,8 hPa 0,0 mm 0,0 km/h (0 Bft) SW 214 1 min 0,000 mm 1,5 UV-I 292 W/m 15,6 C 0,0 km/h (0 Bft)
11.09.2016 09:16 17,9 C 17,9 C 86 % 1016,8 hPa 0,0 mm 0,0 km/h (0 Bft) SW 214 1 min 0,000 mm 1,5 UV-I 299 W/m 15,5 C 0,0 km/h (0 Bft)
11.09.2016 09:17 17,9 C 18,0 C 86 % 1016,8 hPa 0,0 mm 0,0 km/h (0 Bft) SW 214 1 min 0,000 mm 1,6 UV-I 311 W/m 15,5 C 0,0 km/h (0 Bft)
11.09.2016 09:18 18,0 C 18,0 C 86 % 1016,8 hPa 0,0 mm 0,0 km/h (0 Bft) SW 214 1 min 0,000 mm 1,6 UV-I 316 W/m 15,6 C 0,0 km/h (0 Bft)
11.09.2016 09:19 18,0 C 18,1 C 86 % 1016,8 hPa 0,0 mm 0,0 km/h (0 Bft) SW 214 1 min 0,000 mm 1,6 UV-I 318 W/m 15,6 C 0,0 km/h (0 Bft)
11.09.2016 09:20 18,1 C 18,1 C 85 % 1016,8 hPa 0,0 mm 0,0 km/h (0 Bft) SW 214 1 min 0,000 mm 1,6 UV-I 323 W/m 15,5 C 0,0 km/h (0 Bft)
11.09.2016 09:21 18,2 C 18,2 C 86 % 1016,8 hPa 0,0 mm 0,0 km/h (0 Bft) SW 214 1 min 0,000 mm 1,7 UV-I 325 W/m 15,8 C 0,0 km/h (0 Bft)
11.09.2016 09:22 18,2 C 18,2 C 85 % 1016,8 hPa 0,0 mm 0,0 km/h (0 Bft) SW 214 1 min 0,000 mm 1,7 UV-I 330 W/m 15,6 C 0,0 km/h (0 Bft)
11.09.2016 09:23 18,2 C 18,2 C 85 % 1016,8 hPa 0,0 mm 0,0 km/h (0 Bft) SW 214 1 min 0,000 mm 1,7 UV-I 330 W/m 15,6 C 0,0 km/h (0 Bft)
11.09.2016 09:24 18,3 C 18,3 C 85 % 1016,8 hPa 0,0 mm 0,0 km/h (0 Bft) SW 214 1 min 0,000 mm 1,7 UV-I 334 W/m 15,7 C 0,0 km/h (0 Bft)
11.09.2016 09:25 18,3 C 18,3 C 85 % 1016,8 hPa 0,0 mm 0,0 km/h (0 Bft) SW 214 1 min 0,000 mm 1,8 UV-I 336 W/m 15,7 C 0,0 km/h (0 Bft)
11.09.2016 09:26 18,3 C 18,3 C 85 % 1016,8 hPa 0,0 mm 0,0 km/h (0 Bft) SW 214 1 min 0,000 mm 1,8 UV-I 341 W/m 15,7 C 0,0 km/h (0 Bft)
11.09.2016 09:27 18,3 C 18,3 C 85 % 1016,8 hPa 0,0 mm 0,0 km/h (0 Bft) SW 214 1 min 0,000 mm 1,8 UV-I 346 W/m 15,7 C 0,0 km/h (0 Bft)
11.09.2016 09:28 18,3 C 18,3 C 85 % 1016,8 hPa 0,0 mm 0,0 km/h (0 Bft) SW 214 1 min 0,000 mm 1,8 UV-I 348 W/m 15,7 C 0,0 km/h (0 Bft)
11.09.2016 09:29 18,4 C 18,4 C 84 % 1016,8 hPa 0,0 mm 0,0 km/h (0 Bft) SW 214 1 min 0,000 mm 1,9 UV-I 350 W/m 15,6 C 0,0 km/h (0 Bft)
11.09.2016 09:30 18,4 C 18,4 C 84 % 1016,8 hPa 0,0 mm 0,0 km/h (0 Bft) SW 214 1 min 0,000 mm 1,9 UV-I 352 W/m 15,6 C 0,0 km/h (0 Bft)
11.09.2016 09:31 18,5 C 18,5 C 83 % 1016,8 hPa 0,0 mm 0,0 km/h (0 Bft) SW 214 1 min 0,000 mm 1,9 UV-I 355 W/m 15,6 C 0,0 km/h (0 Bft)
11.09.2016 09:32 18,6 C 18,6 C 84 % 1016,8 hPa 0,0 mm 0,0 km/h (0 Bft) SW 214 1 min 0,000 mm 1,9 UV-I 357 W/m 15,8 C 0,0 km/h (0 Bft)
11.09.2016 09:33 18,6 C 18,6 C 84 % 1016,8 hPa 0,0 mm 0,0 km/h (0 Bft) SW 214 1 min 0,000 mm 1,9 UV-I 364 W/m 15,8 C 0,0 km/h (0 Bft)
11.09.2016 09:34 18,6 C 18,6 C 83 % 1016,8 hPa 0,0 mm 0,0 km/h (0 Bft) SW 214 1 min 0,000 mm 2,0 UV-I 367 W/m 15,7 C 0,0 km/h (0 Bft)
11.09.2016 09:35 18,7 C 18,7 C 83 % 1016,8 hPa 0,0 mm 0,0 km/h (0 Bft) SW 214 1 min 0,000 mm 2,0 UV-I 369 W/m 15,8 C 0,0 km/h (0 Bft)
11.09.2016 09:36 18,7 C 18,7 C 82 % 1016,9 hPa 0,0 mm 0,0 km/h (0 Bft) SW 214 1 min 0,000 mm 2,0 UV-I 371 W/m 15,6 C 0,0 km/h (0 Bft)
11.09.2016 09:37 18,7 C 18,7 C 83 % 1016,8 hPa 0,0 mm 0,0 km/h (0 Bft) SW 214 1 min 0,000 mm 2,1 UV-I 374 W/m 15,8 C 0,0 km/h (0 Bft)
11.09.2016 09:38 18,8 C 18,8 C 82 % 1016,8 hPa 0,0 mm 0,0 km/h (0 Bft) SW 214 1 min 0,000 mm 2,1 UV-I 378 W/m 15,7 C 0,0 km/h (0 Bft)
11.09.2016 09:39 18,8 C 18,8 C 83 % 1016,9 hPa 0,0 mm 0,0 km/h (0 Bft) S-SW 198 1 min 0,000 mm 2,1 UV-I 387 W/m 15,8 C 0,0 km/h (0 Bft)
11.09.2016 09:40 18,9 C 18,9 C 83 % 1016,9 hPa 0,0 mm 0,0 km/h (0 Bft) S-SW 198 1 min 0,000 mm 2,1 UV-I 390 W/m 15,9 C 0,0 km/h (0 Bft)
11.09.2016 09:41 19,1 C 19,1 C 82 % 1016,9 hPa 0,0 mm 0,0 km/h (0 Bft) S-SW 198 1 min 0,000 mm 2,1 UV-I 392 W/m 16,0 C 0,0 km/h (0 Bft)
11.09.2016 09:42 19,1 C 19,1 C 84 % 1016,9 hPa 0,0 mm 0,0 km/h (0 Bft) S-SW 198 1 min 0,000 mm 2,2 UV-I 392 W/m 16,3 C 0,0 km/h (0 Bft)
11.09.2016 09:43 19,2 C 19,2 C 82 % 1016,9 hPa 0,0 mm 0,0 km/h (0 Bft) S-SW 198 1 min 0,000 mm 2,2 UV-I 392 W/m 16,0 C 0,0 km/h (0 Bft)
11.09.2016 09:44 19,3 C 19,3 C 82 % 1016,9 hPa 0,0 mm 0,0 km/h (0 Bft) S-SW 198 1 min 0,000 mm 2,2 UV-I 390 W/m 16,1 C 0,0 km/h (0 Bft)
11.09.2016 09:45 19,4 C 19,4 C 80 % 1016,9 hPa 0,0 mm 0,0 km/h (0 Bft) S-SW 198 1 min 0,000 mm 2,2 UV-I 387 W/m 15,9 C 0,0 km/h (0 Bft)
11.09.2016 09:46 19,4 C 19,4 C 81 % 1016,9 hPa 0,0 mm 0,0 km/h (0 Bft) S-SW 198 1 min 0,000 mm 2,2 UV-I 385 W/m 16,1 C 0,0 km/h (0 Bft)
11.09.2016 09:47 19,5 C 19,5 C 80 % 1016,9 hPa 0,0 mm 0,0 km/h (0 Bft) S-SW 198 1 min 0,000 mm 2,2 UV-I 383 W/m 16,0 C 0,0 km/h (0 Bft)
11.09.2016 09:48 19,5 C 19,6 C 80 % 1016,9 hPa 0,0 mm 0,0 km/h (0 Bft) S-SW 198 1 min 0,000 mm 2,2 UV-I 388 W/m 16,0 C 0,0 km/h (0 Bft)
11.09.2016 09:49 19,5 C 19,5 C 82 % 1017,0 hPa 0,0 mm 0,0 km/h (0 Bft) S-SW 198 1 min 0,000 mm 2,2 UV-I 396 W/m 16,3 C 0,0 km/h (0 Bft)
11.09.2016 09:50 19,5 C 19,5 C 83 % 1017,0 hPa 0,0 mm 0,0 km/h (0 Bft) S-SW 198 1 min 0,000 mm 2,3 UV-I 399 W/m 16,5 C 0,0 km/h (0 Bft)
11.09.2016 09:51 19,6 C 19,6 C 84 % 1016,9 hPa 0,0 mm 0,0 km/h (0 Bft) S-SW 198 1 min 0,000 mm 2,3 UV-I 406 W/m 16,8 C 0,0 km/h (0 Bft)
11.09.2016 09:52 19,6 C 19,6 C 82 % 1016,9 hPa 0,0 mm 0,0 km/h (0 Bft) S-SW 198 1 min 0,000 mm 2,3 UV-I 413 W/m 16,4 C 0,0 km/h (0 Bft)
11.09.2016 09:53 19,7 C 19,7 C 81 % 1016,9 hPa 0,0 mm 0,0 km/h (0 Bft) S-SW 198 1 min 0,000 mm 2,4 UV-I 417 W/m 16,3 C 0,0 km/h (0 Bft)
11.09.2016 09:54 19,7 C 19,7 C 83 % 1017,0 hPa 0,0 mm 0,0 km/h (0 Bft) S-SW 198 1 min 0,000 mm 2,4 UV-I 420 W/m 16,7 C 0,0 km/h (0 Bft)
11.09.2016 09:55 19,7 C 19,8 C 81 % 1017,0 hPa 0,0 mm 0,0 km/h (0 Bft) S-SW 198 1 min 0,000 mm 2,4 UV-I 424 W/m 16,3 C 0,0 km/h (0 Bft)
11.09.2016 09:56 19,7 C 19,7 C 81 % 1016,9 hPa 0,0 mm 0,0 km/h (0 Bft) S-SW 198 1 min 0,000 mm 2,4 UV-I 425 W/m 16,3 C 0,0 km/h (0 Bft)
11.09.2016 09:57 19,7 C 19,7 C 81 % 1016,9 hPa 0,0 mm 0,0 km/h (0 Bft) S-SW 198 1 min 0,000 mm 2,4 UV-I 429 W/m 16,3 C 0,0 km/h (0 Bft)
11.09.2016 09:58 19,7 C 19,7 C 79 % 1016,9 hPa 0,0 mm 0,0 km/h (0 Bft) S-SW 198 1 min 0,000 mm 2,5 UV-I 427 W/m 16,0 C 0,0 km/h (0 Bft)
11.09.2016 09:59 19,7 C 19,7 C 79 % 1016,9 hPa 0,0 mm 0,0 km/h (0 Bft) S-SW 198 1 min 0,000 mm 2,5 UV-I 427 W/m 16,0 C 0,0 km/h (0 Bft)
11.09.2016 10:00 19,7 C 19,7 C 80 % 1016,9 hPa 0,0 mm 0,0 km/h (0 Bft) S-SW 198 1 min 0,203 mm 2,5 UV-I 427 W/m 16,1 C 0,0 km/h (0 Bft)
11.09.2016 10:01 19,8 C 19,8 C 78 % 1016,9 hPa 0,0 mm 0,0 km/h (0 Bft) S-SW 198 1 min 0,000 mm 2,5 UV-I 424 W/m 15,8 C 0,0 km/h (0 Bft)
11.09.2016 10:02 19,8 C 19,8 C 77 % 1016,9 hPa 0,0 mm 0,0 km/h (0 Bft) S-SW 198 1 min 0,000 mm 2,5 UV-I 424 W/m 15,6 C 0,0 km/h (0 Bft)
11.09.2016 10:03 19,8 C 19,8 C 77 % 1016,9 hPa 0,0 mm 0,0 km/h (0 Bft) S-SW 198 1 min 0,000 mm 2,5 UV-I 427 W/m 15,6 C 0,0 km/h (0 Bft)
11.09.2016 10:04 19,8 C 19,8 C 77 % 1017,0 hPa 0,0 mm 0,0 km/h (0 Bft) S-SW 198 1 min 0,000 mm 2,5 UV-I 431 W/m 15,6 C 0,0 km/h (0 Bft)
11.09.2016 10:05 19,9 C 19,9 C 78 % 1016,9 hPa 0,0 mm 0,0 km/h (0 Bft) S-SW 198 1 min 0,000 mm 2,6 UV-I 432 W/m 15,9 C 0,0 km/h (0 Bft)
11.09.2016 10:06 19,9 C 19,9 C 76 % 1016,9 hPa 0,0 mm 0,0 km/h (0 Bft) S-SW 198 1 min 0,000 mm 2,6 UV-I 441 W/m 15,5 C 0,0 km/h (0 Bft)
11.09.2016 10:07 19,9 C 19,9 C 76 % 1016,9 hPa 0,0 mm 0,0 km/h (0 Bft) S-SW 196 1 min 0,000 mm 2,6 UV-I 448 W/m 15,5 C 0,0 km/h (0 Bft)
11.09.2016 10:08 19,9 C 20,0 C 75 % 1016,9 hPa 0,0 mm 0,0 km/h (0 Bft) S-SW 196 1 min 0,000 mm 2,7 UV-I 452 W/m 15,3 C 0,0 km/h (0 Bft)
11.09.2016 10:09 19,9 C 20,0 C 76 % 1016,9 hPa 0,0 mm 0,0 km/h (0 Bft) S-SW 196 1 min 0,000 mm 2,7 UV-I 455 W/m 15,5 C 0,0 km/h (0 Bft)
11.09.2016 10:10 19,9 C 19,9 C 76 % 1016,9 hPa 0,0 mm 0,0 km/h (0 Bft) S-SW 196 1 min 0,000 mm 2,7 UV-I 457 W/m 15,5 C 0,0 km/h (0 Bft)
11.09.2016 10:11 19,9 C 19,9 C 76 % 1016,9 hPa 0,0 mm 0,0 km/h (0 Bft) S-SW 196 1 min 0,000 mm 2,7 UV-I 452 W/m 15,5 C 0,0 km/h (0 Bft)
11.09.2016 10:12 19,9 C 19,9 C 78 % 1017,0 hPa 0,0 mm 0,0 km/h (0 Bft) S-SW 196 1 min 0,000 mm 2,7 UV-I 452 W/m 15,9 C 0,0 km/h (0 Bft)
11.09.2016 10:13 19,9 C 19,9 C 77 % 1016,9 hPa 0,0 mm 0,0 km/h (0 Bft) S-SW 196 1 min 0,000 mm 2,7 UV-I 455 W/m 15,7 C 0,0 km/h (0 Bft)
11.09.2016 10:14 19,9 C 19,9 C 84 % 1016,9 hPa 0,0 mm 0,0 km/h (0 Bft) W 267 1 min 0,000 mm 2,7 UV-I 454 W/m 17,1 C 0,0 km/h (0 Bft)
11.09.2016 10:15 19,9 C 19,9 C 81 % 1016,9 hPa 0,0 mm 0,0 km/h (0 Bft) W-NW 301 1 min 0,000 mm 2,7 UV-I 450 W/m 16,5 C 0,0 km/h (0 Bft)
11.09.2016 10:16 20,2 C 20,2 C 75 % 1016,9 hPa 0,0 mm 0,0 km/h (0 Bft) W-NW 300 1 min 0,000 mm 2,7 UV-I 448 W/m 15,6 C 0,0 km/h (0 Bft)
11.09.2016 10:17 20,4 C 20,4 C 71 % 1016,9 hPa 0,0 mm 0,0 km/h (0 Bft) W-NW 300 1 min 0,000 mm 2,7 UV-I 441 W/m 15,0 C 0,0 km/h (0 Bft)
11.09.2016 10:18 20,6 C 20,6 C 77 % 1016,9 hPa 0,0 mm 0,0 km/h (0 Bft) W 268 1 min 0,000 mm 2,7 UV-I 443 W/m 16,4 C 0,0 km/h (0 Bft)
11.09.2016 10:19 20,5 C 20,6 C 73 % 1016,9 hPa 0,0 mm 0,0 km/h (0 Bft) W 268 1 min 0,000 mm 2,8 UV-I 450 W/m 15,5 C 0,0 km/h (0 Bft)
11.09.2016 10:20 20,6 C 20,6 C 72 % 1016,9 hPa 0,0 mm 0,0 km/h (0 Bft) W-NW 290 1 min 0,000 mm 2,8 UV-I 459 W/m 15,4 C 0,0 km/h (0 Bft)
11.09.2016 10:21 20,7 C 20,7 C 72 % 1016,9 hPa 0,0 mm 0,0 km/h (0 Bft) W-NW 290 1 min 0,000 mm 2,9 UV-I 464 W/m 15,5 C 0,0 km/h (0 Bft)
11.09.2016 10:22 20,8 C 20,8 C 71 % 1016,9 hPa 0,0 mm 0,0 km/h (0 Bft) W-SW 238 1 min 0,000 mm 2,9 UV-I 471 W/m 15,3 C 0,0 km/h (0 Bft)
11.09.2016 10:23 20,9 C 20,9 C 76 % 1017,0 hPa 0,0 mm 0,0 km/h (0 Bft) W-SW 238 1 min 0,000 mm 2,9 UV-I 473 W/m 16,5 C 0,0 km/h (0 Bft)
11.09.2016 10:24 20,9 C 20,9 C 71 % 1017,0 hPa 0,0 mm 0,0 km/h (0 Bft) S-SW 209 1 min 0,000 mm 2,9 UV-I 475 W/m 15,4 C 0,0 km/h (0 Bft)
11.09.2016 10:25 20,8 C 20,9 C 72 % 1017,0 hPa 0,0 mm 0,0 km/h (0 Bft) S-SW 192 1 min 0,000 mm 2,9 UV-I 476 W/m 15,6 C 0,0 km/h (0 Bft)
11.09.2016 10:26 21,0 C 21,0 C 72 % 1016,9 hPa 0,0 mm 0,0 km/h (0 Bft) W-SW 254 1 min 0,000 mm 3,0 UV-I 480 W/m 15,8 C 0,0 km/h (0 Bft)
11.09.2016 10:27 21,1 C 21,1 C 71 % 1016,9 hPa 0,0 mm 0,0 km/h (0 Bft) NW 317 1 min 0,000 mm 3,0 UV-I 480 W/m 15,6 C 0,0 km/h (0 Bft)
11.09.2016 10:28 21,2 C 21,2 C 73 % 1017,0 hPa 0,0 mm 0,0 km/h (0 Bft) N-NO 33 1 min 0,000 mm 3,0 UV-I 480 W/m 16,2 C 0,0 km/h (0 Bft)
11.09.2016 10:29 21,3 C 21,3 C 71 % 1016,9 hPa 0,0 mm 0,0 km/h (0 Bft) N-NO 33 1 min 0,000 mm 3,0 UV-I 478 W/m 15,8 C 0,0 km/h (0 Bft)
11.09.2016 10:30 21,3 C 21,3 C 72 % 1016,9 hPa 0,0 mm 0,0 km/h (0 Bft) N-NO 32 1 min 0,000 mm 3,0 UV-I 478 W/m 16,0 C 0,0 km/h (0 Bft)
11.09.2016 10:31 21,1 C 21,3 C 71 % 1016,9 hPa 0,0 mm 0,0 km/h (0 Bft) N-NO 32 1 min 0,000 mm 3,0 UV-I 480 W/m 15,6 C 0,0 km/h (0 Bft)
11.09.2016 10:32 21,1 C 21,1 C 72 % 1016,9 hPa 0,0 mm 0,0 km/h (0 Bft) N-NW 345 1 min 0,000 mm 3,0 UV-I 485 W/m 15,8 C 0,0 km/h (0 Bft)
11.09.2016 10:33 21,3 C 21,3 C 74 % 1016,9 hPa 0,0 mm 0,0 km/h (0 Bft) W 279 1 min 0,000 mm 3,1 UV-I 489 W/m 16,5 C 0,0 km/h (0 Bft)
11.09.2016 10:34 21,4 C 21,4 C 70 % 1016,9 hPa 0,0 mm 0,0 km/h (0 Bft) W-NW 289 1 min 0,000 mm 3,1 UV-I 494 W/m 15,7 C 0,0 km/h (0 Bft)
11.09.2016 10:35 21,4 C 21,4 C 71 % 1016,9 hPa 0,0 mm 0,0 km/h (0 Bft) W-NW 286 1 min 0,000 mm 3,1 UV-I 499 W/m 15,9 C 0,0 km/h (0 Bft)
11.09.2016 10:36 21,5 C 21,6 C 73 % 1016,9 hPa 0,0 mm 0,0 km/h (0 Bft) W-NW 286 1 min 0,000 mm 3,1 UV-I 501 W/m 16,4 C 0,0 km/h (0 Bft)
11.09.2016 10:37 21,4 C 21,5 C 71 % 1016,9 hPa 0,0 mm 0,0 km/h (0 Bft) NW 310 1 min 0,000 mm 3,2 UV-I 503 W/m 15,9 C 0,0 km/h (0 Bft)
11.09.2016 10:38 21,4 C 21,4 C 69 % 1016,9 hPa 0,0 mm 0,0 km/h (0 Bft) NW 306 1 min 0,000 mm 3,2 UV-I 508 W/m 15,5 C 0,0 km/h (0 Bft)
11.09.2016 10:39 21,5 C 21,5 C 68 % 1016,9 hPa 0,0 mm 0,0 km/h (0 Bft) NW 322 1 min 0,000 mm 3,2 UV-I 512 W/m 15,3 C 0,0 km/h (0 Bft)
11.09.2016 10:40 21,6 C 21,6 C 67 % 1016,9 hPa 0,0 mm 0,0 km/h (0 Bft) NW 323 1 min 0,000 mm 3,2 UV-I 512 W/m 15,2 C 0,0 km/h (0 Bft)
11.09.2016 10:41 21,7 C 21,7 C 66 % 1016,9 hPa 0,0 mm 0,0 km/h (0 Bft) W 277 1 min 0,000 mm 3,3 UV-I 513 W/m 15,1 C 0,0 km/h (0 Bft)
11.09.2016 10:42 21,7 C 21,7 C 65 % 1016,9 hPa 0,0 mm 0,0 km/h (0 Bft) N-NW 344 1 min 0,000 mm 3,3 UV-I 517 W/m 14,8 C 0,0 km/h (0 Bft)
11.09.2016 10:43 21,8 C 21,8 C 70 % 1017,0 hPa 0,0 mm 0,0 km/h (0 Bft) W-NW 300 1 min 0,000 mm 3,3 UV-I 520 W/m 16,1 C 0,0 km/h (0 Bft)
11.09.2016 10:44 21,9 C 21,9 C 69 % 1017,0 hPa 0,0 mm 0,0 km/h (0 Bft) N 5 1 min 0,000 mm 3,3 UV-I 526 W/m 15,9 C 0,0 km/h (0 Bft)
11.09.2016 10:45 21,9 C 21,9 C 67 % 1016,9 hPa 0,0 mm 0,0 km/h (0 Bft) N 5 1 min 0,000 mm 3,4 UV-I 527 W/m 15,5 C 0,0 km/h (0 Bft)
11.09.2016 10:46 21,8 C 21,9 C 71 % 1017,0 hPa 0,0 mm 0,0 km/h (0 Bft) N 5 1 min 0,000 mm 3,4 UV-I 531 W/m 16,3 C 0,0 km/h (0 Bft)
11.09.2016 10:47 21,8 C 21,8 C 65 % 1017,0 hPa 0,0 mm 0,0 km/h (0 Bft) N 5 1 min 0,000 mm 3,4 UV-I 534 W/m 14,9 C 0,0 km/h (0 Bft)
11.09.2016 10:48 21,7 C 21,8 C 71 % 1017,0 hPa 0,0 mm 0,0 km/h (0 Bft) N 5 1 min 0,000 mm 3,4 UV-I 534 W/m 16,2 C 0,0 km/h (0 Bft)
11.09.2016 10:49 21,4 C 21,7 C 70 % 1017,1 hPa 0,0 mm 0,0 km/h (0 Bft) N 5 1 min 0,000 mm 3,4 UV-I 536 W/m 15,7 C 0,0 km/h (0 Bft)
11.09.2016 10:50 21,2 C 21,4 C 69 % 1017,0 hPa 0,0 mm 0,0 km/h (0 Bft) N 355 1 min 0,000 mm 3,5 UV-I 540 W/m 15,3 C 0,0 km/h (0 Bft)
11.09.2016 10:51 21,1 C 21,2 C 71 % 1017,0 hPa 0,0 mm 0,0 km/h (0 Bft) N 360 1 min 0,000 mm 3,5 UV-I 538 W/m 15,6 C 0,0 km/h (0 Bft)
11.09.2016 10:52 21,3 C 21,3 C 67 % 1017,0 hPa 0,0 mm 0,0 km/h (0 Bft) N 360 1 min 0,000 mm 3,5 UV-I 536 W/m 14,9 C 0,0 km/h (0 Bft)
11.09.2016 10:53 21,4 C 21,4 C 68 % 1017,0 hPa 0,0 mm 0,0 km/h (0 Bft) N 360 1 min 0,000 mm 3,5 UV-I 536 W/m 15,2 C 0,0 km/h (0 Bft)
11.09.2016 10:54 21,3 C 21,4 C 68 % 1017,0 hPa 0,0 mm 0,0 km/h (0 Bft) N 360 1 min 0,000 mm 3,5 UV-I 536 W/m 15,1 C 0,0 km/h (0 Bft)
11.09.2016 10:55 21,3 C 21,3 C 68 % 1017,0 hPa 0,0 mm 0,0 km/h (0 Bft) N-NW 330 1 min 0,000 mm 3,5 UV-I 540 W/m 15,1 C 0,0 km/h (0 Bft)
11.09.2016 10:56 21,5 C 21,5 C 69 % 1017,0 hPa 0,0 mm 0,0 km/h (0 Bft) N-NW 330 1 min 0,000 mm 3,6 UV-I 543 W/m 15,6 C 0,0 km/h (0 Bft)
11.09.2016 10:57 21,7 C 21,7 C 67 % 1017,0 hPa 0,0 mm 0,0 km/h (0 Bft) N-NW 348 1 min 0,000 mm 3,6 UV-I 550 W/m 15,3 C 0,0 km/h (0 Bft)
11.09.2016 10:58 21,8 C 21,8 C 69 % 1017,0 hPa 0,0 mm 0,0 km/h (0 Bft) N 5 1 min 0,000 mm 3,6 UV-I 554 W/m 15,9 C 0,0 km/h (0 Bft)
11.09.2016 10:59 22,1 C 22,1 C 67 % 1017,0 hPa 0,0 mm 0,0 km/h (0 Bft) NW 310 1 min 0,000 mm 3,7 UV-I 559 W/m 15,7 C 0,0 km/h (0 Bft)
11.09.2016 11:00 22,1 C 22,1 C 67 % 1017,0 hPa 0,0 mm 0,0 km/h (0 Bft) NW 317 1 min 0,000 mm 3,7 UV-I 563 W/m 15,7 C 0,0 km/h (0 Bft)
11.09.2016 11:01 22,1 C 22,1 C 65 % 1017,0 hPa 0,0 mm 0,0 km/h (0 Bft) N 9 1 min 0,279 mm 3,7 UV-I 564 W/m 15,2 C 0,0 km/h (0 Bft)
11.09.2016 11:02 22,1 C 22,1 C 64 % 1017,0 hPa 0,0 mm 0,0 km/h (0 Bft) NO 35 1 min 0,001 mm 3,7 UV-I 564 W/m 15,0 C 0,0 km/h (0 Bft)
11.09.2016 11:03 22,0 C 22,1 C 62 % 1017,0 hPa 0,0 mm 0,0 km/h (0 Bft) NO 52 1 min 0,000 mm 3,7 UV-I 564 W/m 14,4 C 0,0 km/h (0 Bft)
11.09.2016 11:04 21,9 C 22,0 C 63 % 1017,0 hPa 0,0 mm 0,0 km/h (0 Bft) N-NO 30 1 min 0,000 mm 3,7 UV-I 566 W/m 14,5 C 0,0 km/h (0 Bft)
11.09.2016 11:05 22,0 C 22,0 C 66 % 1017,0 hPa 0,0 mm 0,0 km/h (0 Bft) N-NO 30 1 min 0,000 mm 3,7 UV-I 568 W/m 15,3 C 0,0 km/h (0 Bft)
11.09.2016 11:06 22,1 C 22,1 C 69 % 1017,0 hPa 0,0 mm 0,0 km/h (0 Bft) N-NO 30 1 min 0,000 mm 3,8 UV-I 568 W/m 16,1 C 0,0 km/h (0 Bft)
11.09.2016 11:07 22,0 C 22,1 C 66 % 1017,0 hPa 0,0 mm 0,0 km/h (0 Bft) N 5 1 min 0,000 mm 3,8 UV-I 575 W/m 15,3 C 0,0 km/h (0 Bft)
11.09.2016 11:08 22,0 C 22,0 C 68 % 1017,0 hPa 0,0 mm 0,0 km/h (0 Bft) N 5 1 min 0,000 mm 3,8 UV-I 577 W/m 15,8 C 0,0 km/h (0 Bft)
11.09.2016 11:09 22,1 C 22,1 C 67 % 1017,0 hPa 0,0 mm 0,0 km/h (0 Bft) NW 323 1 min 0,000 mm 3,9 UV-I 578 W/m 15,7 C 0,0 km/h (0 Bft)
11.09.2016 11:10 22,1 C 22,1 C 69 % 1017,0 hPa 0,0 mm 0,0 km/h (0 Bft) NW 323 1 min 0,000 mm 3,9 UV-I 582 W/m 16,1 C 0,0 km/h (0 Bft)
11.09.2016 11:11 22,3 C 22,3 C 68 % 1017,0 hPa 0,0 mm 0,0 km/h (0 Bft) N-NW 327 1 min 0,000 mm 3,9 UV-I 584 W/m 16,1 C 0,0 km/h (0 Bft)
11.09.2016 11:12 22,4 C 22,4 C 66 % 1017,0 hPa 0,0 mm 0,0 km/h (0 Bft) W-NW 296 1 min 0,000 mm 3,9 UV-I 585 W/m 15,7 C 0,0 km/h (0 Bft)
11.09.2016 11:13 22,4 C 22,4 C 64 % 1017,0 hPa 0,0 mm 0,0 km/h (0 Bft) W-NW 296 1 min 0,000 mm 3,9 UV-I 589 W/m 15,2 C 0,0 km/h (0 Bft)
11.09.2016 11:14 22,4 C 22,4 C 65 % 1017,0 hPa 0,0 mm 0,0 km/h (0 Bft) W-NW 297 1 min 0,000 mm 4,0 UV-I 591 W/m 15,5 C 0,0 km/h (0 Bft)
11.09.2016 11:15 22,3 C 22,4 C 67 % 1017,0 hPa 0,0 mm 0,0 km/h (0 Bft) N-NW 348 1 min 0,000 mm 4,0 UV-I 592 W/m 15,9 C 0,0 km/h (0 Bft)
11.09.2016 11:16 22,4 C 22,4 C 64 % 1017,0 hPa 0,0 mm 0,0 km/h (0 Bft) N 355 1 min 0,000 mm 4,0 UV-I 591 W/m 15,2 C 0,0 km/h (0 Bft)
11.09.2016 11:17 22,4 C 22,4 C 68 % 1017,0 hPa 0,0 mm 0,0 km/h (0 Bft) NW 311 1 min 0,000 mm 4,0 UV-I 594 W/m 16,2 C 0,0 km/h (0 Bft)
11.09.2016 11:18 22,4 C 22,4 C 64 % 1017,0 hPa 0,0 mm 0,0 km/h (0 Bft) NW 321 1 min 0,000 mm 4,0 UV-I 594 W/m 15,2 C 0,0 km/h (0 Bft)
11.09.2016 11:19 22,3 C 22,4 C 63 % 1017,0 hPa 0,0 mm 0,0 km/h (0 Bft) W-NW 301 1 min 0,000 mm 4,0 UV-I 596 W/m 14,9 C 0,0 km/h (0 Bft)
11.09.2016 11:20 22,3 C 22,3 C 64 % 1017,0 hPa 0,0 mm 0,0 km/h (0 Bft) W-NW 301 1 min 0,000 mm 4,0 UV-I 596 W/m 15,2 C 0,0 km/h (0 Bft)
11.09.2016 11:21 22,3 C 22,3 C 64 % 1017,0 hPa 0,0 mm 0,0 km/h (0 Bft) W-NW 301 1 min 0,000 mm 4,0 UV-I 598 W/m 15,2 C 0,0 km/h (0 Bft)
11.09.2016 11:22 22,3 C 22,3 C 63 % 1017,0 hPa 0,0 mm 0,0 km/h (0 Bft) W-NW 301 1 min 0,000 mm 4,0 UV-I 599 W/m 14,9 C 0,0 km/h (0 Bft)
11.09.2016 11:23 22,4 C 22,4 C 62 % 1017,0 hPa 0,0 mm 0,0 km/h (0 Bft) W-NW 301 1 min 0,000 mm 4,1 UV-I 601 W/m 14,8 C 0,0 km/h (0 Bft)
11.09.2016 11:24 22,3 C 22,4 C 62 % 1017,1 hPa 0,0 mm 0,0 km/h (0 Bft) W-NW 301 1 min 0,000 mm 4,1 UV-I 603 W/m 14,7 C 0,0 km/h (0 Bft)
11.09.2016 11:25 22,3 C 22,3 C 61 % 1017,0 hPa 0,0 mm 0,0 km/h (0 Bft) W-NW 301 1 min 0,000 mm 4,1 UV-I 608 W/m 14,4 C 0,0 km/h (0 Bft)
11.09.2016 11:26 22,4 C 22,4 C 67 % 1017,0 hPa 0,0 mm 0,0 km/h (0 Bft) W-NW 301 1 min 0,000 mm 4,2 UV-I 610 W/m 16,0 C 0,0 km/h (0 Bft)
11.09.2016 11:27 22,4 C 22,4 C 63 % 1017,0 hPa 0,0 mm 0,0 km/h (0 Bft) W-NW 301 1 min 0,000 mm 4,2 UV-I 612 W/m 15,0 C 0,0 km/h (0 Bft)
11.09.2016 11:28 22,3 C 22,4 C 64 % 1017,0 hPa 0,0 mm 0,0 km/h (0 Bft) W-NW 299 1 min 0,000 mm 4,2 UV-I 615 W/m 15,2 C 0,0 km/h (0 Bft)
11.09.2016 11:29 22,2 C 22,3 C 63 % 1017,0 hPa 0,0 mm 0,0 km/h (0 Bft) NW 304 1 min 0,000 mm 4,2 UV-I 617 W/m 14,8 C 0,0 km/h (0 Bft)
11.09.2016 11:30 22,2 C 22,2 C 66 % 1017,0 hPa 0,0 mm 0,0 km/h (0 Bft) N-NO 13 1 min 0,000 mm 4,2 UV-I 619 W/m 15,5 C 0,0 km/h (0 Bft)
11.09.2016 11:31 22,2 C 22,2 C 68 % 1017,0 hPa 0,0 mm 0,0 km/h (0 Bft) NO 46 1 min 0,000 mm 4,2 UV-I 621 W/m 16,0 C 0,0 km/h (0 Bft)
11.09.2016 11:32 22,2 C 22,3 C 63 % 1017,0 hPa 0,0 mm 0,0 km/h (0 Bft) N-NO 19 1 min 0,000 mm 4,2 UV-I 621 W/m 14,8 C 0,0 km/h (0 Bft)
11.09.2016 11:33 22,1 C 22,2 C 65 % 1017,0 hPa 0,0 mm 0,0 km/h (0 Bft) N-NO 19 1 min 0,000 mm 4,2 UV-I 621 W/m 15,2 C 0,0 km/h (0 Bft)
11.09.2016 11:34 22,1 C 22,1 C 68 % 1017,0 hPa 0,0 mm 0,0 km/h (0 Bft) O-NO 61 1 min 0,000 mm 4,3 UV-I 622 W/m 15,9 C 0,0 km/h (0 Bft)
11.09.2016 11:35 21,9 C 22,1 C 67 % 1017,0 hPa 0,0 mm 0,0 km/h (0 Bft) N-NO 28 1 min 0,000 mm 4,3 UV-I 624 W/m 15,5 C 0,0 km/h (0 Bft)
11.09.2016 11:36 22,1 C 22,1 C 68 % 1017,0 hPa 0,0 mm 0,0 km/h (0 Bft) N-NO 28 1 min 0,000 mm 4,3 UV-I 626 W/m 15,9 C 0,0 km/h (0 Bft)
11.09.2016 11:37 21,9 C 22,1 C 71 % 1017,0 hPa 0,0 mm 0,0 km/h (0 Bft) W-NW 288 1 min 0,000 mm 4,3 UV-I 629 W/m 16,4 C 0,0 km/h (0 Bft)
11.09.2016 11:38 21,9 C 21,9 C 73 % 1016,9 hPa 0,0 mm 0,0 km/h (0 Bft) W-NW 296 1 min 0,000 mm 4,4 UV-I 629 W/m 16,8 C 0,0 km/h (0 Bft)
11.09.2016 11:39 22,1 C 22,1 C 69 % 1017,0 hPa 0,0 mm 0,0 km/h (0 Bft) N-NW 342 1 min 0,000 mm 4,4 UV-I 631 W/m 16,1 C 0,0 km/h (0 Bft)
11.09.2016 11:40 22,3 C 22,3 C 67 % 1017,0 hPa 0,0 mm 0,0 km/h (0 Bft) NW 317 1 min 0,000 mm 4,4 UV-I 631 W/m 15,9 C 0,0 km/h (0 Bft)
11.09.2016 11:41 22,3 C 22,3 C 66 % 1016,9 hPa 0,0 mm 0,0 km/h (0 Bft) W 273 1 min 0,000 mm 4,4 UV-I 631 W/m 15,6 C 0,0 km/h (0 Bft)
11.09.2016 11:42 22,4 C 22,4 C 66 % 1016,9 hPa 0,0 mm 2,8 km/h (1 Bft) NW 323 1 min 0,000 mm 4,4 UV-I 629 W/m 15,7 C 8,0 km/h (2 Bft)
11.09.2016 11:43 22,4 C 22,4 C 65 % 1016,9 hPa 0,0 mm 7,0 km/h (2 Bft) NO 42 1 min 0,000 mm 4,4 UV-I 629 W/m 15,5 C 12,9 km/h (3 Bft)
11.09.2016 11:44 22,6 C 22,6 C 67 % 1016,9 hPa 0,0 mm 9,6 km/h (2 Bft) N 5 1 min 0,000 mm 4,4 UV-I 633 W/m 16,2 C 12,9 km/h (3 Bft)
11.09.2016 11:45 22,6 C 22,6 C 63 % 1017,0 hPa 0,0 mm 6,6 km/h (2 Bft) N 360 1 min 0,000 mm 4,4 UV-I 635 W/m 15,2 C 8,0 km/h (2 Bft)
11.09.2016 11:46 22,5 C 22,6 C 63 % 1017,0 hPa 0,0 mm 5,0 km/h (1 Bft) N 5 1 min 0,000 mm 4,4 UV-I 635 W/m 15,1 C 6,4 km/h (2 Bft)
11.09.2016 11:47 22,4 C 22,5 C 62 % 1017,0 hPa 0,0 mm 4,4 km/h (1 Bft) N 5 1 min 0,000 mm 4,4 UV-I 638 W/m 14,8 C 6,4 km/h (2 Bft)
11.09.2016 11:48 22,3 C 22,4 C 64 % 1017,0 hPa 0,0 mm 4,2 km/h (1 Bft) N 355 1 min 0,000 mm 4,5 UV-I 640 W/m 15,2 C 6,4 km/h (2 Bft)
11.09.2016 11:49 22,4 C 22,4 C 65 % 1017,0 hPa 0,0 mm 5,5 km/h (1 Bft) NO 34 1 min 0,000 mm 4,5 UV-I 642 W/m 15,5 C 6,4 km/h (2 Bft)
11.09.2016 11:50 22,6 C 22,6 C 64 % 1017,0 hPa 0,0 mm 3,2 km/h (1 Bft) N-NO 13 1 min 0,000 mm 4,5 UV-I 642 W/m 15,4 C 6,4 km/h (2 Bft)
11.09.2016 11:51 22,6 C 22,6 C 62 % 1017,0 hPa 0,0 mm 5,7 km/h (1 Bft) N 9 1 min 0,000 mm 4,5 UV-I 642 W/m 14,9 C 8,0 km/h (2 Bft)
11.09.2016 11:52 22,6 C 22,6 C 62 % 1017,0 hPa 0,0 mm 5,5 km/h (1 Bft) N-NO 17 1 min 0,000 mm 4,5 UV-I 643 W/m 14,9 C 8,0 km/h (2 Bft)
11.09.2016 11:53 22,6 C 22,6 C 65 % 1016,9 hPa 0,0 mm 2,3 km/h (1 Bft) NW 313 1 min 0,000 mm 4,5 UV-I 645 W/m 15,7 C 4,8 km/h (1 Bft)
11.09.2016 11:54 22,5 C 22,6 C 62 % 1016,9 hPa 0,0 mm 3,9 km/h (1 Bft) NW 311 1 min 0,000 mm 4,5 UV-I 647 W/m 14,8 C 4,8 km/h (1 Bft)
11.09.2016 11:55 22,4 C 22,6 C 63 % 1016,9 hPa 0,0 mm 3,5 km/h (1 Bft) W-NW 302 1 min 0,000 mm 4,5 UV-I 650 W/m 15,0 C 4,8 km/h (1 Bft)
11.09.2016 11:56 22,5 C 22,5 C 67 % 1017,0 hPa 0,0 mm 4,7 km/h (1 Bft) N-NW 333 1 min 0,000 mm 4,6 UV-I 652 W/m 16,1 C 6,4 km/h (2 Bft)
11.09.2016 11:57 22,7 C 22,7 C 68 % 1016,9 hPa 0,0 mm 6,1 km/h (2 Bft) NW 308 1 min 0,000 mm 4,6 UV-I 654 W/m 16,5 C 9,7 km/h (2 Bft)
11.09.2016 11:58 22,8 C 22,8 C 65 % 1016,9 hPa 0,0 mm 5,2 km/h (1 Bft) NW 313 1 min 0,000 mm 4,6 UV-I 654 W/m 15,9 C 6,4 km/h (2 Bft)
11.09.2016 11:59 22,8 C 22,8 C 67 % 1017,0 hPa 0,0 mm 3,0 km/h (1 Bft) NW 317 1 min 0,000 mm 4,6 UV-I 654 W/m 16,3 C 6,4 km/h (2 Bft)
11.09.2016 12:00 22,8 C 22,8 C 65 % 1017,0 hPa 0,0 mm 1,9 km/h (1 Bft) NW 317 1 min 0,000 mm 4,6 UV-I 652 W/m 15,9 C 3,2 km/h (1 Bft)
11.09.2016 12:01 22,8 C 22,8 C 62 % 1017,0 hPa 0,0 mm 0,5 km/h (0 Bft) NW 317 1 min 0,381 mm 4,6 UV-I 647 W/m 15,1 C 1,6 km/h (1 Bft)
11.09.2016 12:02 22,7 C 22,8 C 64 % 1016,9 hPa 0,0 mm 1,3 km/h (1 Bft) N 360 1 min 0,000 mm 4,6 UV-I 645 W/m 15,5 C 3,2 km/h (1 Bft)
11.09.2016 12:03 22,7 C 22,8 C 65 % 1017,0 hPa 0,0 mm 0,4 km/h (0 Bft) O-NO 65 1 min 0,000 mm 4,6 UV-I 645 W/m 15,8 C 1,6 km/h (1 Bft)
11.09.2016 12:04 22,6 C 22,7 C 66 % 1016,9 hPa 0,0 mm 0,0 km/h (0 Bft) O-NO 66 1 min 0,000 mm 4,6 UV-I 647 W/m 15,9 C 0,0 km/h (0 Bft)
11.09.2016 12:05 22,4 C 22,6 C 66 % 1017,0 hPa 0,0 mm 0,0 km/h (0 Bft) N-NW 327 1 min 0,000 mm 4,6 UV-I 654 W/m 15,7 C 0,0 km/h (0 Bft)
11.09.2016 12:06 22,5 C 22,5 C 63 % 1016,9 hPa 0,0 mm 0,0 km/h (0 Bft) NW 308 1 min 0,000 mm 4,7 UV-I 657 W/m 15,1 C 0,0 km/h (0 Bft)
11.09.2016 12:07 22,6 C 22,6 C 63 % 1017,0 hPa 0,0 mm 0,0 km/h (0 Bft) N-NW 332 1 min 0,000 mm 4,7 UV-I 659 W/m 15,2 C 0,0 km/h (0 Bft)
11.09.2016 12:08 22,7 C 22,7 C 68 % 1016,9 hPa 0,0 mm 0,0 km/h (0 Bft) N-NW 329 1 min 0,000 mm 4,7 UV-I 659 W/m 16,5 C 0,0 km/h (0 Bft)
11.09.2016 12:09 22,7 C 22,8 C 63 % 1016,9 hPa 0,0 mm 0,0 km/h (0 Bft) N-NW 328 1 min 0,000 mm 4,7 UV-I 661 W/m 15,3 C 0,0 km/h (0 Bft)
11.09.2016 12:10 22,8 C 22,8 C 66 % 1017,0 hPa 0,0 mm 0,0 km/h (0 Bft) N 11 1 min 0,000 mm 4,7 UV-I 661 W/m 16,1 C 0,0 km/h (0 Bft)
11.09.2016 12:11 22,9 C 22,9 C 62 % 1016,9 hPa 0,0 mm 0,0 km/h (0 Bft) N 5 1 min 0,000 mm 4,7 UV-I 661 W/m 15,2 C 0,0 km/h (0 Bft)
11.09.2016 12:12 22,9 C 22,9 C 61 % 1016,9 hPa 0,0 mm 0,0 km/h (0 Bft) N-NO 23 1 min 0,000 mm 4,7 UV-I 663 W/m 15,0 C 0,0 km/h (0 Bft)
11.09.2016 12:13 22,8 C 22,9 C 61 % 1016,9 hPa 0,0 mm 0,0 km/h (0 Bft) N-NO 25 1 min 0,000 mm 4,8 UV-I 664 W/m 14,9 C 0,0 km/h (0 Bft)
11.09.2016 12:14 22,7 C 22,8 C 61 % 1016,9 hPa 0,0 mm 0,0 km/h (0 Bft) NO 55 1 min 0,000 mm 4,8 UV-I 664 W/m 14,8 C 0,0 km/h (0 Bft)
11.09.2016 12:15 22,6 C 22,7 C 62 % 1016,9 hPa 0,0 mm 0,0 km/h (0 Bft) NO 46 1 min 0,000 mm 4,8 UV-I 666 W/m 14,9 C 0,0 km/h (0 Bft)
11.09.2016 12:16 22,5 C 22,6 C 64 % 1016,9 hPa 0,0 mm 0,0 km/h (0 Bft) O 101 1 min 0,000 mm 4,8 UV-I 666 W/m 15,3 C 0,0 km/h (0 Bft)
11.09.2016 12:17 22,3 C 22,5 C 67 % 1016,9 hPa 0,0 mm 0,0 km/h (0 Bft) O 101 1 min 0,000 mm 4,8 UV-I 666 W/m 15,9 C 0,0 km/h (0 Bft)
11.09.2016 12:18 22,2 C 22,3 C 67 % 1016,9 hPa 0,0 mm 0,0 km/h (0 Bft) O 101 1 min 0,000 mm 4,8 UV-I 670 W/m 15,8 C 0,0 km/h (0 Bft)
11.09.2016 12:19 22,1 C 22,2 C 66 % 1016,9 hPa 0,0 mm 0,0 km/h (0 Bft) O 101 1 min 0,000 mm 4,8 UV-I 670 W/m 15,4 C 0,0 km/h (0 Bft)
11.09.2016 12:20 22,1 C 22,2 C 67 % 1016,9 hPa 0,0 mm 0,0 km/h (0 Bft) O-NO 75 1 min 0,000 mm 4,8 UV-I 671 W/m 15,7 C 0,0 km/h (0 Bft)
11.09.2016 12:21 22,2 C 22,2 C 75 % 1016,9 hPa 0,0 mm 0,0 km/h (0 Bft) O-NO 75 1 min 0,000 mm 4,8 UV-I 671 W/m 17,5 C 0,0 km/h (0 Bft)
11.09.2016 12:22 22,2 C 22,2 C 64 % 1016,9 hPa 0,0 mm 0,0 km/h (0 Bft) O-NO 75 1 min 0,000 mm 4,8 UV-I 671 W/m 15,1 C 0,0 km/h (0 Bft)
11.09.2016 12:23 22,3 C 22,3 C 67 % 1016,9 hPa 0,0 mm 0,0 km/h (0 Bft) O-NO 75 1 min 0,000 mm 4,8 UV-I 668 W/m 15,9 C 0,0 km/h (0 Bft)
11.09.2016 12:24 22,4 C 22,4 C 65 % 1016,9 hPa 0,0 mm 0,0 km/h (0 Bft) O-NO 75 1 min 0,000 mm 4,8 UV-I 671 W/m 15,5 C 0,0 km/h (0 Bft)
11.09.2016 12:25 22,4 C 22,5 C 67 % 1016,9 hPa 0,0 mm 0,0 km/h (0 Bft) O-NO 75 1 min 0,000 mm 4,9 UV-I 675 W/m 16,0 C 0,0 km/h (0 Bft)
11.09.2016 12:26 22,4 C 22,4 C 64 % 1016,8 hPa 0,0 mm 0,0 km/h (0 Bft) O-NO 75 1 min 0,000 mm 4,9 UV-I 677 W/m 15,2 C 0,0 km/h (0 Bft)
11.09.2016 12:27 22,4 C 22,4 C 66 % 1016,9 hPa 0,0 mm 0,0 km/h (0 Bft) O-SO 108 1 min 0,000 mm 4,9 UV-I 677 W/m 15,7 C 0,0 km/h (0 Bft)
11.09.2016 12:28 22,4 C 22,4 C 66 % 1016,8 hPa 0,0 mm 0,0 km/h (0 Bft) O-NO 74 1 min 0,000 mm 4,9 UV-I 677 W/m 15,7 C 0,0 km/h (0 Bft)
11.09.2016 12:29 22,4 C 22,5 C 68 % 1016,8 hPa 0,0 mm 0,0 km/h (0 Bft) O-SO 110 1 min 0,000 mm 4,9 UV-I 680 W/m 16,2 C 0,0 km/h (0 Bft)
11.09.2016 12:30 22,4 C 22,4 C 64 % 1016,9 hPa 0,0 mm 0,0 km/h (0 Bft) O-SO 110 1 min 0,000 mm 4,9 UV-I 680 W/m 15,2 C 0,0 km/h (0 Bft)
11.09.2016 12:31 22,5 C 22,5 C 64 % 1016,9 hPa 0,0 mm 0,0 km/h (0 Bft) O-NO 68 1 min 0,000 mm 4,9 UV-I 680 W/m 15,3 C 0,0 km/h (0 Bft)
11.09.2016 12:32 22,7 C 22,7 C 65 % 1016,9 hPa 0,0 mm 0,0 km/h (0 Bft) O-NO 68 1 min 0,000 mm 4,9 UV-I 675 W/m 15,8 C 0,0 km/h (0 Bft)
11.09.2016 12:33 22,6 C 22,7 C 68 % 1016,9 hPa 0,0 mm 0,0 km/h (0 Bft) O-NO 68 1 min 0,000 mm 4,9 UV-I 675 W/m 16,4 C 0,0 km/h (0 Bft)
11.09.2016 12:34 22,4 C 22,6 C 65 % 1016,9 hPa 0,0 mm 0,0 km/h (0 Bft) O 86 1 min 0,000 mm 4,9 UV-I 680 W/m 15,5 C 0,0 km/h (0 Bft)
11.09.2016 12:35 22,5 C 22,5 C 66 % 1016,9 hPa 0,0 mm 0,0 km/h (0 Bft) O 86 1 min 0,000 mm 4,9 UV-I 691 W/m 15,8 C 0,0 km/h (0 Bft)
11.09.2016 12:36 22,5 C 22,5 C 67 % 1016,9 hPa 0,0 mm 0,0 km/h (0 Bft) O 86 1 min 0,000 mm 5,0 UV-I 698 W/m 16,1 C 0,0 km/h (0 Bft)
11.09.2016 12:37 22,6 C 22,6 C 68 % 1016,9 hPa 0,0 mm 0,0 km/h (0 Bft) O 86 1 min 0,000 mm 5,0 UV-I 703 W/m 16,4 C 0,0 km/h (0 Bft)
11.09.2016 12:38 22,6 C 22,6 C 67 % 1016,9 hPa 0,0 mm 0,0 km/h (0 Bft) O 86 1 min 0,000 mm 5,0 UV-I 705 W/m 16,2 C 0,0 km/h (0 Bft)
11.09.2016 12:39 22,5 C 22,6 C 67 % 1016,9 hPa 0,0 mm 0,0 km/h (0 Bft) O-NO 75 1 min 0,000 mm 5,0 UV-I 705 W/m 16,1 C 0,0 km/h (0 Bft)
11.09.2016 12:40 22,4 C 22,6 C 67 % 1016,8 hPa 0,0 mm 2,5 km/h (1 Bft) O-NO 72 1 min 0,000 mm 5,0 UV-I 705 W/m 16,0 C 8,0 km/h (2 Bft)
11.09.2016 12:41 22,4 C 22,4 C 70 % 1016,8 hPa 0,0 mm 5,0 km/h (1 Bft) O-NO 67 1 min 0,000 mm 5,0 UV-I 700 W/m 16,7 C 8,0 km/h (2 Bft)
11.09.2016 12:42 22,6 C 22,6 C 65 % 1016,8 hPa 0,0 mm 3,0 km/h (1 Bft) O-NO 65 1 min 0,000 mm 5,0 UV-I 698 W/m 15,7 C 4,8 km/h (1 Bft)
11.09.2016 12:43 22,7 C 22,7 C 66 % 1016,8 hPa 0,0 mm 1,5 km/h (1 Bft) O 90 1 min 0,000 mm 5,0 UV-I 703 W/m 16,0 C 4,8 km/h (1 Bft)
11.09.2016 12:44 22,7 C 22,7 C 62 % 1016,8 hPa 0,0 mm 2,1 km/h (1 Bft) O 91 1 min 0,000 mm 5,0 UV-I 707 W/m 15,0 C 4,8 km/h (1 Bft)
11.09.2016 12:45 22,8 C 22,8 C 62 % 1016,8 hPa 0,0 mm 1,2 km/h (1 Bft) O 91 1 min 0,000 mm 5,1 UV-I 708 W/m 15,1 C 3,2 km/h (1 Bft)
11.09.2016 12:46 22,8 C 22,8 C 64 % 1016,8 hPa 0,0 mm 2,7 km/h (1 Bft) SW 229 1 min 0,000 mm 5,1 UV-I 710 W/m 15,6 C 3,2 km/h (1 Bft)
11.09.2016 12:47 22,9 C 22,9 C 63 % 1016,8 hPa 0,0 mm 3,3 km/h (1 Bft) W-SW 239 1 min 0,000 mm 5,1 UV-I 714 W/m 15,5 C 6,4 km/h (2 Bft)
11.09.2016 12:48 23,1 C 23,1 C 69 % 1016,8 hPa 0,0 mm 5,2 km/h (1 Bft) SW 224 1 min 0,000 mm 5,1 UV-I 715 W/m 17,1 C 6,4 km/h (2 Bft)
11.09.2016 12:49 23,2 C 23,2 C 66 % 1016,8 hPa 0,0 mm 3,8 km/h (1 Bft) SW 234 1 min 0,000 mm 5,1 UV-I 722 W/m 16,5 C 6,4 km/h (2 Bft)
11.09.2016 12:50 23,3 C 23,3 C 69 % 1016,8 hPa 0,0 mm 4,6 km/h (1 Bft) W-SW 243 1 min 0,000 mm 5,1 UV-I 726 W/m 17,3 C 6,4 km/h (2 Bft)
11.09.2016 12:51 23,4 C 23,4 C 67 % 1016,8 hPa 0,0 mm 2,7 km/h (1 Bft) W-SW 243 1 min 0,000 mm 5,1 UV-I 722 W/m 16,9 C 4,8 km/h (1 Bft)
11.09.2016 12:52 23,4 C 23,4 C 66 % 1016,8 hPa 0,0 mm 3,5 km/h (1 Bft) W-SW 248 1 min 0,000 mm 5,0 UV-I 717 W/m 16,7 C 4,8 km/h (1 Bft)
11.09.2016 12:53 23,4 C 23,5 C 66 % 1016,8 hPa 0,0 mm 2,7 km/h (1 Bft) W 275 1 min 0,000 mm 5,1 UV-I 715 W/m 16,7 C 4,8 km/h (1 Bft)
11.09.2016 12:54 23,4 C 23,4 C 65 % 1016,9 hPa 0,0 mm 4,3 km/h (1 Bft) W 265 1 min 0,000 mm 5,1 UV-I 721 W/m 16,4 C 6,4 km/h (2 Bft)
11.09.2016 12:55 23,4 C 23,4 C 66 % 1016,8 hPa 0,0 mm 2,3 km/h (1 Bft) W 264 1 min 0,000 mm 5,1 UV-I 728 W/m 16,7 C 4,8 km/h (1 Bft)
11.09.2016 12:56 23,4 C 23,4 C 67 % 1016,8 hPa 0,0 mm 0,7 km/h (0 Bft) W-NW 286 1 min 0,000 mm 5,1 UV-I 733 W/m 16,9 C 3,2 km/h (1 Bft)
11.09.2016 12:57 23,6 C 23,6 C 65 % 1016,8 hPa 0,0 mm 3,0 km/h (1 Bft) W-NW 286 1 min 0,000 mm 5,1 UV-I 733 W/m 16,6 C 4,8 km/h (1 Bft)
11.09.2016 12:58 23,6 C 23,7 C 64 % 1016,8 hPa 0,0 mm 2,5 km/h (1 Bft) W-NW 290 1 min 0,000 mm 5,1 UV-I 733 W/m 16,4 C 3,2 km/h (1 Bft)
11.09.2016 12:59 23,7 C 23,7 C 64 % 1016,8 hPa 0,0 mm 2,7 km/h (1 Bft) N-NW 339 1 min 0,000 mm 5,1 UV-I 737 W/m 16,5 C 4,8 km/h (1 Bft)
11.09.2016 13:00 23,8 C 23,8 C 66 % 1016,8 hPa 0,0 mm 4,1 km/h (1 Bft) N 355 1 min 0,000 mm 5,1 UV-I 742 W/m 17,1 C 4,8 km/h (1 Bft)
11.09.2016 13:01 23,9 C 23,9 C 62 % 1016,8 hPa 0,0 mm 1,8 km/h (1 Bft) N 355 1 min 0,432 mm 5,1 UV-I 747 W/m 16,2 C 3,2 km/h (1 Bft)
11.09.2016 13:02 24,0 C 24,0 C 63 % 1016,8 hPa 0,0 mm 1,0 km/h (0 Bft) N 360 1 min 0,000 mm 5,1 UV-I 751 W/m 16,5 C 1,6 km/h (1 Bft)
11.09.2016 13:03 23,9 C 24,0 C 63 % 1016,8 hPa 0,0 mm 4,8 km/h (1 Bft) NW 310 1 min 0,000 mm 5,1 UV-I 754 W/m 16,4 C 8,0 km/h (2 Bft)
11.09.2016 13:04 23,9 C 23,9 C 65 % 1016,8 hPa 0,0 mm 5,0 km/h (1 Bft) W-NW 296 1 min 0,000 mm 3,4 UV-I 754 W/m 16,9 C 6,4 km/h (2 Bft)
11.09.2016 13:05 23,9 C 23,9 C 64 % 1016,8 hPa 0,0 mm 6,0 km/h (2 Bft) NW 313 1 min 0,000 mm 2,8 UV-I 754 W/m 16,7 C 9,7 km/h (2 Bft)
11.09.2016 13:06 23,8 C 23,9 C 64 % 1016,8 hPa 0,0 mm 3,3 km/h (1 Bft) W-NW 302 0 min 0,000 mm 2,6 UV-I 144 W/m 16,6 C 4,8 km/h (1 Bft)
11.09.2016 13:07 23,6 C 23,8 C 62 % 1016,7 hPa 0,0 mm 4,0 km/h (1 Bft) NW 313 0 min 0,000 mm 2,6 UV-I 144 W/m 15,9 C 8,0 km/h (2 Bft)
11.09.2016 13:08 23,3 C 23,6 C 63 % 1016,8 hPa 0,0 mm 8,0 km/h (2 Bft) N 360 0 min 0,000 mm 2,5 UV-I 134 W/m 15,9 C 12,9 km/h (3 Bft)
11.09.2016 13:09 23,2 C 23,3 C 63 % 1016,7 hPa 0,0 mm 7,0 km/h (2 Bft) N-NW 331 0 min 0,000 mm 2,6 UV-I 148 W/m 15,8 C 11,3 km/h (2 Bft)
11.09.2016 13:10 23,2 C 23,2 C 64 % 1016,8 hPa 0,0 mm 4,1 km/h (1 Bft) N 351 0 min 0,000 mm 2,7 UV-I 202 W/m 16,0 C 6,4 km/h (2 Bft)
11.09.2016 13:11 23,1 C 23,2 C 64 % 1016,8 hPa 0,0 mm 4,0 km/h (1 Bft) W-SW 258 0 min 0,000 mm 2,9 UV-I 206 W/m 15,9 C 4,8 km/h (1 Bft)
11.09.2016 13:12 23,0 C 23,1 C 66 % 1016,7 hPa 0,0 mm 5,0 km/h (1 Bft) NW 311 0 min 0,000 mm 2,8 UV-I 193 W/m 16,3 C 8,0 km/h (2 Bft)
11.09.2016 13:13 22,8 C 23,0 C 64 % 1016,8 hPa 0,0 mm 4,2 km/h (1 Bft) W 279 0 min 0,000 mm 2,8 UV-I 183 W/m 15,6 C 6,4 km/h (2 Bft)
11.09.2016 13:14 22,8 C 22,8 C 64 % 1016,8 hPa 0,0 mm 3,0 km/h (1 Bft) NW 307 0 min 0,000 mm 2,9 UV-I 236 W/m 15,6 C 4,8 km/h (1 Bft)
11.09.2016 13:15 22,7 C 22,8 C 66 % 1016,8 hPa 0,0 mm 3,0 km/h (1 Bft) NW 307 0 min 0,000 mm 4,0 UV-I 236 W/m 16,0 C 3,2 km/h (1 Bft)
11.09.2016 13:16 22,8 C 22,8 C 70 % 1016,8 hPa 0,0 mm 1,9 km/h (1 Bft) NW 307 0 min 0,000 mm 4,9 UV-I 236 W/m 17,0 C 3,2 km/h (1 Bft)
11.09.2016 13:17 23,0 C 23,0 C 71 % 1016,8 hPa 0,0 mm 3,6 km/h (1 Bft) N 355 1 min 0,000 mm 3,7 UV-I 803 W/m 17,4 C 6,4 km/h (2 Bft)
11.09.2016 13:18 23,2 C 23,2 C 66 % 1016,7 hPa 0,0 mm 4,0 km/h (1 Bft) N 11 1 min 0,000 mm 3,4 UV-I 803 W/m 16,5 C 6,4 km/h (2 Bft)
11.09.2016 13:19 23,2 C 23,2 C 64 % 1016,7 hPa 0,0 mm 6,1 km/h (2 Bft) N-NW 327 0 min 0,000 mm 4,2 UV-I 294 W/m 16,0 C 8,0 km/h (2 Bft)
11.09.2016 13:20 23,3 C 23,3 C 64 % 1016,7 hPa 0,0 mm 3,2 km/h (1 Bft) N 5 0 min 0,000 mm 5,0 UV-I 294 W/m 16,1 C 4,8 km/h (1 Bft)
11.09.2016 13:21 23,3 C 23,3 C 64 % 1016,7 hPa 0,0 mm 3,4 km/h (1 Bft) N-NO 30 1 min 0,000 mm 5,1 UV-I 756 W/m 16,1 C 6,4 km/h (2 Bft)
11.09.2016 13:22 23,4 C 23,4 C 64 % 1016,7 hPa 0,0 mm 4,3 km/h (1 Bft) N 355 1 min 0,000 mm 5,1 UV-I 749 W/m 16,2 C 6,4 km/h (2 Bft)
11.09.2016 13:23 23,6 C 23,6 C 65 % 1016,6 hPa 0,0 mm 4,3 km/h (1 Bft) N-NO 15 1 min 0,000 mm 5,1 UV-I 751 W/m 16,6 C 4,8 km/h (1 Bft)
11.09.2016 13:24 23,7 C 23,7 C 65 % 1016,6 hPa 0,0 mm 4,1 km/h (1 Bft) NO 39 1 min 0,000 mm 5,1 UV-I 758 W/m 16,7 C 6,4 km/h (2 Bft)
11.09.2016 13:25 23,7 C 23,7 C 62 % 1016,6 hPa 0,0 mm 1,7 km/h (1 Bft) O-NO 74 1 min 0,000 mm 5,1 UV-I 754 W/m 16,0 C 4,8 km/h (1 Bft)
11.09.2016 13:26 23,6 C 23,7 C 61 % 1016,6 hPa 0,0 mm 4,8 km/h (1 Bft) O-NO 68 1 min 0,000 mm 5,1 UV-I 766 W/m 15,6 C 6,4 km/h (2 Bft)
11.09.2016 13:27 23,5 C 23,6 C 64 % 1016,6 hPa 0,0 mm 3,4 km/h (1 Bft) N 355 1 min 0,000 mm 5,0 UV-I 765 W/m 16,3 C 4,8 km/h (1 Bft)
11.09.2016 13:28 23,6 C 23,6 C 71 % 1016,6 hPa 0,0 mm 3,1 km/h (1 Bft) NO 49 1 min 0,000 mm 3,5 UV-I 733 W/m 18,0 C 4,8 km/h (1 Bft)
11.09.2016 13:29 23,6 C 23,7 C 65 % 1016,6 hPa 0,0 mm 4,2 km/h (1 Bft) O-NO 71 0 min 0,000 mm 3,1 UV-I 199 W/m 16,6 C 6,4 km/h (2 Bft)
11.09.2016 13:30 23,4 C 23,6 C 63 % 1016,6 hPa 0,0 mm 4,4 km/h (1 Bft) O-NO 61 0 min 0,000 mm 4,9 UV-I 199 W/m 15,9 C 6,4 km/h (2 Bft)
11.09.2016 13:31 23,2 C 23,4 C 65 % 1016,6 hPa 0,0 mm 3,8 km/h (1 Bft) O-NO 57 0 min 0,000 mm 3,6 UV-I 199 W/m 16,2 C 4,8 km/h (1 Bft)
11.09.2016 13:32 23,1 C 23,2 C 64 % 1016,6 hPa 0,0 mm 1,1 km/h (1 Bft) O-NO 57 0 min 0,000 mm 3,2 UV-I 199 W/m 15,9 C 3,2 km/h (1 Bft)
11.09.2016 13:33 22,9 C 23,1 C 65 % 1016,5 hPa 0,0 mm 2,3 km/h (1 Bft) N 355 1 min 0,000 mm 3,9 UV-I 501 W/m 16,0 C 3,2 km/h (1 Bft)
11.09.2016 13:34 22,8 C 22,9 C 70 % 1016,5 hPa 0,0 mm 2,1 km/h (1 Bft) O-NO 75 1 min 0,000 mm 4,3 UV-I 501 W/m 17,0 C 3,2 km/h (1 Bft)
11.09.2016 13:35 22,7 C 22,8 C 69 % 1016,6 hPa 0,0 mm 0,6 km/h (0 Bft) O-NO 75 1 min 0,000 mm 5,2 UV-I 740 W/m 16,7 C 3,2 km/h (1 Bft)
11.09.2016 13:36 22,7 C 22,7 C 68 % 1016,5 hPa 0,0 mm 1,1 km/h (1 Bft) O-NO 75 1 min 0,000 mm 5,2 UV-I 747 W/m 16,5 C 1,6 km/h (1 Bft)
11.09.2016 13:37 22,8 C 22,8 C 67 % 1016,5 hPa 0,0 mm 0,1 km/h (0 Bft) O-NO 75 1 min 0,000 mm 5,2 UV-I 752 W/m 16,3 C 1,6 km/h (1 Bft)
11.09.2016 13:38 22,9 C 22,9 C 66 % 1016,5 hPa 0,0 mm 1,1 km/h (1 Bft) O-NO 75 1 min 0,000 mm 5,1 UV-I 754 W/m 16,2 C 1,6 km/h (1 Bft)
11.09.2016 13:39 23,0 C 23,0 C 65 % 1016,5 hPa 0,0 mm 3,8 km/h (1 Bft) N 355 1 min 0,000 mm 5,1 UV-I 759 W/m 16,1 C 6,4 km/h (2 Bft)
11.09.2016 13:40 23,1 C 23,1 C 69 % 1016,6 hPa 0,0 mm 5,0 km/h (1 Bft) O-NO 61 1 min 0,000 mm 5,1 UV-I 770 W/m 17,1 C 8,0 km/h (2 Bft)
11.09.2016 13:41 23,2 C 23,2 C 64 % 1016,5 hPa 0,0 mm 6,7 km/h (2 Bft) NO 52 1 min 0,000 mm 5,1 UV-I 777 W/m 16,0 C 8,0 km/h (2 Bft)
11.09.2016 13:42 23,3 C 23,3 C 63 % 1016,5 hPa 0,0 mm 3,4 km/h (1 Bft) NO 48 1 min 0,000 mm 5,2 UV-I 782 W/m 15,9 C 6,4 km/h (2 Bft)
11.09.2016 13:43 23,5 C 23,5 C 68 % 1016,5 hPa 0,0 mm 0,7 km/h (0 Bft) NO 48 1 min 0,000 mm 5,1 UV-I 780 W/m 17,2 C 3,2 km/h (1 Bft)
11.09.2016 13:44 23,7 C 23,7 C 64 % 1016,5 hPa 0,0 mm 3,3 km/h (1 Bft) N 355 1 min 0,000 mm 5,0 UV-I 775 W/m 16,5 C 6,4 km/h (2 Bft)
11.09.2016 13:45 23,9 C 23,9 C 62 % 1016,5 hPa 0,0 mm 5,0 km/h (1 Bft) N 5 1 min 0,000 mm 5,0 UV-I 780 W/m 16,2 C 6,4 km/h (2 Bft)
11.09.2016 13:46 24,1 C 24,1 C 65 % 1016,5 hPa 0,0 mm 4,5 km/h (1 Bft) NO 37 1 min 0,000 mm 4,9 UV-I 780 W/m 17,1 C 6,4 km/h (2 Bft)
11.09.2016 13:47 24,0 C 24,1 C 59 % 1016,5 hPa 0,0 mm 2,7 km/h (1 Bft) N-NO 26 1 min 0,000 mm 4,7 UV-I 775 W/m 15,5 C 6,4 km/h (2 Bft)
11.09.2016 13:48 23,9 C 24,0 C 60 % 1016,5 hPa 0,0 mm 3,4 km/h (1 Bft) N-NO 20 1 min 0,000 mm 4,8 UV-I 800 W/m 15,7 C 6,4 km/h (2 Bft)
11.09.2016 13:49 23,9 C 23,9 C 60 % 1016,5 hPa 0,0 mm 2,7 km/h (1 Bft) O 96 1 min 0,000 mm 4,6 UV-I 786 W/m 15,7 C 4,8 km/h (1 Bft)
11.09.2016 13:50 23,8 C 23,9 C 60 % 1016,5 hPa 0,0 mm 1,4 km/h (1 Bft) O-SO 109 1 min 0,000 mm 3,1 UV-I 786 W/m 15,6 C 3,2 km/h (1 Bft)
11.09.2016 13:51 23,7 C 23,8 C 63 % 1016,5 hPa 0,0 mm 5,6 km/h (1 Bft) O-NO 71 0 min 0,000 mm 2,9 UV-I 216 W/m 16,2 C 8,0 km/h (2 Bft)
11.09.2016 13:52 23,6 C 23,7 C 62 % 1016,4 hPa 0,0 mm 4,6 km/h (1 Bft) O-NO 75 0 min 0,000 mm 2,8 UV-I 218 W/m 15,9 C 6,4 km/h (2 Bft)
11.09.2016 13:53 23,4 C 23,6 C 63 % 1016,4 hPa 0,0 mm 5,8 km/h (2 Bft) O-NO 59 0 min 0,000 mm 2,9 UV-I 230 W/m 15,9 C 8,0 km/h (2 Bft)
11.09.2016 13:54 23,3 C 23,4 C 63 % 1016,4 hPa 0,0 mm 2,6 km/h (1 Bft) O-NO 66 0 min 0,000 mm 3,0 UV-I 243 W/m 15,9 C 6,4 km/h (2 Bft)
11.09.2016 13:55 23,3 C 23,3 C 63 % 1016,4 hPa 0,0 mm 3,7 km/h (1 Bft) O-NO 76 0 min 0,000 mm 3,0 UV-I 234 W/m 15,9 C 6,4 km/h (2 Bft)
11.09.2016 13:56 23,2 C 23,3 C 67 % 1016,4 hPa 0,0 mm 4,7 km/h (1 Bft) O 80 0 min 0,000 mm 3,1 UV-I 230 W/m 16,7 C 6,4 km/h (2 Bft)
11.09.2016 13:57 23,1 C 23,2 C 68 % 1016,4 hPa 0,0 mm 2,3 km/h (1 Bft) O 80 0 min 0,000 mm 4,9 UV-I 230 W/m 16,9 C 4,8 km/h (1 Bft)
11.09.2016 13:58 23,1 C 23,1 C 68 % 1016,4 hPa 0,0 mm 2,4 km/h (1 Bft) O-NO 66 0 min 0,000 mm 3,1 UV-I 234 W/m 16,9 C 6,4 km/h (2 Bft)
11.09.2016 13:59 23,1 C 23,1 C 65 % 1016,4 hPa 0,0 mm 2,7 km/h (1 Bft) NO 55 0 min 0,000 mm 3,0 UV-I 234 W/m 16,2 C 4,8 km/h (1 Bft)
11.09.2016 14:00 23,2 C 23,2 C 66 % 1016,4 hPa 0,0 mm 6,5 km/h (2 Bft) NO 54 0 min 0,000 mm 2,7 UV-I 234 W/m 16,5 C 11,3 km/h (2 Bft)
11.09.2016 14:01 23,1 C 23,2 C 66 % 1016,4 hPa 0,0 mm 6,2 km/h (2 Bft) O-NO 62 0 min 0,330 mm 2,7 UV-I 160 W/m 16,4 C 9,7 km/h (2 Bft)
11.09.2016 14:02 23,2 C 23,2 C 66 % 1016,4 hPa 0,0 mm 3,2 km/h (1 Bft) NO 44 0 min 0,000 mm 3,0 UV-I 160 W/m 16,5 C 6,4 km/h (2 Bft)
11.09.2016 14:03 23,1 C 23,2 C 65 % 1016,4 hPa 0,0 mm 3,2 km/h (1 Bft) N 5 0 min 0,000 mm 2,5 UV-I 118 W/m 16,2 C 4,8 km/h (1 Bft)
11.09.2016 14:04 23,1 C 23,1 C 65 % 1016,4 hPa 0,0 mm 3,5 km/h (1 Bft) NO 34 0 min 0,000 mm 2,4 UV-I 125 W/m 16,2 C 4,8 km/h (1 Bft)
11.09.2016 14:05 23,0 C 23,1 C 65 % 1016,4 hPa 0,0 mm 5,6 km/h (1 Bft) O-NO 72 0 min 0,000 mm 2,4 UV-I 142 W/m 16,1 C 8,0 km/h (2 Bft)
11.09.2016 14:06 22,9 C 23,0 C 64 % 1016,4 hPa 0,0 mm 3,7 km/h (1 Bft) NO 48 0 min 0,000 mm 2,4 UV-I 120 W/m 15,7 C 4,8 km/h (1 Bft)
11.09.2016 14:07 22,8 C 22,9 C 65 % 1016,3 hPa 0,0 mm 2,8 km/h (1 Bft) N-NO 24 0 min 0,000 mm 2,3 UV-I 114 W/m 15,9 C 4,8 km/h (1 Bft)
11.09.2016 14:08 22,8 C 22,8 C 67 % 1016,4 hPa 0,0 mm 1,3 km/h (1 Bft) NO 50 0 min 0,000 mm 2,3 UV-I 111 W/m 16,3 C 3,2 km/h (1 Bft)
11.09.2016 14:09 22,7 C 22,8 C 67 % 1016,4 hPa 0,0 mm 1,3 km/h (1 Bft) O-NO 67 0 min 0,000 mm 2,4 UV-I 113 W/m 16,2 C 4,8 km/h (1 Bft)
11.09.2016 14:10 22,5 C 22,7 C 68 % 1016,4 hPa 0,0 mm 2,3 km/h (1 Bft) O-NO 67 0 min 0,000 mm 4,0 UV-I 113 W/m 16,3 C 4,8 km/h (1 Bft)
11.09.2016 14:11 22,4 C 22,5 C 65 % 1016,3 hPa 0,0 mm 2,4 km/h (1 Bft) O-NO 63 0 min 0,000 mm 2,4 UV-I 113 W/m 15,5 C 3,2 km/h (1 Bft)
11.09.2016 14:12 22,4 C 22,4 C 64 % 1016,4 hPa 0,0 mm 0,7 km/h (0 Bft) O-NO 63 0 min 0,000 mm 2,4 UV-I 113 W/m 15,2 C 1,6 km/h (1 Bft)
11.09.2016 14:13 22,4 C 22,4 C 67 % 1016,4 hPa 0,0 mm 0,6 km/h (0 Bft) O-NO 63 0 min 0,000 mm 2,4 UV-I 132 W/m 16,0 C 3,2 km/h (1 Bft)
11.09.2016 14:14 22,3 C 22,4 C 69 % 1016,4 hPa 0,0 mm 3,0 km/h (1 Bft) O-NO 78 0 min 0,000 mm 2,3 UV-I 105 W/m 16,3 C 4,8 km/h (1 Bft)
11.09.2016 14:15 22,1 C 22,3 C 70 % 1016,4 hPa 0,0 mm 1,1 km/h (1 Bft) O-NO 78 0 min 0,000 mm 2,1 UV-I 107 W/m 16,4 C 1,6 km/h (1 Bft)
11.09.2016 14:16 21,9 C 22,1 C 69 % 1016,4 hPa 0,0 mm 3,2 km/h (1 Bft) O 80 0 min 0,000 mm 2,1 UV-I 111 W/m 15,9 C 3,2 km/h (1 Bft)
11.09.2016 14:17 21,8 C 21,9 C 69 % 1016,4 hPa 0,0 mm 3,2 km/h (1 Bft) O 80 0 min 0,000 mm 2,1 UV-I 120 W/m 15,9 C 4,8 km/h (1 Bft)
11.09.2016 14:18 21,7 C 21,8 C 69 % 1016,4 hPa 0,0 mm 2,1 km/h (1 Bft) O 80 0 min 0,000 mm 2,2 UV-I 141 W/m 15,8 C 3,2 km/h (1 Bft)
11.09.2016 14:19 21,7 C 21,7 C 72 % 1016,4 hPa 0,0 mm 2,0 km/h (1 Bft) O 80 0 min 0,000 mm 4,0 UV-I 141 W/m 16,4 C 3,2 km/h (1 Bft)
11.09.2016 14:20 21,8 C 21,8 C 75 % 1016,4 hPa 0,0 mm 0,4 km/h (0 Bft) O 80 1 min 0,000 mm 3,2 UV-I 700 W/m 17,2 C 1,6 km/h (1 Bft)
11.09.2016 14:21 21,9 C 21,9 C 72 % 1016,3 hPa 0,0 mm 1,9 km/h (1 Bft) O 80 0 min 0,000 mm 2,0 UV-I 165 W/m 16,6 C 3,2 km/h (1 Bft)
11.09.2016 14:22 21,9 C 22,0 C 70 % 1016,3 hPa 0,0 mm 3,4 km/h (1 Bft) O 100 0 min 0,000 mm 2,2 UV-I 218 W/m 16,2 C 4,8 km/h (1 Bft)
11.09.2016 14:23 22,1 C 22,1 C 69 % 1016,3 hPa 0,0 mm 3,9 km/h (1 Bft) O-NO 65 0 min 0,000 mm 2,8 UV-I 272 W/m 16,1 C 4,8 km/h (1 Bft)
11.09.2016 14:24 22,0 C 22,1 C 70 % 1016,3 hPa 0,0 mm 2,5 km/h (1 Bft) O 90 0 min 0,000 mm 4,0 UV-I 272 W/m 16,3 C 3,2 km/h (1 Bft)
11.09.2016 14:25 22,2 C 22,2 C 69 % 1016,3 hPa 0,0 mm 4,9 km/h (1 Bft) O 84 1 min 0,000 mm 4,1 UV-I 719 W/m 16,2 C 8,0 km/h (2 Bft)
11.09.2016 14:26 22,5 C 22,5 C 71 % 1016,3 hPa 0,0 mm 4,5 km/h (1 Bft) NO 48 1 min 0,000 mm 3,9 UV-I 724 W/m 17,0 C 6,4 km/h (2 Bft)
11.09.2016 14:27 22,8 C 22,8 C 70 % 1016,2 hPa 0,0 mm 3,9 km/h (1 Bft) N 9 1 min 0,000 mm 4,0 UV-I 733 W/m 17,0 C 6,4 km/h (2 Bft)
11.09.2016 14:28 23,1 C 23,1 C 70 % 1016,2 hPa 0,0 mm 3,5 km/h (1 Bft) O-NO 69 1 min 0,000 mm 3,9 UV-I 715 W/m 17,3 C 9,7 km/h (2 Bft)
11.09.2016 14:29 23,3 C 23,3 C 67 % 1016,2 hPa 0,0 mm 5,2 km/h (1 Bft) O-NO 64 1 min 0,000 mm 2,9 UV-I 715 W/m 16,8 C 6,4 km/h (2 Bft)
11.09.2016 14:30 23,3 C 23,3 C 66 % 1016,2 hPa 0,0 mm 4,4 km/h (1 Bft) O 82 1 min 0,000 mm 2,1 UV-I 715 W/m 16,6 C 4,8 km/h (1 Bft)
11.09.2016 14:31 23,1 C 23,3 C 66 % 1016,2 hPa 0,0 mm 4,6 km/h (1 Bft) O-NO 63 0 min 0,000 mm 2,1 UV-I 135 W/m 16,4 C 8,0 km/h (2 Bft)
11.09.2016 14:32 23,0 C 23,1 C 64 % 1016,2 hPa 0,0 mm 5,4 km/h (1 Bft) O-NO 74 0 min 0,000 mm 2,1 UV-I 137 W/m 15,8 C 8,0 km/h (2 Bft)
11.09.2016 14:33 22,9 C 23,0 C 65 % 1016,3 hPa 0,0 mm 5,8 km/h (2 Bft) O 95 0 min 0,000 mm 2,3 UV-I 153 W/m 16,0 C 8,0 km/h (2 Bft)
11.09.2016 14:34 22,8 C 22,9 C 65 % 1016,3 hPa 0,0 mm 3,9 km/h (1 Bft) O-NO 68 0 min 0,000 mm 2,4 UV-I 158 W/m 15,9 C 4,8 km/h (1 Bft)
11.09.2016 14:35 22,7 C 22,8 C 67 % 1016,3 hPa 0,0 mm 3,5 km/h (1 Bft) O 80 0 min 0,000 mm 2,5 UV-I 156 W/m 16,2 C 4,8 km/h (1 Bft)
11.09.2016 14:36 22,4 C 22,7 C 68 % 1016,2 hPa 0,0 mm 2,0 km/h (1 Bft) O 80 0 min 0,000 mm 2,8 UV-I 174 W/m 16,2 C 3,2 km/h (1 Bft)
11.09.2016 14:37 22,4 C 22,4 C 72 % 1016,2 hPa 0,0 mm 1,0 km/h (0 Bft) O 80 0 min 0,000 mm 4,4 UV-I 174 W/m 17,1 C 3,2 km/h (1 Bft)
11.09.2016 14:38 22,6 C 22,6 C 69 % 1016,2 hPa 0,0 mm 0,4 km/h (0 Bft) O 80 1 min 0,000 mm 4,4 UV-I 650 W/m 16,6 C 1,6 km/h (1 Bft)
11.09.2016 14:39 22,7 C 22,7 C 72 % 1016,2 hPa 0,0 mm 2,2 km/h (1 Bft) O 80 1 min 0,000 mm 4,3 UV-I 643 W/m 17,4 C 3,2 km/h (1 Bft)
11.09.2016 14:40 22,8 C 22,8 C 67 % 1016,2 hPa 0,0 mm 4,8 km/h (1 Bft) O-SO 105 1 min 0,000 mm 4,3 UV-I 645 W/m 16,3 C 6,4 km/h (2 Bft)
11.09.2016 14:41 22,9 C 22,9 C 68 % 1016,2 hPa 0,0 mm 4,5 km/h (1 Bft) O 91 1 min 0,000 mm 4,3 UV-I 645 W/m 16,7 C 6,4 km/h (2 Bft)
11.09.2016 14:42 22,9 C 22,9 C 67 % 1016,1 hPa 0,0 mm 3,5 km/h (1 Bft) O-NO 61 1 min 0,000 mm 4,3 UV-I 642 W/m 16,4 C 6,4 km/h (2 Bft)
11.09.2016 14:43 23,1 C 23,1 C 67 % 1016,2 hPa 0,0 mm 2,1 km/h (1 Bft) O-NO 61 1 min 0,000 mm 4,3 UV-I 640 W/m 16,6 C 3,2 km/h (1 Bft)
11.09.2016 14:44 23,2 C 23,2 C 65 % 1016,1 hPa 0,0 mm 0,7 km/h (0 Bft) O-NO 61 1 min 0,000 mm 4,3 UV-I 638 W/m 16,2 C 3,2 km/h (1 Bft)
11.09.2016 14:45 23,3 C 23,3 C 66 % 1016,2 hPa 0,0 mm 1,3 km/h (1 Bft) O 82 1 min 0,000 mm 4,3 UV-I 638 W/m 16,6 C 3,2 km/h (1 Bft)
11.09.2016 14:46 23,3 C 23,3 C 64 % 1016,2 hPa 0,0 mm 1,3 km/h (1 Bft) O 96 1 min 0,000 mm 4,2 UV-I 640 W/m 16,1 C 3,2 km/h (1 Bft)
11.09.2016 14:47 23,3 C 23,3 C 67 % 1016,2 hPa 0,0 mm 2,3 km/h (1 Bft) O 98 1 min 0,000 mm 4,2 UV-I 656 W/m 16,8 C 3,2 km/h (1 Bft)
11.09.2016 14:48 23,3 C 23,3 C 66 % 1016,2 hPa 0,0 mm 3,0 km/h (1 Bft) NW 319 1 min 0,000 mm 3,6 UV-I 656 W/m 16,6 C 4,8 km/h (1 Bft)
11.09.2016 14:49 23,3 C 23,3 C 64 % 1016,1 hPa 0,0 mm 3,9 km/h (1 Bft) N 360 1 min 0,000 mm 3,4 UV-I 656 W/m 16,1 C 4,8 km/h (1 Bft)
11.09.2016 14:50 23,4 C 23,4 C 63 % 1016,1 hPa 0,0 mm 3,8 km/h (1 Bft) W-NW 289 1 min 0,000 mm 4,2 UV-I 659 W/m 15,9 C 4,8 km/h (1 Bft)
11.09.2016 14:51 23,5 C 23,5 C 64 % 1016,1 hPa 0,0 mm 3,0 km/h (1 Bft) NW 304 1 min 0,000 mm 4,3 UV-I 686 W/m 16,3 C 4,8 km/h (1 Bft)
11.09.2016 14:52 23,7 C 23,7 C 65 % 1016,1 hPa 0,0 mm 3,0 km/h (1 Bft) O-SO 107 1 min 0,000 mm 4,3 UV-I 684 W/m 16,7 C 4,8 km/h (1 Bft)
11.09.2016 14:53 23,8 C 23,8 C 62 % 1016,2 hPa 0,0 mm 8,2 km/h (2 Bft) O 98 1 min 0,000 mm 4,2 UV-I 684 W/m 16,1 C 16,1 km/h (3 Bft)
11.09.2016 14:54 23,8 C 23,8 C 63 % 1016,1 hPa 0,0 mm 5,5 km/h (1 Bft) O-NO 65 1 min 0,000 mm 4,2 UV-I 687 W/m 16,3 C 8,0 km/h (2 Bft)
11.09.2016 14:55 23,8 C 23,8 C 62 % 1016,1 hPa 0,0 mm 4,4 km/h (1 Bft) O 88 1 min 0,000 mm 4,1 UV-I 675 W/m 16,1 C 6,4 km/h (2 Bft)
11.09.2016 14:56 23,8 C 23,8 C 65 % 1016,1 hPa 0,0 mm 4,5 km/h (1 Bft) O-SO 113 1 min 0,000 mm 2,3 UV-I 675 W/m 16,8 C 9,7 km/h (2 Bft)
11.09.2016 14:57 23,8 C 23,9 C 62 % 1016,1 hPa 0,0 mm 5,0 km/h (1 Bft) O-NO 73 0 min 0,000 mm 2,2 UV-I 141 W/m 16,1 C 6,4 km/h (2 Bft)
11.09.2016 14:58 23,8 C 23,8 C 63 % 1016,1 hPa 0,0 mm 4,0 km/h (1 Bft) O 94 0 min 0,000 mm 2,2 UV-I 134 W/m 16,3 C 4,8 km/h (1 Bft)
11.09.2016 14:59 23,7 C 23,8 C 63 % 1016,1 hPa 0,0 mm 3,2 km/h (1 Bft) O-NO 73 0 min 0,000 mm 2,2 UV-I 130 W/m 16,2 C 4,8 km/h (1 Bft)
11.09.2016 15:00 23,6 C 23,7 C 64 % 1016,1 hPa 0,0 mm 2,8 km/h (1 Bft) O 81 0 min 0,000 mm 2,2 UV-I 130 W/m 16,4 C 4,8 km/h (1 Bft)
11.09.2016 15:01 23,3 C 23,6 C 63 % 1016,1 hPa 0,0 mm 1,8 km/h (1 Bft) O 83 0 min 0,254 mm 2,2 UV-I 130 W/m 15,9 C 3,2 km/h (1 Bft)
11.09.2016 15:02 23,2 C 23,3 C 66 % 1016,1 hPa 0,0 mm 3,0 km/h (1 Bft) O 85 0 min 0,000 mm 2,2 UV-I 137 W/m 16,5 C 4,8 km/h (1 Bft)
11.09.2016 15:03 23,0 C 23,2 C 64 % 1016,1 hPa 0,0 mm 3,0 km/h (1 Bft) SO 128 0 min 0,000 mm 2,2 UV-I 142 W/m 15,8 C 4,8 km/h (1 Bft)
11.09.2016 15:04 22,9 C 23,0 C 63 % 1016,1 hPa 0,0 mm 3,8 km/h (1 Bft) SO 125 0 min 0,000 mm 2,3 UV-I 149 W/m 15,5 C 6,4 km/h (2 Bft)
11.09.2016 15:05 22,8 C 22,9 C 65 % 1016,1 hPa 0,0 mm 2,1 km/h (1 Bft) SO 130 0 min 0,000 mm 2,4 UV-I 162 W/m 15,9 C 3,2 km/h (1 Bft)
11.09.2016 15:06 22,7 C 22,8 C 68 % 1016,0 hPa 0,0 mm 1,5 km/h (1 Bft) SO 130 0 min 0,000 mm 3,3 UV-I 162 W/m 16,5 C 3,2 km/h (1 Bft)
11.09.2016 15:07 22,7 C 22,7 C 70 % 1016,0 hPa 0,0 mm 1,4 km/h (1 Bft) SO 146 1 min 0,000 mm 3,6 UV-I 640 W/m 16,9 C 1,6 km/h (1 Bft)
11.09.2016 15:08 22,8 C 22,8 C 67 % 1016,0 hPa 0,0 mm 4,0 km/h (1 Bft) S-SO 148 1 min 0,000 mm 3,6 UV-I 633 W/m 16,3 C 6,4 km/h (2 Bft)
11.09.2016 15:09 22,9 C 22,9 C 64 % 1016,0 hPa 0,0 mm 1,1 km/h (1 Bft) S-SO 148 1 min 0,000 mm 3,7 UV-I 633 W/m 15,7 C 3,2 km/h (1 Bft)
11.09.2016 15:10 23,1 C 23,1 C 69 % 1016,0 hPa 0,0 mm 1,9 km/h (1 Bft) O 91 1 min 0,000 mm 3,7 UV-I 633 W/m 17,1 C 3,2 km/h (1 Bft)
11.09.2016 15:11 23,2 C 23,2 C 69 % 1016,0 hPa 0,0 mm 4,1 km/h (1 Bft) O-NO 58 1 min 0,000 mm 3,7 UV-I 638 W/m 17,2 C 6,4 km/h (2 Bft)
11.09.2016 15:12 23,3 C 23,3 C 70 % 1015,9 hPa 0,0 mm 3,0 km/h (1 Bft) O 98 1 min 0,000 mm 3,7 UV-I 643 W/m 17,5 C 4,8 km/h (1 Bft)
11.09.2016 15:13 23,4 C 23,4 C 62 % 1016,0 hPa 0,0 mm 4,0 km/h (1 Bft) NO 34 1 min 0,000 mm 3,7 UV-I 657 W/m 15,7 C 4,8 km/h (1 Bft)
11.09.2016 15:14 23,6 C 23,6 C 62 % 1016,0 hPa 0,0 mm 7,2 km/h (2 Bft) O-SO 123 1 min 0,000 mm 3,8 UV-I 666 W/m 15,9 C 9,7 km/h (2 Bft)
11.09.2016 15:15 23,7 C 23,7 C 60 % 1016,0 hPa 0,0 mm 5,7 km/h (1 Bft) O 81 1 min 0,000 mm 3,7 UV-I 671 W/m 15,5 C 8,0 km/h (2 Bft)
11.09.2016 15:16 23,8 C 23,8 C 62 % 1015,9 hPa 0,0 mm 4,3 km/h (1 Bft) NO 34 1 min 0,000 mm 3,7 UV-I 679 W/m 16,1 C 6,4 km/h (2 Bft)
11.09.2016 15:17 23,9 C 23,9 C 64 % 1015,8 hPa 0,0 mm 4,1 km/h (1 Bft) N-NO 25 1 min 0,000 mm 3,7 UV-I 679 W/m 16,7 C 6,4 km/h (2 Bft)
11.09.2016 15:18 23,9 C 23,9 C 59 % 1015,8 hPa 0,0 mm 1,3 km/h (1 Bft) N-NO 22 1 min 0,000 mm 3,7 UV-I 689 W/m 15,4 C 3,2 km/h (1 Bft)
11.09.2016 15:19 23,9 C 23,9 C 60 % 1015,8 hPa 0,0 mm 2,7 km/h (1 Bft) NW 317 1 min 0,000 mm 3,6 UV-I 680 W/m 15,7 C 4,8 km/h (1 Bft)
11.09.2016 15:20 24,0 C 24,0 C 60 % 1015,8 hPa 0,0 mm 3,4 km/h (1 Bft) N 355 1 min 0,000 mm 3,5 UV-I 682 W/m 15,7 C 4,8 km/h (1 Bft)
11.09.2016 15:21 24,1 C 24,1 C 63 % 1015,8 hPa 0,0 mm 3,7 km/h (1 Bft) NO 42 1 min 0,000 mm 3,5 UV-I 677 W/m 16,6 C 9,7 km/h (2 Bft)
11.09.2016 15:22 24,1 C 24,1 C 64 % 1015,8 hPa 0,0 mm 4,0 km/h (1 Bft) O-NO 62 1 min 0,000 mm 3,4 UV-I 673 W/m 16,9 C 6,4 km/h (2 Bft)
11.09.2016 15:23 24,2 C 24,2 C 63 % 1015,8 hPa 0,0 mm 5,7 km/h (1 Bft) N-NO 26 1 min 0,000 mm 3,4 UV-I 668 W/m 16,7 C 6,4 km/h (2 Bft)
11.09.2016 15:24 24,2 C 24,2 C 61 % 1015,8 hPa 0,0 mm 4,8 km/h (1 Bft) NO 46 1 min 0,000 mm 3,4 UV-I 663 W/m 16,2 C 6,4 km/h (2 Bft)
11.09.2016 15:25 24,3 C 24,3 C 61 % 1015,8 hPa 0,0 mm 5,8 km/h (2 Bft) O-NO 58 1 min 0,000 mm 3,3 UV-I 649 W/m 16,3 C 8,0 km/h (2 Bft)
11.09.2016 15:26 24,3 C 24,3 C 61 % 1015,8 hPa 0,0 mm 5,7 km/h (1 Bft) O-NO 76 1 min 0,000 mm 3,0 UV-I 631 W/m 16,3 C 8,0 km/h (2 Bft)
11.09.2016 15:27 24,2 C 24,3 C 60 % 1015,8 hPa 0,0 mm 5,1 km/h (1 Bft) NO 34 1 min 0,000 mm 2,2 UV-I 631 W/m 15,9 C 8,0 km/h (2 Bft)
11.09.2016 15:28 24,1 C 24,2 C 60 % 1015,8 hPa 0,0 mm 6,2 km/h (2 Bft) O-NO 70 1 min 0,000 mm 2,2 UV-I 631 W/m 15,8 C 11,3 km/h (2 Bft)
11.09.2016 15:29 24,0 C 24,1 C 61 % 1015,8 hPa 0,0 mm 5,5 km/h (1 Bft) N-NO 30 0 min 0,000 mm 2,2 UV-I 199 W/m 16,0 C 9,7 km/h (2 Bft)
11.09.2016 15:30 23,9 C 24,0 C 63 % 1015,8 hPa 0,0 mm 5,4 km/h (1 Bft) O-NO 67 0 min 0,000 mm 2,3 UV-I 221 W/m 16,4 C 9,7 km/h (2 Bft)
11.09.2016 15:31 23,8 C 23,9 C 62 % 1015,8 hPa 0,0 mm 5,9 km/h (2 Bft) O-NO 57 0 min 0,000 mm 3,1 UV-I 221 W/m 16,1 C 9,7 km/h (2 Bft)
11.09.2016 15:32 23,7 C 23,8 C 65 % 1015,8 hPa 0,0 mm 4,3 km/h (1 Bft) O 82 0 min 0,000 mm 3,5 UV-I 221 W/m 16,7 C 11,3 km/h (2 Bft)
11.09.2016 15:33 23,7 C 23,7 C 63 % 1015,9 hPa 0,0 mm 7,7 km/h (2 Bft) O-NO 60 0 min 0,000 mm 3,5 UV-I 221 W/m 16,2 C 11,3 km/h (2 Bft)
11.09.2016 15:34 23,7 C 23,7 C 63 % 1015,8 hPa 0,0 mm 5,2 km/h (1 Bft) O-NO 59 0 min 0,000 mm 3,6 UV-I 221 W/m 16,2 C 8,0 km/h (2 Bft)
11.09.2016 15:35 23,7 C 23,7 C 61 % 1015,8 hPa 0,0 mm 5,0 km/h (1 Bft) O-NO 58 1 min 0,000 mm 3,6 UV-I 657 W/m 15,7 C 8,0 km/h (2 Bft)
11.09.2016 15:36 23,7 C 23,7 C 62 % 1015,8 hPa 0,0 mm 3,1 km/h (1 Bft) O 96 1 min 0,000 mm 3,6 UV-I 645 W/m 16,0 C 4,8 km/h (1 Bft)
11.09.2016 15:37 23,8 C 23,8 C 62 % 1015,8 hPa 0,0 mm 5,4 km/h (1 Bft) NO 43 1 min 0,000 mm 3,5 UV-I 636 W/m 16,1 C 9,7 km/h (2 Bft)
11.09.2016 15:38 23,8 C 23,8 C 62 % 1015,8 hPa 0,0 mm 5,6 km/h (1 Bft) N-NO 27 1 min 0,000 mm 3,5 UV-I 638 W/m 16,1 C 8,0 km/h (2 Bft)
11.09.2016 15:39 24,0 C 24,0 C 61 % 1015,8 hPa 0,0 mm 4,6 km/h (1 Bft) N-NO 17 1 min 0,000 mm 3,5 UV-I 642 W/m 16,0 C 6,4 km/h (2 Bft)
11.09.2016 15:40 24,1 C 24,1 C 65 % 1015,8 hPa 0,0 mm 4,9 km/h (1 Bft) N 5 1 min 0,000 mm 3,4 UV-I 635 W/m 17,1 C 9,7 km/h (2 Bft)
11.09.2016 15:41 24,2 C 24,2 C 62 % 1015,8 hPa 0,0 mm 4,9 km/h (1 Bft) N 360 1 min 0,000 mm 3,3 UV-I 631 W/m 16,4 C 8,0 km/h (2 Bft)
11.09.2016 15:42 24,2 C 24,2 C 61 % 1015,8 hPa 0,0 mm 5,6 km/h (1 Bft) N 351 1 min 0,000 mm 3,2 UV-I 622 W/m 16,2 C 8,0 km/h (2 Bft)
11.09.2016 15:43 24,3 C 24,3 C 61 % 1015,8 hPa 0,0 mm 6,3 km/h (2 Bft) NO 45 1 min 0,000 mm 3,0 UV-I 619 W/m 16,3 C 8,0 km/h (2 Bft)
11.09.2016 15:44 24,5 C 24,5 C 60 % 1015,8 hPa 0,0 mm 8,5 km/h (2 Bft) O-NO 66 1 min 0,000 mm 2,8 UV-I 543 W/m 16,2 C 14,5 km/h (3 Bft)
11.09.2016 15:45 24,4 C 24,5 C 61 % 1015,8 hPa 0,0 mm 8,5 km/h (2 Bft) N 360 1 min 0,000 mm 2,0 UV-I 543 W/m 16,4 C 14,5 km/h (3 Bft)
11.09.2016 15:46 24,3 C 24,4 C 62 % 1015,8 hPa 0,0 mm 10,9 km/h (2 Bft) O-NO 67 1 min 0,000 mm 1,8 UV-I 543 W/m 16,5 C 14,5 km/h (3 Bft)
11.09.2016 15:47 24,1 C 24,3 C 63 % 1015,8 hPa 0,0 mm 4,0 km/h (1 Bft) O 79 0 min 0,000 mm 1,7 UV-I 179 W/m 16,6 C 6,4 km/h (2 Bft)
11.09.2016 15:48 23,9 C 24,1 C 64 % 1015,7 hPa 0,0 mm 4,2 km/h (1 Bft) O-NO 78 0 min 0,000 mm 1,6 UV-I 156 W/m 16,7 C 4,8 km/h (1 Bft)
11.09.2016 15:49 23,7 C 23,9 C 65 % 1015,8 hPa 0,0 mm 7,4 km/h (2 Bft) SO 136 0 min 0,000 mm 1,5 UV-I 153 W/m 16,7 C 12,9 km/h (3 Bft)
11.09.2016 15:50 23,6 C 23,7 C 64 % 1015,8 hPa 0,0 mm 3,3 km/h (1 Bft) NO 50 0 min 0,000 mm 1,5 UV-I 148 W/m 16,4 C 8,0 km/h (2 Bft)
11.09.2016 15:51 23,3 C 23,6 C 67 % 1015,8 hPa 0,0 mm 3,2 km/h (1 Bft) O-NO 65 0 min 0,000 mm 1,5 UV-I 144 W/m 16,8 C 4,8 km/h (1 Bft)
11.09.2016 15:52 23,2 C 23,3 C 67 % 1015,8 hPa 0,0 mm 7,8 km/h (2 Bft) N-NO 17 0 min 0,000 mm 1,5 UV-I 142 W/m 16,7 C 12,9 km/h (3 Bft)
11.09.2016 15:53 23,1 C 23,2 C 66 % 1015,8 hPa 0,0 mm 3,0 km/h (1 Bft) O-NO 78 0 min 0,000 mm 1,5 UV-I 134 W/m 16,4 C 4,8 km/h (1 Bft)
11.09.2016 15:54 23,0 C 23,1 C 67 % 1015,8 hPa 0,0 mm 3,5 km/h (1 Bft) S-SO 149 0 min 0,000 mm 1,5 UV-I 134 W/m 16,5 C 9,7 km/h (2 Bft)
11.09.2016 15:55 22,9 C 23,0 C 66 % 1015,8 hPa 0,0 mm 5,4 km/h (1 Bft) O 97 0 min 0,000 mm 1,5 UV-I 135 W/m 16,2 C 9,7 km/h (2 Bft)
11.09.2016 15:56 22,8 C 22,9 C 67 % 1015,8 hPa 0,0 mm 2,1 km/h (1 Bft) O 98 0 min 0,000 mm 1,4 UV-I 134 W/m 16,3 C 4,8 km/h (1 Bft)
11.09.2016 15:57 22,7 C 22,8 C 67 % 1015,8 hPa 0,0 mm 0,7 km/h (0 Bft) O-SO 105 0 min 0,000 mm 1,4 UV-I 132 W/m 16,2 C 3,2 km/h (1 Bft)
11.09.2016 15:58 22,6 C 22,7 C 67 % 1015,8 hPa 0,0 mm 1,3 km/h (1 Bft) O-SO 122 0 min 0,000 mm 1,4 UV-I 127 W/m 16,2 C 4,8 km/h (1 Bft)
11.09.2016 15:59 22,6 C 22,7 C 67 % 1015,8 hPa 0,0 mm 2,9 km/h (1 Bft) S-SO 157 0 min 0,000 mm 1,3 UV-I 123 W/m 16,2 C 6,4 km/h (2 Bft)
11.09.2016 16:00 22,6 C 22,6 C 67 % 1015,7 hPa 0,0 mm 3,8 km/h (1 Bft) SO 135 0 min 0,000 mm 1,3 UV-I 114 W/m 16,2 C 8,0 km/h (2 Bft)
11.09.2016 16:01 22,4 C 22,6 C 68 % 1015,8 hPa 0,0 mm 6,2 km/h (2 Bft) O-SO 109 0 min 0,305 mm 1,3 UV-I 111 W/m 16,2 C 11,3 km/h (2 Bft)
11.09.2016 16:02 22,3 C 22,4 C 68 % 1015,8 hPa 0,0 mm 1,7 km/h (1 Bft) O-SO 110 0 min 0,000 mm 1,2 UV-I 109 W/m 16,1 C 3,2 km/h (1 Bft)
11.09.2016 16:03 22,3 C 22,3 C 68 % 1015,8 hPa 0,0 mm 3,1 km/h (1 Bft) O 101 0 min 0,000 mm 1,2 UV-I 105 W/m 16,1 C 6,4 km/h (2 Bft)
11.09.2016 16:04 22,2 C 22,3 C 73 % 1015,9 hPa 0,0 mm 4,4 km/h (1 Bft) SO 127 0 min 0,000 mm 1,2 UV-I 104 W/m 17,1 C 6,4 km/h (2 Bft)
11.09.2016 16:05 22,2 C 22,3 C 68 % 1015,9 hPa 0,0 mm 3,4 km/h (1 Bft) S 187 0 min 0,000 mm 1,1 UV-I 102 W/m 16,0 C 4,8 km/h (1 Bft)
11.09.2016 16:06 22,3 C 22,3 C 69 % 1015,9 hPa 0,0 mm 2,3 km/h (1 Bft) S 185 0 min 0,000 mm 1,1 UV-I 100 W/m 16,3 C 3,2 km/h (1 Bft)
11.09.2016 16:07 22,1 C 22,3 C 73 % 1015,9 hPa 0,0 mm 3,0 km/h (1 Bft) O-SO 107 0 min 0,000 mm 1,1 UV-I 98 W/m 17,0 C 4,8 km/h (1 Bft)
11.09.2016 16:08 21,9 C 22,1 C 70 % 1015,9 hPa 0,0 mm 2,5 km/h (1 Bft) O-SO 122 0 min 0,000 mm 1,1 UV-I 95 W/m 16,2 C 4,8 km/h (1 Bft)
11.09.2016 16:09 21,9 C 21,9 C 70 % 1015,9 hPa 0,0 mm 3,3 km/h (1 Bft) O-SO 117 0 min 0,000 mm 1,0 UV-I 93 W/m 16,2 C 4,8 km/h (1 Bft)
11.09.2016 16:10 21,9 C 21,9 C 71 % 1016,0 hPa 0,0 mm 2,2 km/h (1 Bft) O-SO 117 0 min 0,000 mm 1,0 UV-I 91 W/m 16,4 C 3,2 km/h (1 Bft)
11.09.2016 16:11 21,8 C 21,9 C 74 % 1015,9 hPa 0,0 mm 3,1 km/h (1 Bft) O-SO 107 0 min 0,000 mm 1,0 UV-I 91 W/m 17,0 C 4,8 km/h (1 Bft)
11.09.2016 16:12 21,8 C 21,8 C 71 % 1016,0 hPa 0,0 mm 2,4 km/h (1 Bft) NO 54 0 min 0,000 mm 1,0 UV-I 90 W/m 16,3 C 4,8 km/h (1 Bft)
11.09.2016 16:13 21,8 C 21,8 C 73 % 1015,9 hPa 0,0 mm 2,8 km/h (1 Bft) NO 55 0 min 0,000 mm 1,0 UV-I 90 W/m 16,7 C 3,2 km/h (1 Bft)
11.09.2016 16:14 21,8 C 21,8 C 71 % 1015,9 hPa 0,0 mm 1,7 km/h (1 Bft) O-NO 57 0 min 0,000 mm 1,0 UV-I 90 W/m 16,3 C 3,2 km/h (1 Bft)
11.09.2016 16:15 21,7 C 21,8 C 73 % 1015,9 hPa 0,0 mm 2,0 km/h (1 Bft) O 90 0 min 0,000 mm 1,0 UV-I 88 W/m 16,6 C 3,2 km/h (1 Bft)
11.09.2016 16:16 21,7 C 21,7 C 73 % 1015,9 hPa 0,0 mm 2,0 km/h (1 Bft) O 90 0 min 0,000 mm 1,0 UV-I 88 W/m 16,6 C 4,8 km/h (1 Bft)
11.09.2016 16:17 21,7 C 21,7 C 72 % 1015,9 hPa 0,0 mm 0,2 km/h (0 Bft) O 90 0 min 0,000 mm 1,0 UV-I 88 W/m 16,4 C 1,6 km/h (1 Bft)
11.09.2016 16:18 21,7 C 21,7 C 74 % 1015,9 hPa 0,0 mm 0,8 km/h (0 Bft) O 90 0 min 0,000 mm 0,9 UV-I 86 W/m 16,9 C 1,6 km/h (1 Bft)
11.09.2016 16:19 21,7 C 21,7 C 74 % 1015,9 hPa 0,0 mm 0,4 km/h (0 Bft) O 90 0 min 0,000 mm 0,9 UV-I 86 W/m 16,9 C 1,6 km/h (1 Bft)
11.09.2016 16:20 21,6 C 21,7 C 73 % 1015,9 hPa 0,0 mm 5,3 km/h (1 Bft) O 96 0 min 0,000 mm 0,9 UV-I 86 W/m 16,5 C 11,3 km/h (2 Bft)
11.09.2016 16:21 21,6 C 21,6 C 72 % 1015,9 hPa 0,0 mm 1,4 km/h (1 Bft) O 97 0 min 0,000 mm 0,9 UV-I 84 W/m 16,3 C 3,2 km/h (1 Bft)
11.09.2016 16:22 21,6 C 21,7 C 74 % 1015,9 hPa 0,0 mm 1,3 km/h (1 Bft) O 97 0 min 0,000 mm 0,9 UV-I 84 W/m 16,8 C 3,2 km/h (1 Bft)
11.09.2016 16:23 21,6 C 21,6 C 73 % 1015,9 hPa 0,0 mm 2,6 km/h (1 Bft) O 87 0 min 0,000 mm 0,9 UV-I 84 W/m 16,5 C 4,8 km/h (1 Bft)
11.09.2016 16:24 21,6 C 21,6 C 74 % 1016,0 hPa 0,0 mm 4,6 km/h (1 Bft) O 89 0 min 0,000 mm 0,9 UV-I 83 W/m 16,8 C 6,4 km/h (2 Bft)
11.09.2016 16:25 21,6 C 21,6 C 76 % 1015,9 hPa 0,0 mm 2,1 km/h (1 Bft) O 89 0 min 0,000 mm 0,9 UV-I 83 W/m 17,2 C 3,2 km/h (1 Bft)
11.09.2016 16:26 21,4 C 21,6 C 75 % 1015,9 hPa 0,0 mm 1,7 km/h (1 Bft) O-SO 107 0 min 0,000 mm 0,9 UV-I 83 W/m 16,8 C 4,8 km/h (1 Bft)
11.09.2016 16:27 21,3 C 21,4 C 77 % 1016,0 hPa 0,0 mm 2,7 km/h (1 Bft) O 100 0 min 0,000 mm 0,8 UV-I 83 W/m 17,1 C 4,8 km/h (1 Bft)
11.09.2016 16:28 21,2 C 21,3 C 77 % 1016,0 hPa 0,0 mm 1,1 km/h (1 Bft) O 100 0 min 0,000 mm 0,8 UV-I 83 W/m 17,0 C 1,6 km/h (1 Bft)
11.09.2016 16:29 21,2 C 21,2 C 78 % 1016,1 hPa 0,0 mm 2,7 km/h (1 Bft) O-NO 73 0 min 0,000 mm 0,8 UV-I 83 W/m 17,2 C 6,4 km/h (2 Bft)
11.09.2016 16:30 21,1 C 21,2 C 80 % 1016,1 hPa 0,0 mm 4,2 km/h (1 Bft) O-SO 111 0 min 0,000 mm 0,8 UV-I 83 W/m 17,5 C 4,8 km/h (1 Bft)
11.09.2016 16:31 20,9 C 21,1 C 80 % 1016,1 hPa 0,0 mm 3,1 km/h (1 Bft) O 96 0 min 0,000 mm 0,8 UV-I 83 W/m 17,3 C 4,8 km/h (1 Bft)
11.09.2016 16:32 20,9 C 21,0 C 79 % 1016,1 hPa 0,0 mm 3,0 km/h (1 Bft) O 90 0 min 0,000 mm 0,8 UV-I 84 W/m 17,1 C 4,8 km/h (1 Bft)
11.09.2016 16:33 21,0 C 21,0 C 77 % 1016,1 hPa 0,0 mm 3,5 km/h (1 Bft) O-SO 102 0 min 0,000 mm 0,8 UV-I 84 W/m 16,8 C 11,3 km/h (2 Bft)
11.09.2016 16:34 21,0 C 21,0 C 79 % 1016,1 hPa 0,0 mm 4,2 km/h (1 Bft) O 81 0 min 0,000 mm 0,8 UV-I 84 W/m 17,2 C 6,4 km/h (2 Bft)
11.09.2016 16:35 21,0 C 21,0 C 77 % 1016,1 hPa 0,0 mm 1,9 km/h (1 Bft) O 81 0 min 0,000 mm 0,8 UV-I 84 W/m 16,8 C 3,2 km/h (1 Bft)
11.09.2016 16:36 21,0 C 21,1 C 77 % 1016,1 hPa 0,0 mm 1,3 km/h (1 Bft) O 81 0 min 0,000 mm 0,8 UV-I 86 W/m 16,8 C 3,2 km/h (1 Bft)
11.09.2016 16:37 21,0 C 21,1 C 78 % 1016,1 hPa 0,0 mm 0,4 km/h (0 Bft) O 81 0 min 0,000 mm 0,8 UV-I 86 W/m 17,0 C 1,6 km/h (1 Bft)
11.09.2016 16:38 20,9 C 21,0 C 77 % 1016,1 hPa 0,0 mm 0,6 km/h (0 Bft) O 81 0 min 0,000 mm 0,8 UV-I 86 W/m 16,7 C 1,6 km/h (1 Bft)
11.09.2016 16:39 20,9 C 20,9 C 80 % 1016,1 hPa 0,0 mm 0,5 km/h (0 Bft) O 81 0 min 0,000 mm 0,8 UV-I 86 W/m 17,3 C 1,6 km/h (1 Bft)
11.09.2016 16:40 20,9 C 20,9 C 79 % 1016,1 hPa 0,0 mm 0,6 km/h (0 Bft) O 81 0 min 0,000 mm 0,8 UV-I 86 W/m 17,1 C 1,6 km/h (1 Bft)
11.09.2016 16:41 20,8 C 20,9 C 80 % 1016,1 hPa 0,0 mm 0,1 km/h (0 Bft) O 81 0 min 0,000 mm 0,8 UV-I 88 W/m 17,2 C 1,6 km/h (1 Bft)
11.09.2016 16:42 20,8 C 20,8 C 81 % 1016,1 hPa 0,0 mm 0,0 km/h (0 Bft) O 81 0 min 0,000 mm 0,8 UV-I 88 W/m 17,4 C 0,0 km/h (0 Bft)
11.09.2016 16:43 20,7 C 20,8 C 79 % 1016,1 hPa 0,0 mm 0,9 km/h (0 Bft) O 81 0 min 0,000 mm 0,8 UV-I 88 W/m 16,9 C 1,6 km/h (1 Bft)
11.09.2016 16:44 20,8 C 20,8 C 82 % 1016,1 hPa 0,0 mm 0,3 km/h (0 Bft) O 81 0 min 0,000 mm 0,8 UV-I 90 W/m 17,6 C 1,6 km/h (1 Bft)
11.09.2016 16:45 20,7 C 20,8 C 82 % 1016,1 hPa 0,0 mm 0,7 km/h (0 Bft) O 81 0 min 0,000 mm 0,8 UV-I 90 W/m 17,5 C 1,6 km/h (1 Bft)
11.09.2016 16:46 20,7 C 20,7 C 83 % 1016,2 hPa 0,0 mm 0,7 km/h (0 Bft) O 81 0 min 0,000 mm 0,8 UV-I 90 W/m 17,7 C 1,6 km/h (1 Bft)
11.09.2016 16:47 20,7 C 20,8 C 82 % 1016,2 hPa 0,0 mm 0,9 km/h (0 Bft) O 81 0 min 0,000 mm 0,8 UV-I 90 W/m 17,5 C 1,6 km/h (1 Bft)
11.09.2016 16:48 20,7 C 20,7 C 80 % 1016,2 hPa 0,0 mm 0,3 km/h (0 Bft) O 81 0 min 0,000 mm 0,8 UV-I 90 W/m 17,1 C 1,6 km/h (1 Bft)
11.09.2016 16:49 20,7 C 20,7 C 82 % 1016,2 hPa 0,0 mm 1,1 km/h (1 Bft) O 81 0 min 0,000 mm 0,8 UV-I 91 W/m 17,5 C 3,2 km/h (1 Bft)
11.09.2016 16:50 20,6 C 20,7 C 78 % 1016,2 hPa 0,0 mm 0,6 km/h (0 Bft) O 81 0 min 0,000 mm 0,8 UV-I 91 W/m 16,6 C 3,2 km/h (1 Bft)
11.09.2016 16:51 20,7 C 20,7 C 80 % 1016,2 hPa 0,0 mm 0,0 km/h (0 Bft) O 81 0 min 0,000 mm 0,8 UV-I 91 W/m 17,1 C 0,0 km/h (0 Bft)
11.09.2016 16:52 20,6 C 20,7 C 82 % 1016,2 hPa 0,0 mm 0,3 km/h (0 Bft) O 81 0 min 0,000 mm 0,8 UV-I 91 W/m 17,4 C 1,6 km/h (1 Bft)
11.09.2016 16:53 20,6 C 20,6 C 83 % 1016,2 hPa 0,0 mm 0,7 km/h (0 Bft) O 81 0 min 0,000 mm 0,8 UV-I 93 W/m 17,6 C 1,6 km/h (1 Bft)
11.09.2016 16:54 20,6 C 20,6 C 82 % 1016,2 hPa 0,0 mm 0,4 km/h (0 Bft) O 81 0 min 0,000 mm 0,8 UV-I 93 W/m 17,4 C 1,6 km/h (1 Bft)
11.09.2016 16:55 20,5 C 20,6 C 83 % 1016,2 hPa 0,0 mm 0,6 km/h (0 Bft) O 81 0 min 0,000 mm 0,8 UV-I 93 W/m 17,5 C 1,6 km/h (1 Bft)
11.09.2016 16:56 20,6 C 20,6 C 83 % 1016,2 hPa 0,0 mm 0,0 km/h (0 Bft) O 81 0 min 0,000 mm 0,8 UV-I 93 W/m 17,6 C 0,0 km/h (0 Bft)
11.09.2016 16:57 20,5 C 20,6 C 80 % 1016,2 hPa 0,0 mm 0,0 km/h (0 Bft) O 81 0 min 0,000 mm 0,8 UV-I 93 W/m 16,9 C 0,0 km/h (0 Bft)
11.09.2016 16:58 20,5 C 20,6 C 82 % 1016,1 hPa 0,0 mm 0,0 km/h (0 Bft) O 81 0 min 0,000 mm 0,8 UV-I 93 W/m 17,3 C 0,0 km/h (0 Bft)
11.09.2016 16:59 20,5 C 20,5 C 83 % 1016,2 hPa 0,0 mm 0,0 km/h (0 Bft) O 81 0 min 0,000 mm 0,8 UV-I 93 W/m 17,5 C 0,0 km/h (0 Bft)
11.09.2016 17:00 20,4 C 20,5 C 83 % 1016,2 hPa 0,0 mm 0,4 km/h (0 Bft) O 81 0 min 0,000 mm 0,8 UV-I 95 W/m 17,4 C 1,6 km/h (1 Bft)
11.09.2016 17:01 20,4 C 20,4 C 81 % 1016,2 hPa 0,0 mm 1,5 km/h (1 Bft) O-NO 57 0 min 0,050 mm 0,8 UV-I 95 W/m 17,0 C 3,2 km/h (1 Bft)
11.09.2016 17:02 20,4 C 20,4 C 80 % 1016,2 hPa 0,0 mm 0,0 km/h (0 Bft) O-NO 57 0 min 0,000 mm 0,8 UV-I 95 W/m 16,8 C 0,0 km/h (0 Bft)
11.09.2016 17:03 20,4 C 20,4 C 82 % 1016,2 hPa 0,0 mm 0,0 km/h (0 Bft) O-NO 57 0 min 0,000 mm 0,8 UV-I 95 W/m 17,2 C 0,0 km/h (0 Bft)
11.09.2016 17:04 20,3 C 20,4 C 81 % 1016,1 hPa 0,0 mm 0,3 km/h (0 Bft) O-NO 57 0 min 0,000 mm 0,8 UV-I 97 W/m 16,9 C 1,6 km/h (1 Bft)
11.09.2016 17:05 20,3 C 20,3 C 80 % 1016,1 hPa 0,0 mm 1,2 km/h (1 Bft) O-NO 57 0 min 0,000 mm 0,8 UV-I 97 W/m 16,7 C 1,6 km/h (1 Bft)
11.09.2016 17:06 20,3 C 20,4 C 79 % 1016,2 hPa 0,0 mm 0,0 km/h (0 Bft) O-NO 57 0 min 0,000 mm 0,8 UV-I 97 W/m 16,5 C 0,0 km/h (0 Bft)
11.09.2016 17:07 20,3 C 20,4 C 81 % 1016,2 hPa 0,0 mm 0,0 km/h (0 Bft) O-NO 57 0 min 0,000 mm 0,8 UV-I 97 W/m 16,9 C 0,0 km/h (0 Bft)
11.09.2016 17:08 20,3 C 20,3 C 80 % 1016,1 hPa 0,0 mm 0,0 km/h (0 Bft) O-NO 57 0 min 0,000 mm 0,8 UV-I 98 W/m 16,7 C 0,0 km/h (0 Bft)
11.09.2016 17:09 20,3 C 20,3 C 80 % 1016,1 hPa 0,0 mm 0,0 km/h (0 Bft) O-NO 57 0 min 0,000 mm 0,8 UV-I 98 W/m 16,7 C 0,0 km/h (0 Bft)
11.09.2016 17:10 20,3 C 20,3 C 81 % 1016,1 hPa 0,0 mm 0,0 km/h (0 Bft) O-NO 57 0 min 0,000 mm 0,8 UV-I 100 W/m 16,9 C 0,0 km/h (0 Bft)
11.09.2016 17:11 20,3 C 20,3 C 81 % 1016,1 hPa 0,0 mm 0,0 km/h (0 Bft) O-NO 57 0 min 0,000 mm 0,8 UV-I 100 W/m 16,9 C 0,0 km/h (0 Bft)
11.09.2016 17:12 20,3 C 20,3 C 79 % 1016,1 hPa 0,0 mm 0,0 km/h (0 Bft) NO 55 0 min 0,000 mm 0,8 UV-I 100 W/m 16,5 C 0,0 km/h (0 Bft)
11.09.2016 17:13 20,3 C 20,3 C 80 % 1016,1 hPa 0,0 mm 0,0 km/h (0 Bft) NO 56 0 min 0,000 mm 0,8 UV-I 100 W/m 16,7 C 0,0 km/h (0 Bft)
11.09.2016 17:14 20,3 C 20,3 C 81 % 1016,1 hPa 0,0 mm 0,0 km/h (0 Bft) NO 56 0 min 0,000 mm 0,8 UV-I 102 W/m 16,9 C 0,0 km/h (0 Bft)
11.09.2016 17:15 20,3 C 20,3 C 79 % 1016,1 hPa 0,0 mm 0,0 km/h (0 Bft) NO 56 0 min 0,000 mm 0,8 UV-I 102 W/m 16,5 C 0,0 km/h (0 Bft)
11.09.2016 17:16 20,2 C 20,3 C 82 % 1016,1 hPa 0,0 mm 0,0 km/h (0 Bft) NO 56 0 min 0,000 mm 0,8 UV-I 102 W/m 17,0 C 0,0 km/h (0 Bft)
11.09.2016 17:17 20,2 C 20,3 C 83 % 1016,1 hPa 0,0 mm 0,0 km/h (0 Bft) NO 56 0 min 0,000 mm 0,8 UV-I 104 W/m 17,2 C 0,0 km/h (0 Bft)
11.09.2016 17:18 20,2 C 20,2 C 79 % 1016,1 hPa 0,0 mm 0,0 km/h (0 Bft) NO 56 0 min 0,000 mm 0,8 UV-I 104 W/m 16,4 C 0,0 km/h (0 Bft)
11.09.2016 17:19 20,2 C 20,2 C 80 % 1016,1 hPa 0,0 mm 0,0 km/h (0 Bft) NO 56 0 min 0,000 mm 0,8 UV-I 104 W/m 16,6 C 0,0 km/h (0 Bft)
11.09.2016 17:20 20,2 C 20,2 C 79 % 1016,1 hPa 0,0 mm 0,0 km/h (0 Bft) NO 56 0 min 0,000 mm 0,8 UV-I 104 W/m 16,4 C 0,0 km/h (0 Bft)
11.09.2016 17:21 20,2 C 20,2 C 79 % 1016,1 hPa 0,0 mm 0,0 km/h (0 Bft) NO 56 0 min 0,000 mm 0,8 UV-I 102 W/m 16,4 C 0,0 km/h (0 Bft)
11.09.2016 17:22 20,3 C 20,3 C 81 % 1016,1 hPa 0,0 mm 0,0 km/h (0 Bft) NO 56 0 min 0,000 mm 0,7 UV-I 102 W/m 16,9 C 0,0 km/h (0 Bft)
11.09.2016 17:23 20,3 C 20,3 C 79 % 1016,1 hPa 0,0 mm 0,0 km/h (0 Bft) NO 56 0 min 0,000 mm 0,7 UV-I 102 W/m 16,5 C 0,0 km/h (0 Bft)
11.09.2016 17:24 20,3 C 20,3 C 82 % 1016,0 hPa 0,0 mm 0,0 km/h (0 Bft) NO 56 0 min 0,000 mm 0,7 UV-I 102 W/m 17,1 C 0,0 km/h (0 Bft)
11.09.2016 17:25 20,3 C 20,3 C 80 % 1016,0 hPa 0,0 mm 0,0 km/h (0 Bft) NO 56 0 min 0,000 mm 0,7 UV-I 102 W/m 16,7 C 0,0 km/h (0 Bft)
11.09.2016 17:26 20,2 C 20,3 C 78 % 1015,9 hPa 0,0 mm 0,0 km/h (0 Bft) NO 56 0 min 0,000 mm 0,7 UV-I 102 W/m 16,2 C 0,0 km/h (0 Bft)
11.09.2016 17:27 20,2 C 20,2 C 81 % 1016,1 hPa 0,0 mm 0,0 km/h (0 Bft) NO 56 0 min 0,000 mm 0,7 UV-I 102 W/m 16,8 C 0,0 km/h (0 Bft)
11.09.2016 17:28 20,2 C 20,2 C 81 % 1015,9 hPa 0,0 mm 0,0 km/h (0 Bft) NO 56 0 min 0,000 mm 0,7 UV-I 104 W/m 16,8 C 0,0 km/h (0 Bft)
11.09.2016 17:29 20,2 C 20,2 C 78 % 1016,0 hPa 0,0 mm 0,0 km/h (0 Bft) NO 56 0 min 0,000 mm 0,7 UV-I 104 W/m 16,2 C 0,0 km/h (0 Bft)
11.09.2016 17:30 20,2 C 20,2 C 78 % 1016,0 hPa 0,0 mm 0,0 km/h (0 Bft) NO 56 0 min 0,000 mm 0,7 UV-I 104 W/m 16,2 C 0,0 km/h (0 Bft)
11.09.2016 17:31 20,2 C 20,2 C 78 % 1016,0 hPa 0,0 mm 0,0 km/h (0 Bft) NO 56 0 min 0,000 mm 0,7 UV-I 104 W/m 16,2 C 0,0 km/h (0 Bft)
11.09.2016 17:32 20,2 C 20,2 C 78 % 1016,0 hPa 0,0 mm 0,0 km/h (0 Bft) NO 56 0 min 0,000 mm 0,7 UV-I 104 W/m 16,2 C 0,0 km/h (0 Bft)
11.09.2016 17:33 20,2 C 20,2 C 79 % 1016,1 hPa 0,0 mm 0,0 km/h (0 Bft) NO 56 0 min 0,000 mm 0,7 UV-I 102 W/m 16,4 C 0,0 km/h (0 Bft)
11.09.2016 17:34 20,2 C 20,2 C 79 % 1016,0 hPa 0,0 mm 0,0 km/h (0 Bft) NO 56 0 min 0,000 mm 0,7 UV-I 100 W/m 16,4 C 0,0 km/h (0 Bft)
11.09.2016 17:35 20,2 C 20,2 C 79 % 1016,1 hPa 0,0 mm 0,0 km/h (0 Bft) NO 56 0 min 0,000 mm 0,7 UV-I 100 W/m 16,4 C 0,0 km/h (0 Bft)
11.09.2016 17:36 20,2 C 20,2 C 80 % 1015,9 hPa 0,0 mm 0,0 km/h (0 Bft) NO 56 0 min 0,000 mm 0,7 UV-I 98 W/m 16,6 C 0,0 km/h (0 Bft)
11.09.2016 17:37 20,2 C 20,2 C 80 % 1016,0 hPa 0,0 mm 0,0 km/h (0 Bft) NO 56 0 min 0,000 mm 0,7 UV-I 98 W/m 16,6 C 0,0 km/h (0 Bft)
11.09.2016 17:38 20,2 C 20,2 C 82 % 1015,9 hPa 0,0 mm 0,0 km/h (0 Bft) NO 56 0 min 0,000 mm 0,7 UV-I 97 W/m 17,0 C 0,0 km/h (0 Bft)
11.09.2016 17:39 20,2 C 20,2 C 79 % 1015,9 hPa 0,0 mm 0,0 km/h (0 Bft) NO 56 0 min 0,000 mm 0,7 UV-I 97 W/m 16,4 C 0,0 km/h (0 Bft)
11.09.2016 17:40 20,2 C 20,2 C 79 % 1015,8 hPa 0,0 mm 0,0 km/h (0 Bft) NO 56 0 min 0,000 mm 0,6 UV-I 95 W/m 16,4 C 0,0 km/h (0 Bft)
11.09.2016 17:41 20,2 C 20,2 C 79 % 1015,8 hPa 0,0 mm 0,0 km/h (0 Bft) NO 56 0 min 0,000 mm 0,6 UV-I 93 W/m 16,4 C 0,0 km/h (0 Bft)
11.09.2016 17:42 20,1 C 20,2 C 81 % 1015,8 hPa 0,0 mm 0,0 km/h (0 Bft) NO 56 0 min 0,000 mm 0,6 UV-I 91 W/m 16,7 C 0,0 km/h (0 Bft)
11.09.2016 17:43 20,1 C 20,2 C 80 % 1015,8 hPa 0,0 mm 0,0 km/h (0 Bft) NO 56 0 min 0,000 mm 0,6 UV-I 91 W/m 16,5 C 0,0 km/h (0 Bft)
11.09.2016 17:44 20,1 C 20,1 C 82 % 1015,9 hPa 0,0 mm 0,0 km/h (0 Bft) NO 56 0 min 0,000 mm 0,6 UV-I 91 W/m 16,9 C 0,0 km/h (0 Bft)
11.09.2016 17:45 20,1 C 20,1 C 80 % 1015,9 hPa 0,0 mm 0,0 km/h (0 Bft) NO 56 0 min 0,000 mm 0,6 UV-I 88 W/m 16,5 C 0,0 km/h (0 Bft)
11.09.2016 17:46 20,1 C 20,1 C 81 % 1015,8 hPa 0,0 mm 0,0 km/h (0 Bft) NO 56 0 min 0,000 mm 0,6 UV-I 86 W/m 16,7 C 0,0 km/h (0 Bft)
11.09.2016 17:47 20,1 C 20,1 C 80 % 1015,8 hPa 0,0 mm 0,0 km/h (0 Bft) NO 56 0 min 0,000 mm 0,6 UV-I 84 W/m 16,5 C 0,0 km/h (0 Bft)
11.09.2016 17:48 20,0 C 20,1 C 80 % 1015,9 hPa 0,0 mm 0,0 km/h (0 Bft) NO 56 0 min 0,000 mm 0,6 UV-I 83 W/m 16,4 C 0,0 km/h (0 Bft)
11.09.2016 17:49 20,0 C 20,0 C 79 % 1015,9 hPa 0,0 mm 0,0 km/h (0 Bft) NO 56 0 min 0,000 mm 0,6 UV-I 83 W/m 16,2 C 0,0 km/h (0 Bft)
11.09.2016 17:50 20,1 C 20,1 C 79 % 1015,9 hPa 0,0 mm 0,0 km/h (0 Bft) NO 56 0 min 0,000 mm 0,6 UV-I 81 W/m 16,3 C 0,0 km/h (0 Bft)
11.09.2016 17:51 20,1 C 20,1 C 81 % 1015,9 hPa 0,0 mm 0,0 km/h (0 Bft) NO 56 0 min 0,000 mm 0,5 UV-I 79 W/m 16,7 C 0,0 km/h (0 Bft)
11.09.2016 17:52 20,0 C 20,1 C 80 % 1015,9 hPa 0,0 mm 0,9 km/h (0 Bft) NO 56 0 min 0,000 mm 0,5 UV-I 77 W/m 16,4 C 1,6 km/h (1 Bft)
11.09.2016 17:53 20,1 C 20,1 C 80 % 1015,8 hPa 0,0 mm 0,3 km/h (0 Bft) NO 56 0 min 0,000 mm 0,5 UV-I 77 W/m 16,5 C 1,6 km/h (1 Bft)
11.09.2016 17:54 20,0 C 20,1 C 80 % 1015,9 hPa 0,0 mm 0,0 km/h (0 Bft) NO 56 0 min 0,000 mm 0,5 UV-I 76 W/m 16,4 C 0,0 km/h (0 Bft)
11.09.2016 17:55 19,9 C 20,0 C 81 % 1015,8 hPa 0,0 mm 0,0 km/h (0 Bft) NO 56 0 min 0,000 mm 0,5 UV-I 74 W/m 16,5 C 0,0 km/h (0 Bft)
11.09.2016 17:56 19,9 C 19,9 C 82 % 1015,9 hPa 0,0 mm 0,0 km/h (0 Bft) NO 56 0 min 0,000 mm 0,5 UV-I 74 W/m 16,7 C 0,0 km/h (0 Bft)
11.09.2016 17:57 19,8 C 19,9 C 83 % 1015,9 hPa 0,0 mm 0,0 km/h (0 Bft) NO 56 0 min 0,000 mm 0,5 UV-I 72 W/m 16,8 C 0,0 km/h (0 Bft)
11.09.2016 17:58 19,8 C 19,8 C 84 % 1015,8 hPa 0,0 mm 0,0 km/h (0 Bft) NO 56 0 min 0,000 mm 0,5 UV-I 70 W/m 17,0 C 0,0 km/h (0 Bft)
11.09.2016 17:59 19,7 C 19,8 C 84 % 1015,9 hPa 0,0 mm 0,0 km/h (0 Bft) NO 56 0 min 0,000 mm 0,5 UV-I 69 W/m 16,9 C 0,0 km/h (0 Bft)
11.09.2016 18:00 19,6 C 19,7 C 81 % 1015,8 hPa 0,0 mm 0,0 km/h (0 Bft) NO 56 0 min 0,051 mm 0,5 UV-I 69 W/m 16,2 C 0,0 km/h (0 Bft)
11.09.2016 18:01 19,7 C 19,7 C 80 % 1015,9 hPa 0,0 mm 0,0 km/h (0 Bft) NO 56 0 min 0,000 mm 0,5 UV-I 67 W/m 16,1 C 0,0 km/h (0 Bft)
11.09.2016 18:02 19,7 C 19,7 C 80 % 1015,8 hPa 0,0 mm 0,0 km/h (0 Bft) NO 56 0 min 0,000 mm 0,5 UV-I 67 W/m 16,1 C 0,0 km/h (0 Bft)
11.09.2016 18:03 19,7 C 19,8 C 81 % 1015,8 hPa 0,0 mm 0,0 km/h (0 Bft) NO 56 0 min 0,000 mm 0,5 UV-I 63 W/m 16,3 C 0,0 km/h (0 Bft)
11.09.2016 18:04 19,7 C 19,7 C 81 % 1015,8 hPa 0,0 mm 0,0 km/h (0 Bft) NO 56 0 min 0,000 mm 0,5 UV-I 63 W/m 16,3 C 0,0 km/h (0 Bft)
11.09.2016 18:05 19,7 C 19,7 C 81 % 1015,8 hPa 0,0 mm 0,0 km/h (0 Bft) NO 56 0 min 0,000 mm 0,5 UV-I 62 W/m 16,3 C 0,0 km/h (0 Bft)
11.09.2016 18:06 19,7 C 19,7 C 81 % 1015,9 hPa 0,0 mm 0,0 km/h (0 Bft) NO 56 0 min 0,000 mm 0,5 UV-I 62 W/m 16,3 C 0,0 km/h (0 Bft)
11.09.2016 18:07 19,7 C 19,7 C 81 % 1015,9 hPa 0,0 mm 0,0 km/h (0 Bft) NO 56 0 min 0,000 mm 0,5 UV-I 60 W/m 16,3 C 0,0 km/h (0 Bft)
11.09.2016 18:08 19,6 C 19,7 C 83 % 1015,9 hPa 0,0 mm 0,0 km/h (0 Bft) NO 56 0 min 0,000 mm 0,0 UV-I 58 W/m 16,6 C 0,0 km/h (0 Bft)
11.09.2016 18:09 19,6 C 19,6 C 81 % 1015,9 hPa 0,0 mm 0,0 km/h (0 Bft) NO 56 0 min 0,000 mm 0,0 UV-I 58 W/m 16,2 C 0,0 km/h (0 Bft)
11.09.2016 18:10 19,6 C 19,6 C 82 % 1015,9 hPa 0,0 mm 0,0 km/h (0 Bft) NO 56 0 min 0,000 mm 0,0 UV-I 56 W/m 16,4 C 0,0 km/h (0 Bft)
11.09.2016 18:11 19,4 C 19,6 C 83 % 1016,0 hPa 0,0 mm 0,0 km/h (0 Bft) NO 56 0 min 0,000 mm 0,0 UV-I 56 W/m 16,4 C 0,0 km/h (0 Bft)
11.09.2016 18:12 19,4 C 19,4 C 82 % 1016,0 hPa 0,0 mm 0,0 km/h (0 Bft) NO 56 0 min 0,000 mm 0,0 UV-I 54 W/m 16,2 C 0,0 km/h (0 Bft)
11.09.2016 18:13 19,4 C 19,4 C 83 % 1016,0 hPa 0,0 mm 0,0 km/h (0 Bft) NO 56 0 min 0,000 mm 0,0 UV-I 54 W/m 16,4 C 0,0 km/h (0 Bft)
11.09.2016 18:14 19,3 C 19,4 C 81 % 1016,0 hPa 0,0 mm 0,0 km/h (0 Bft) NO 56 0 min 0,000 mm 0,0 UV-I 53 W/m 16,0 C 0,0 km/h (0 Bft)
11.09.2016 18:15 19,4 C 19,4 C 83 % 1016,0 hPa 0,0 mm 0,0 km/h (0 Bft) NO 56 0 min 0,000 mm 0,0 UV-I 53 W/m 16,4 C 0,0 km/h (0 Bft)
11.09.2016 18:16 19,3 C 19,4 C 82 % 1016,0 hPa 0,0 mm 0,0 km/h (0 Bft) NO 56 0 min 0,000 mm 0,0 UV-I 51 W/m 16,1 C 0,0 km/h (0 Bft)
11.09.2016 18:17 19,3 C 19,4 C 82 % 1016,1 hPa 0,0 mm 0,0 km/h (0 Bft) NO 56 0 min 0,000 mm 0,0 UV-I 51 W/m 16,1 C 0,0 km/h (0 Bft)
11.09.2016 18:18 19,4 C 19,4 C 82 % 1016,0 hPa 0,0 mm 0,0 km/h (0 Bft) NO 56 0 min 0,000 mm 0,0 UV-I 49 W/m 16,2 C 0,0 km/h (0 Bft)
11.09.2016 18:19 19,4 C 19,4 C 82 % 1016,1 hPa 0,0 mm 0,0 km/h (0 Bft) NO 56 0 min 0,000 mm 0,0 UV-I 49 W/m 16,2 C 0,0 km/h (0 Bft)
11.09.2016 18:20 19,4 C 19,4 C 80 % 1016,1 hPa 0,0 mm 0,0 km/h (0 Bft) NO 55 0 min 0,000 mm 0,0 UV-I 47 W/m 15,9 C 0,0 km/h (0 Bft)
11.09.2016 18:21 19,4 C 19,4 C 81 % 1016,1 hPa 0,0 mm 0,0 km/h (0 Bft) NO 55 0 min 0,000 mm 0,0 UV-I 47 W/m 16,1 C 0,0 km/h (0 Bft)
11.09.2016 18:22 19,4 C 19,4 C 82 % 1016,1 hPa 0,0 mm 0,0 km/h (0 Bft) NO 55 0 min 0,000 mm 0,0 UV-I 46 W/m 16,2 C 0,0 km/h (0 Bft)
11.09.2016 18:23 19,3 C 19,4 C 83 % 1016,1 hPa 0,0 mm 0,0 km/h (0 Bft) NO 55 0 min 0,000 mm 0,0 UV-I 46 W/m 16,3 C 0,0 km/h (0 Bft)
11.09.2016 18:24 19,2 C 19,3 C 83 % 1016,1 hPa 0,0 mm 0,0 km/h (0 Bft) NO 55 0 min 0,000 mm 0,0 UV-I 44 W/m 16,2 C 0,0 km/h (0 Bft)
11.09.2016 18:25 19,1 C 19,2 C 83 % 1016,1 hPa 0,0 mm 0,0 km/h (0 Bft) NO 55 0 min 0,000 mm 0,0 UV-I 44 W/m 16,1 C 0,0 km/h (0 Bft)
11.09.2016 18:26 19,1 C 19,1 C 83 % 1016,1 hPa 0,0 mm 0,0 km/h (0 Bft) NO 55 0 min 0,000 mm 0,0 UV-I 42 W/m 16,1 C 0,0 km/h (0 Bft)
11.09.2016 18:27 19,1 C 19,1 C 83 % 1016,1 hPa 0,0 mm 0,0 km/h (0 Bft) NO 55 0 min 0,000 mm 0,0 UV-I 42 W/m 16,1 C 0,0 km/h (0 Bft)
11.09.2016 18:28 19,1 C 19,1 C 83 % 1016,1 hPa 0,0 mm 0,0 km/h (0 Bft) NO 55 0 min 0,000 mm 0,0 UV-I 42 W/m 16,1 C 0,0 km/h (0 Bft)
11.09.2016 18:29 19,0 C 19,1 C 83 % 1016,1 hPa 0,0 mm 0,0 km/h (0 Bft) NO 55 0 min 0,000 mm 0,0 UV-I 42 W/m 16,0 C 0,0 km/h (0 Bft)
11.09.2016 18:30 19,0 C 19,1 C 82 % 1016,1 hPa 0,0 mm 0,0 km/h (0 Bft) NO 55 0 min 0,000 mm 0,0 UV-I 40 W/m 15,9 C 0,0 km/h (0 Bft)
11.09.2016 18:31 18,9 C 19,0 C 82 % 1016,1 hPa 0,0 mm 0,0 km/h (0 Bft) NO 55 0 min 0,000 mm 0,0 UV-I 40 W/m 15,8 C 0,0 km/h (0 Bft)
11.09.2016 18:32 18,9 C 18,9 C 82 % 1016,1 hPa 0,0 mm 0,0 km/h (0 Bft) SO 141 0 min 0,000 mm 0,0 UV-I 39 W/m 15,8 C 0,0 km/h (0 Bft)
11.09.2016 18:33 19,1 C 19,1 C 80 % 1016,1 hPa 0,0 mm 0,0 km/h (0 Bft) SO 135 0 min 0,000 mm 0,0 UV-I 39 W/m 15,6 C 0,0 km/h (0 Bft)
11.09.2016 18:34 19,2 C 19,2 C 81 % 1016,1 hPa 0,0 mm 0,0 km/h (0 Bft) SO 135 0 min 0,000 mm 0,0 UV-I 39 W/m 15,9 C 0,0 km/h (0 Bft)
11.09.2016 18:35 19,2 C 19,2 C 81 % 1016,2 hPa 0,0 mm 0,0 km/h (0 Bft) SO 135 0 min 0,000 mm 0,0 UV-I 37 W/m 15,9 C 0,0 km/h (0 Bft)
11.09.2016 18:36 19,2 C 19,2 C 81 % 1016,1 hPa 0,0 mm 0,0 km/h (0 Bft) SO 135 0 min 0,000 mm 0,0 UV-I 37 W/m 15,9 C 0,0 km/h (0 Bft)
11.09.2016 18:37 19,1 C 19,2 C 81 % 1016,1 hPa 0,0 mm 0,0 km/h (0 Bft) SO 135 0 min 0,000 mm 0,0 UV-I 37 W/m 15,8 C 0,0 km/h (0 Bft)
11.09.2016 18:38 19,1 C 19,2 C 82 % 1016,2 hPa 0,0 mm 0,0 km/h (0 Bft) SO 135 0 min 0,000 mm 0,0 UV-I 35 W/m 16,0 C 0,0 km/h (0 Bft)
11.09.2016 18:39 18,9 C 19,1 C 82 % 1016,2 hPa 0,0 mm 0,0 km/h (0 Bft) SO 131 0 min 0,000 mm 0,0 UV-I 35 W/m 15,8 C 0,0 km/h (0 Bft)
11.09.2016 18:40 18,9 C 18,9 C 82 % 1016,1 hPa 0,0 mm 0,0 km/h (0 Bft) SO 131 0 min 0,000 mm 0,0 UV-I 35 W/m 15,8 C 0,0 km/h (0 Bft)
11.09.2016 18:41 18,8 C 18,9 C 82 % 1016,1 hPa 0,0 mm 0,0 km/h (0 Bft) SO 131 0 min 0,000 mm 0,0 UV-I 35 W/m 15,7 C 0,0 km/h (0 Bft)
11.09.2016 18:42 18,8 C 18,9 C 81 % 1016,1 hPa 0,0 mm 0,0 km/h (0 Bft) SO 131 0 min 0,000 mm 0,0 UV-I 35 W/m 15,5 C 0,0 km/h (0 Bft)
11.09.2016 18:43 18,8 C 18,8 C 81 % 1016,1 hPa 0,0 mm 0,0 km/h (0 Bft) SO 131 0 min 0,000 mm 0,0 UV-I 33 W/m 15,5 C 0,0 km/h (0 Bft)
11.09.2016 18:44 18,8 C 18,8 C 81 % 1016,1 hPa 0,0 mm 0,0 km/h (0 Bft) SO 131 0 min 0,000 mm 0,0 UV-I 33 W/m 15,5 C 0,0 km/h (0 Bft)
11.09.2016 18:45 18,8 C 18,8 C 81 % 1016,1 hPa 0,0 mm 0,0 km/h (0 Bft) SO 131 0 min 0,000 mm 0,0 UV-I 33 W/m 15,5 C 0,0 km/h (0 Bft)
11.09.2016 18:46 18,8 C 18,8 C 81 % 1016,1 hPa 0,0 mm 0,0 km/h (0 Bft) SO 131 0 min 0,000 mm 0,0 UV-I 32 W/m 15,5 C 0,0 km/h (0 Bft)
11.09.2016 18:47 18,8 C 18,8 C 80 % 1016,1 hPa 0,0 mm 0,0 km/h (0 Bft) SO 131 0 min 0,000 mm 0,0 UV-I 32 W/m 15,3 C 0,0 km/h (0 Bft)
11.09.2016 18:48 18,8 C 18,8 C 81 % 1016,0 hPa 0,0 mm 0,0 km/h (0 Bft) SO 131 0 min 0,000 mm 0,0 UV-I 32 W/m 15,5 C 0,0 km/h (0 Bft)
11.09.2016 18:49 18,8 C 18,8 C 81 % 1016,0 hPa 0,0 mm 0,0 km/h (0 Bft) SO 131 0 min 0,000 mm 0,0 UV-I 30 W/m 15,5 C 0,0 km/h (0 Bft)
11.09.2016 18:50 18,8 C 18,8 C 81 % 1016,0 hPa 0,0 mm 0,0 km/h (0 Bft) SO 131 0 min 0,000 mm 0,0 UV-I 30 W/m 15,5 C 0,0 km/h (0 Bft)
11.09.2016 18:51 18,7 C 18,8 C 81 % 1016,0 hPa 0,0 mm 0,0 km/h (0 Bft) SO 131 0 min 0,000 mm 0,0 UV-I 30 W/m 15,4 C 0,0 km/h (0 Bft)
11.09.2016 18:52 18,7 C 18,7 C 81 % 1016,0 hPa 0,0 mm 0,0 km/h (0 Bft) SO 131 0 min 0,000 mm 0,0 UV-I 28 W/m 15,4 C 0,0 km/h (0 Bft)
11.09.2016 18:53 18,7 C 18,7 C 81 % 1015,9 hPa 0,0 mm 0,0 km/h (0 Bft) SO 131 0 min 0,000 mm 0,0 UV-I 28 W/m 15,4 C 0,0 km/h (0 Bft)
11.09.2016 18:54 18,6 C 18,7 C 81 % 1015,9 hPa 0,0 mm 0,0 km/h (0 Bft) SO 131 0 min 0,000 mm 0,0 UV-I 28 W/m 15,3 C 0,0 km/h (0 Bft)
11.09.2016 18:55 18,6 C 18,6 C 82 % 1016,0 hPa 0,0 mm 0,0 km/h (0 Bft) SO 131 0 min 0,000 mm 0,0 UV-I 26 W/m 15,5 C 0,0 km/h (0 Bft)
11.09.2016 18:56 18,4 C 18,6 C 82 % 1016,0 hPa 0,0 mm 0,0 km/h (0 Bft) SO 131 0 min 0,000 mm 0,0 UV-I 26 W/m 15,3 C 0,0 km/h (0 Bft)
11.09.2016 18:57 18,3 C 18,4 C 82 % 1016,0 hPa 0,0 mm 0,0 km/h (0 Bft) SO 131 0 min 0,000 mm 0,0 UV-I 25 W/m 15,2 C 0,0 km/h (0 Bft)
11.09.2016 18:58 18,2 C 18,3 C 82 % 1016,1 hPa 0,0 mm 0,0 km/h (0 Bft) SO 131 0 min 0,000 mm 0,0 UV-I 25 W/m 15,1 C 0,0 km/h (0 Bft)
11.09.2016 18:59 18,1 C 18,2 C 83 % 1016,1 hPa 0,0 mm 0,0 km/h (0 Bft) SO 131 0 min 0,000 mm 0,0 UV-I 23 W/m 15,2 C 0,0 km/h (0 Bft)
11.09.2016 19:00 18,1 C 18,1 C 83 % 1016,1 hPa 0,0 mm 0,0 km/h (0 Bft) SO 131 0 min 0,000 mm 0,0 UV-I 23 W/m 15,2 C 0,0 km/h (0 Bft)
11.09.2016 19:01 18,0 C 18,1 C 84 % 1016,1 hPa 0,0 mm 0,0 km/h (0 Bft) SO 131 0 min 0,025 mm 0,0 UV-I 21 W/m 15,3 C 0,0 km/h (0 Bft)
11.09.2016 19:02 17,9 C 18,0 C 84 % 1016,0 hPa 0,0 mm 0,0 km/h (0 Bft) SO 131 0 min 0,001 mm 0,0 UV-I 21 W/m 15,2 C 0,0 km/h (0 Bft)
11.09.2016 19:03 17,9 C 17,9 C 84 % 1016,1 hPa 0,0 mm 0,0 km/h (0 Bft) SO 131 0 min 0,000 mm 0,0 UV-I 21 W/m 15,2 C 0,0 km/h (0 Bft)
11.09.2016 19:04 17,9 C 17,9 C 84 % 1016,1 hPa 0,0 mm 0,0 km/h (0 Bft) SO 131 0 min 0,000 mm 0,0 UV-I 19 W/m 15,2 C 0,0 km/h (0 Bft)
11.09.2016 19:05 17,9 C 17,9 C 84 % 1016,1 hPa 0,0 mm 0,0 km/h (0 Bft) SO 131 0 min 0,000 mm 0,0 UV-I 19 W/m 15,2 C 0,0 km/h (0 Bft)
11.09.2016 19:06 17,9 C 17,9 C 84 % 1016,1 hPa 0,0 mm 0,0 km/h (0 Bft) SO 131 0 min 0,000 mm 0,0 UV-I 19 W/m 15,2 C 0,0 km/h (0 Bft)
11.09.2016 19:07 17,9 C 17,9 C 84 % 1016,1 hPa 0,0 mm 0,0 km/h (0 Bft) SO 131 0 min 0,000 mm 0,0 UV-I 18 W/m 15,2 C 0,0 km/h (0 Bft)
11.09.2016 19:08 17,9 C 17,9 C 84 % 1016,1 hPa 0,0 mm 0,0 km/h (0 Bft) SO 133 0 min 0,000 mm 0,0 UV-I 18 W/m 15,2 C 0,0 km/h (0 Bft)
11.09.2016 19:09 17,9 C 17,9 C 83 % 1016,1 hPa 0,0 mm 0,0 km/h (0 Bft) SO 133 0 min 0,000 mm 0,0 UV-I 16 W/m 15,0 C 0,0 km/h (0 Bft)
11.09.2016 19:10 17,9 C 17,9 C 83 % 1016,1 hPa 0,0 mm 0,0 km/h (0 Bft) SO 133 0 min 0,000 mm 0,0 UV-I 16 W/m 15,0 C 0,0 km/h (0 Bft)
11.09.2016 19:11 17,9 C 17,9 C 83 % 1016,1 hPa 0,0 mm 0,0 km/h (0 Bft) SO 133 0 min 0,000 mm 0,0 UV-I 16 W/m 15,0 C 0,0 km/h (0 Bft)
11.09.2016 19:12 17,9 C 17,9 C 83 % 1016,2 hPa 0,0 mm 0,0 km/h (0 Bft) SO 133 0 min 0,000 mm 0,0 UV-I 14 W/m 15,0 C 0,0 km/h (0 Bft)
11.09.2016 19:13 17,9 C 17,9 C 83 % 1016,2 hPa 0,0 mm 0,0 km/h (0 Bft) SO 133 0 min 0,000 mm 0,0 UV-I 14 W/m 15,0 C 0,0 km/h (0 Bft)
11.09.2016 19:14 17,9 C 17,9 C 83 % 1016,1 hPa 0,0 mm 0,0 km/h (0 Bft) SO 133 0 min 0,000 mm 0,0 UV-I 12 W/m 15,0 C 0,0 km/h (0 Bft)
11.09.2016 19:15 17,8 C 17,9 C 83 % 1016,2 hPa 0,0 mm 0,0 km/h (0 Bft) SO 133 0 min 0,000 mm 0,0 UV-I 12 W/m 14,9 C 0,0 km/h (0 Bft)
11.09.2016 19:16 17,8 C 17,8 C 83 % 1016,2 hPa 0,0 mm 0,0 km/h (0 Bft) SO 131 0 min 0,000 mm 0,0 UV-I 12 W/m 14,9 C 0,0 km/h (0 Bft)
11.09.2016 19:17 17,8 C 17,8 C 83 % 1016,3 hPa 0,0 mm 0,0 km/h (0 Bft) SO 131 0 min 0,000 mm 0,0 UV-I 12 W/m 14,9 C 0,0 km/h (0 Bft)
11.09.2016 19:18 17,8 C 17,8 C 83 % 1016,2 hPa 0,0 mm 0,0 km/h (0 Bft) SO 131 0 min 0,000 mm 0,0 UV-I 11 W/m 14,9 C 0,0 km/h (0 Bft)
11.09.2016 19:19 17,8 C 17,8 C 83 % 1016,3 hPa 0,0 mm 0,0 km/h (0 Bft) SO 131 0 min 0,000 mm 0,0 UV-I 11 W/m 14,9 C 0,0 km/h (0 Bft)
11.09.2016 19:20 17,8 C 17,8 C 83 % 1016,2 hPa 0,0 mm 0,0 km/h (0 Bft) SO 131 0 min 0,000 mm 0,0 UV-I 9 W/m 14,9 C 0,0 km/h (0 Bft)
11.09.2016 19:21 17,7 C 17,8 C 83 % 1016,3 hPa 0,0 mm 0,0 km/h (0 Bft) SO 131 0 min 0,000 mm 0,0 UV-I 9 W/m 14,8 C 0,0 km/h (0 Bft)
11.09.2016 19:22 17,7 C 17,7 C 83 % 1016,3 hPa 0,0 mm 0,0 km/h (0 Bft) SO 131 0 min 0,000 mm 0,0 UV-I 9 W/m 14,8 C 0,0 km/h (0 Bft)
11.09.2016 19:23 17,7 C 17,7 C 83 % 1016,3 hPa 0,0 mm 0,0 km/h (0 Bft) SO 131 0 min 0,000 mm 0,0 UV-I 9 W/m 14,8 C 0,0 km/h (0 Bft)
11.09.2016 19:24 17,6 C 17,7 C 83 % 1016,3 hPa 0,0 mm 0,0 km/h (0 Bft) SO 131 0 min 0,000 mm 0,0 UV-I 7 W/m 14,7 C 0,0 km/h (0 Bft)
11.09.2016 19:25 17,6 C 17,6 C 83 % 1016,3 hPa 0,0 mm 0,7 km/h (0 Bft) SO 131 0 min 0,000 mm 0,0 UV-I 7 W/m 14,7 C 1,6 km/h (1 Bft)
11.09.2016 19:26 17,6 C 17,6 C 83 % 1016,3 hPa 0,0 mm 0,2 km/h (0 Bft) SO 131 0 min 0,000 mm 0,0 UV-I 7 W/m 14,7 C 1,6 km/h (1 Bft)
11.09.2016 19:27 17,6 C 17,6 C 84 % 1016,4 hPa 0,0 mm 0,0 km/h (0 Bft) SO 131 0 min 0,000 mm 0,0 UV-I 5 W/m 14,9 C 0,0 km/h (0 Bft)
11.09.2016 19:28 17,6 C 17,6 C 84 % 1016,4 hPa 0,0 mm 0,8 km/h (0 Bft) SO 131 0 min 0,000 mm 0,0 UV-I 5 W/m 14,9 C 1,6 km/h (1 Bft)
11.09.2016 19:29 17,6 C 17,6 C 84 % 1016,4 hPa 0,0 mm 0,8 km/h (0 Bft) SO 131 0 min 0,000 mm 0,0 UV-I 5 W/m 14,9 C 1,6 km/h (1 Bft)
11.09.2016 19:30 17,5 C 17,6 C 84 % 1016,4 hPa 0,0 mm 1,0 km/h (0 Bft) SO 131 0 min 0,000 mm 0,0 UV-I 5 W/m 14,8 C 3,2 km/h (1 Bft)
11.09.2016 19:31 17,4 C 17,5 C 84 % 1016,4 hPa 0,0 mm 0,0 km/h (0 Bft) SO 131 0 min 0,000 mm 0,0 UV-I 0 W/m 14,7 C 0,0 km/h (0 Bft)
11.09.2016 19:32 17,4 C 17,4 C 84 % 1016,4 hPa 0,0 mm 0,2 km/h (0 Bft) SO 131 0 min 0,000 mm 0,0 UV-I 0 W/m 14,7 C 1,6 km/h (1 Bft)
11.09.2016 19:33 17,4 C 17,4 C 84 % 1016,5 hPa 0,0 mm 0,4 km/h (0 Bft) SO 131 0 min 0,000 mm 0,0 UV-I 0 W/m 14,7 C 1,6 km/h (1 Bft)
11.09.2016 19:34 17,4 C 17,4 C 84 % 1016,5 hPa 0,0 mm 0,3 km/h (0 Bft) SO 131 0 min 0,000 mm 0,0 UV-I 0 W/m 14,7 C 1,6 km/h (1 Bft)
11.09.2016 19:35 17,4 C 17,4 C 84 % 1016,4 hPa 0,0 mm 1,2 km/h (1 Bft) SO 131 0 min 0,000 mm 0,0 UV-I 0 W/m 14,7 C 1,6 km/h (1 Bft)
11.09.2016 19:36 17,3 C 17,4 C 84 % 1016,4 hPa 0,0 mm 0,6 km/h (0 Bft) SO 131 0 min 0,000 mm 0,0 UV-I 0 W/m 14,6 C 1,6 km/h (1 Bft)
11.09.2016 19:37 17,3 C 17,4 C 84 % 1016,4 hPa 0,0 mm 1,1 km/h (1 Bft) SO 131 0 min 0,000 mm 0,0 UV-I 0 W/m 14,6 C 3,2 km/h (1 Bft)
11.09.2016 19:38 17,3 C 17,3 C 85 % 1016,5 hPa 0,0 mm 0,4 km/h (0 Bft) SO 131 0 min 0,000 mm 0,0 UV-I 0 W/m 14,8 C 1,6 km/h (1 Bft)
11.09.2016 19:39 17,3 C 17,3 C 85 % 1016,5 hPa 0,0 mm 0,0 km/h (0 Bft) SO 131 0 min 0,000 mm 0,0 UV-I 0 W/m 14,8 C 0,0 km/h (0 Bft)
11.09.2016 19:40 17,3 C 17,3 C 84 % 1016,5 hPa 0,0 mm 0,0 km/h (0 Bft) SO 131 0 min 0,000 mm 0,0 UV-I 0 W/m 14,6 C 0,0 km/h (0 Bft)
11.09.2016 19:41 17,3 C 17,3 C 84 % 1016,5 hPa 0,0 mm 0,1 km/h (0 Bft) SO 131 0 min 0,000 mm 0,0 UV-I 0 W/m 14,6 C 1,6 km/h (1 Bft)
11.09.2016 19:42 17,2 C 17,3 C 85 % 1016,5 hPa 0,0 mm 0,4 km/h (0 Bft) SO 131 0 min 0,000 mm 0,0 UV-I 0 W/m 14,7 C 1,6 km/h (1 Bft)
11.09.2016 19:43 17,2 C 17,2 C 85 % 1016,5 hPa 0,0 mm 2,7 km/h (1 Bft) S-SW 198 0 min 0,000 mm 0,0 UV-I 0 W/m 14,7 C 4,8 km/h (1 Bft)
11.09.2016 19:44 17,2 C 17,2 C 84 % 1016,5 hPa 0,0 mm 1,2 km/h (1 Bft) S-SW 198 0 min 0,000 mm 0,0 UV-I 0 W/m 14,5 C 1,6 km/h (1 Bft)
11.09.2016 19:45 17,1 C 17,2 C 84 % 1016,5 hPa 0,0 mm 2,8 km/h (1 Bft) O 93 0 min 0,000 mm 0,0 UV-I 0 W/m 14,4 C 4,8 km/h (1 Bft)
11.09.2016 19:46 17,1 C 17,2 C 84 % 1016,5 hPa 0,0 mm 0,6 km/h (0 Bft) O 93 0 min 0,000 mm 0,0 UV-I 0 W/m 14,4 C 1,6 km/h (1 Bft)
11.09.2016 19:47 17,1 C 17,1 C 85 % 1016,5 hPa 0,0 mm 1,0 km/h (0 Bft) O 93 0 min 0,000 mm 0,0 UV-I 0 W/m 14,6 C 3,2 km/h (1 Bft)
11.09.2016 19:48 17,1 C 17,1 C 84 % 1016,5 hPa 0,0 mm 0,3 km/h (0 Bft) O 93 0 min 0,000 mm 0,0 UV-I 0 W/m 14,4 C 1,6 km/h (1 Bft)
11.09.2016 19:49 17,1 C 17,1 C 85 % 1016,5 hPa 0,0 mm 0,9 km/h (0 Bft) O 93 0 min 0,000 mm 0,0 UV-I 0 W/m 14,6 C 1,6 km/h (1 Bft)
11.09.2016 19:50 17,1 C 17,1 C 86 % 1016,5 hPa 0,0 mm 0,7 km/h (0 Bft) NO 55 0 min 0,000 mm 0,0 UV-I 0 W/m 14,7 C 1,6 km/h (1 Bft)
11.09.2016 19:51 17,1 C 17,1 C 86 % 1016,5 hPa 0,0 mm 0,7 km/h (0 Bft) NO 55 0 min 0,000 mm 0,0 UV-I 0 W/m 14,7 C 3,2 km/h (1 Bft)
11.09.2016 19:52 17,0 C 17,1 C 85 % 1016,5 hPa 0,0 mm 0,0 km/h (0 Bft) NO 55 0 min 0,000 mm 0,0 UV-I 0 W/m 14,5 C 0,0 km/h (0 Bft)
11.09.2016 19:53 16,9 C 17,0 C 85 % 1016,5 hPa 0,0 mm 0,4 km/h (0 Bft) NO 55 0 min 0,000 mm 0,0 UV-I 0 W/m 14,4 C 1,6 km/h (1 Bft)
11.09.2016 19:54 16,9 C 16,9 C 85 % 1016,5 hPa 0,0 mm 1,6 km/h (1 Bft) O-SO 102 0 min 0,000 mm 0,0 UV-I 0 W/m 14,4 C 3,2 km/h (1 Bft)
11.09.2016 19:55 16,9 C 16,9 C 85 % 1016,5 hPa 0,0 mm 5,1 km/h (1 Bft) SO 146 0 min 0,000 mm 0,0 UV-I 0 W/m 14,4 C 6,4 km/h (2 Bft)
11.09.2016 19:56 16,9 C 16,9 C 85 % 1016,5 hPa 0,0 mm 2,3 km/h (1 Bft) S-SO 148 0 min 0,000 mm 0,0 UV-I 0 W/m 14,4 C 3,2 km/h (1 Bft)
11.09.2016 19:57 16,9 C 16,9 C 86 % 1016,5 hPa 0,0 mm 0,1 km/h (0 Bft) S-SO 148 0 min 0,000 mm 0,0 UV-I 0 W/m 14,5 C 1,6 km/h (1 Bft)
11.09.2016 19:58 16,9 C 16,9 C 86 % 1016,5 hPa 0,0 mm 0,2 km/h (0 Bft) S-SO 148 0 min 0,000 mm 0,0 UV-I 0 W/m 14,5 C 1,6 km/h (1 Bft)
11.09.2016 19:59 16,8 C 16,9 C 86 % 1016,6 hPa 0,0 mm 0,7 km/h (0 Bft) S-SO 148 0 min 0,000 mm 0,0 UV-I 0 W/m 14,4 C 3,2 km/h (1 Bft)
11.09.2016 20:00 16,9 C 16,9 C 86 % 1016,6 hPa 0,0 mm 0,9 km/h (0 Bft) W-SW 246 0 min 0,000 mm 0,0 UV-I 0 W/m 14,5 C 1,6 km/h (1 Bft)
11.09.2016 20:01 16,9 C 16,9 C 85 % 1016,5 hPa 0,0 mm 0,8 km/h (0 Bft) W-SW 242 0 min 0,000 mm 0,0 UV-I 0 W/m 14,4 C 3,2 km/h (1 Bft)
11.09.2016 20:02 16,9 C 16,9 C 86 % 1016,6 hPa 0,0 mm 0,9 km/h (0 Bft) W 272 0 min 0,000 mm 0,0 UV-I 0 W/m 14,5 C 1,6 km/h (1 Bft)
11.09.2016 20:03 16,9 C 16,9 C 85 % 1016,6 hPa 0,0 mm 2,1 km/h (1 Bft) SW 219 0 min 0,000 mm 0,0 UV-I 0 W/m 14,4 C 4,8 km/h (1 Bft)
11.09.2016 20:04 16,9 C 16,9 C 85 % 1016,6 hPa 0,0 mm 2,1 km/h (1 Bft) S-SO 162 0 min 0,000 mm 0,0 UV-I 0 W/m 14,4 C 3,2 km/h (1 Bft)
11.09.2016 20:05 16,9 C 16,9 C 85 % 1016,5 hPa 0,0 mm 1,0 km/h (0 Bft) S-SO 163 0 min 0,000 mm 0,0 UV-I 0 W/m 14,4 C 1,6 km/h (1 Bft)
11.09.2016 20:06 16,9 C 16,9 C 85 % 1016,5 hPa 0,0 mm 2,0 km/h (1 Bft) SW 236 0 min 0,000 mm 0,0 UV-I 0 W/m 14,4 C 3,2 km/h (1 Bft)
11.09.2016 20:07 16,9 C 16,9 C 85 % 1016,6 hPa 0,0 mm 0,8 km/h (0 Bft) SW 236 0 min 0,000 mm 0,0 UV-I 0 W/m 14,4 C 1,6 km/h (1 Bft)
11.09.2016 20:08 16,9 C 17,0 C 84 % 1016,6 hPa 0,0 mm 0,2 km/h (0 Bft) SW 236 0 min 0,000 mm 0,0 UV-I 0 W/m 14,2 C 1,6 km/h (1 Bft)
11.09.2016 20:09 16,9 C 17,0 C 85 % 1016,6 hPa 0,0 mm 0,5 km/h (0 Bft) SW 236 0 min 0,000 mm 0,0 UV-I 0 W/m 14,4 C 1,6 km/h (1 Bft)
11.09.2016 20:10 17,0 C 17,0 C 85 % 1016,6 hPa 0,0 mm 0,3 km/h (0 Bft) SW 236 0 min 0,000 mm 0,0 UV-I 0 W/m 14,5 C 1,6 km/h (1 Bft)
11.09.2016 20:11 16,9 C 17,0 C 85 % 1016,6 hPa 0,0 mm 0,3 km/h (0 Bft) SW 236 0 min 0,000 mm 0,0 UV-I 0 W/m 14,4 C 1,6 km/h (1 Bft)
11.09.2016 20:12 16,9 C 16,9 C 85 % 1016,7 hPa 0,0 mm 0,8 km/h (0 Bft) SW 236 0 min 0,000 mm 0,0 UV-I 0 W/m 14,4 C 1,6 km/h (1 Bft)
11.09.2016 20:13 16,9 C 16,9 C 85 % 1016,7 hPa 0,0 mm 0,3 km/h (0 Bft) SW 236 0 min 0,000 mm 0,0 UV-I 0 W/m 14,4 C 1,6 km/h (1 Bft)
11.09.2016 20:14 16,8 C 16,9 C 85 % 1016,6 hPa 0,0 mm 0,0 km/h (0 Bft) SW 236 0 min 0,000 mm 0,0 UV-I 0 W/m 14,3 C 0,0 km/h (0 Bft)
11.09.2016 20:15 16,8 C 16,8 C 84 % 1016,7 hPa 0,0 mm 0,0 km/h (0 Bft) SW 236 0 min 0,000 mm 0,0 UV-I 0 W/m 14,1 C 0,0 km/h (0 Bft)
11.09.2016 20:16 16,8 C 16,8 C 85 % 1016,7 hPa 0,0 mm 0,0 km/h (0 Bft) SW 236 0 min 0,000 mm 0,0 UV-I 0 W/m 14,3 C 0,0 km/h (0 Bft)
11.09.2016 20:17 16,8 C 16,8 C 85 % 1016,7 hPa 0,0 mm 0,0 km/h (0 Bft) SW 236 0 min 0,000 mm 0,0 UV-I 0 W/m 14,3 C 0,0 km/h (0 Bft)
11.09.2016 20:18 16,7 C 16,8 C 85 % 1016,7 hPa 0,0 mm 0,5 km/h (0 Bft) SW 236 0 min 0,000 mm 0,0 UV-I 0 W/m 14,2 C 1,6 km/h (1 Bft)
11.09.2016 20:19 16,7 C 16,7 C 85 % 1016,7 hPa 0,0 mm 0,0 km/h (0 Bft) SW 236 0 min 0,000 mm 0,0 UV-I 0 W/m 14,2 C 0,0 km/h (0 Bft)
11.09.2016 20:20 16,6 C 16,7 C 85 % 1016,7 hPa 0,0 mm 0,0 km/h (0 Bft) SW 236 0 min 0,000 mm 0,0 UV-I 0 W/m 14,1 C 0,0 km/h (0 Bft)
11.09.2016 20:21 16,6 C 16,6 C 86 % 1016,7 hPa 0,0 mm 0,0 km/h (0 Bft) SW 236 0 min 0,000 mm 0,0 UV-I 0 W/m 14,2 C 0,0 km/h (0 Bft)
11.09.2016 20:22 16,5 C 16,6 C 86 % 1016,7 hPa 0,0 mm 0,1 km/h (0 Bft) SW 236 0 min 0,000 mm 0,0 UV-I 0 W/m 14,1 C 1,6 km/h (1 Bft)
11.09.2016 20:23 16,4 C 16,5 C 86 % 1016,7 hPa 0,0 mm 0,7 km/h (0 Bft) SW 236 0 min 0,000 mm 0,0 UV-I 0 W/m 14,1 C 1,6 km/h (1 Bft)
11.09.2016 20:24 16,4 C 16,4 C 87 % 1016,6 hPa 0,0 mm 0,2 km/h (0 Bft) SW 236 0 min 0,000 mm 0,0 UV-I 0 W/m 14,2 C 1,6 km/h (1 Bft)
11.09.2016 20:25 16,4 C 16,4 C 87 % 1016,6 hPa 0,0 mm 0,3 km/h (0 Bft) SW 236 0 min 0,000 mm 0,0 UV-I 0 W/m 14,2 C 1,6 km/h (1 Bft)
11.09.2016 20:26 16,4 C 16,4 C 86 % 1016,6 hPa 0,0 mm 0,4 km/h (0 Bft) SW 236 0 min 0,000 mm 0,0 UV-I 0 W/m 14,1 C 1,6 km/h (1 Bft)
11.09.2016 20:27 16,3 C 16,4 C 87 % 1016,6 hPa 0,0 mm 0,1 km/h (0 Bft) SW 236 0 min 0,000 mm 0,0 UV-I 0 W/m 14,1 C 1,6 km/h (1 Bft)
11.09.2016 20:28 16,4 C 16,4 C 87 % 1016,6 hPa 0,0 mm 0,2 km/h (0 Bft) SW 236 0 min 0,000 mm 0,0 UV-I 0 W/m 14,2 C 1,6 km/h (1 Bft)
11.09.2016 20:29 16,3 C 16,4 C 87 % 1016,6 hPa 0,0 mm 0,2 km/h (0 Bft) SW 236 0 min 0,000 mm 0,0 UV-I 0 W/m 14,1 C 1,6 km/h (1 Bft)
11.09.2016 20:30 16,3 C 16,3 C 86 % 1016,6 hPa 0,0 mm 0,0 km/h (0 Bft) SW 236 0 min 0,000 mm 0,0 UV-I 0 W/m 14,0 C 0,0 km/h (0 Bft)
11.09.2016 20:31 16,3 C 16,3 C 87 % 1016,6 hPa 0,0 mm 0,0 km/h (0 Bft) SW 236 0 min 0,000 mm 0,0 UV-I 0 W/m 14,1 C 0,0 km/h (0 Bft)
11.09.2016 20:32 16,2 C 16,3 C 87 % 1016,6 hPa 0,0 mm 0,0 km/h (0 Bft) SW 236 0 min 0,000 mm 0,0 UV-I 0 W/m 14,0 C 0,0 km/h (0 Bft)
11.09.2016 20:33 16,3 C 16,3 C 87 % 1016,6 hPa 0,0 mm 0,0 km/h (0 Bft) SW 236 0 min 0,000 mm 0,0 UV-I 0 W/m 14,1 C 0,0 km/h (0 Bft)
11.09.2016 20:34 16,3 C 16,3 C 87 % 1016,6 hPa 0,0 mm 0,0 km/h (0 Bft) SW 236 0 min 0,000 mm 0,0 UV-I 0 W/m 14,1 C 0,0 km/h (0 Bft)
11.09.2016 20:35 16,2 C 16,3 C 86 % 1016,6 hPa 0,0 mm 0,4 km/h (0 Bft) SW 236 0 min 0,000 mm 0,0 UV-I 0 W/m 13,9 C 1,6 km/h (1 Bft)
11.09.2016 20:36 16,2 C 16,2 C 87 % 1016,6 hPa 0,0 mm 0,8 km/h (0 Bft) SW 236 0 min 0,000 mm 0,0 UV-I 0 W/m 14,0 C 1,6 km/h (1 Bft)
11.09.2016 20:37 16,2 C 16,2 C 87 % 1016,6 hPa 0,0 mm 1,4 km/h (1 Bft) SW 236 0 min 0,000 mm 0,0 UV-I 0 W/m 14,0 C 1,6 km/h (1 Bft)
11.09.2016 20:38 16,2 C 16,2 C 86 % 1016,7 hPa 0,0 mm 0,1 km/h (0 Bft) SW 236 0 min 0,000 mm 0,0 UV-I 0 W/m 13,9 C 1,6 km/h (1 Bft)
11.09.2016 20:39 16,2 C 16,2 C 86 % 1016,7 hPa 0,0 mm 0,4 km/h (0 Bft) SW 236 0 min 0,000 mm 0,0 UV-I 0 W/m 13,9 C 1,6 km/h (1 Bft)
11.09.2016 20:40 16,2 C 16,2 C 87 % 1016,6 hPa 0,0 mm 0,2 km/h (0 Bft) SW 236 0 min 0,000 mm 0,0 UV-I 0 W/m 14,0 C 1,6 km/h (1 Bft)
11.09.2016 20:41 16,2 C 16,2 C 87 % 1016,6 hPa 0,0 mm 0,3 km/h (0 Bft) SW 236 0 min 0,000 mm 0,0 UV-I 0 W/m 14,0 C 1,6 km/h (1 Bft)
11.09.2016 20:42 16,2 C 16,2 C 87 % 1016,6 hPa 0,0 mm 0,4 km/h (0 Bft) SW 236 0 min 0,000 mm 0,0 UV-I 0 W/m 14,0 C 1,6 km/h (1 Bft)
11.09.2016 20:43 16,2 C 16,2 C 87 % 1016,7 hPa 0,0 mm 0,8 km/h (0 Bft) SW 236 0 min 0,000 mm 0,0 UV-I 0 W/m 14,0 C 1,6 km/h (1 Bft)
11.09.2016 20:44 16,2 C 16,2 C 87 % 1016,7 hPa 0,0 mm 0,5 km/h (0 Bft) SW 236 0 min 0,000 mm 0,0 UV-I 0 W/m 14,0 C 1,6 km/h (1 Bft)
11.09.2016 20:45 16,3 C 16,3 C 87 % 1016,6 hPa 0,0 mm 1,7 km/h (1 Bft) SW 236 0 min 0,000 mm 0,0 UV-I 0 W/m 14,1 C 3,2 km/h (1 Bft)
11.09.2016 20:46 16,3 C 16,3 C 86 % 1016,7 hPa 0,0 mm 0,1 km/h (0 Bft) SW 236 0 min 0,000 mm 0,0 UV-I 0 W/m 14,0 C 1,6 km/h (1 Bft)
11.09.2016 20:47 16,2 C 16,3 C 86 % 1016,6 hPa 0,0 mm 0,8 km/h (0 Bft) SW 236 0 min 0,000 mm 0,0 UV-I 0 W/m 13,9 C 1,6 km/h (1 Bft)
11.09.2016 20:48 16,2 C 16,2 C 87 % 1016,6 hPa 0,0 mm 0,6 km/h (0 Bft) SW 236 0 min 0,000 mm 0,0 UV-I 0 W/m 14,0 C 1,6 km/h (1 Bft)
11.09.2016 20:49 16,2 C 16,2 C 87 % 1016,6 hPa 0,0 mm 0,6 km/h (0 Bft) SW 236 0 min 0,000 mm 0,0 UV-I 0 W/m 14,0 C 1,6 km/h (1 Bft)
11.09.2016 20:50 16,1 C 16,2 C 86 % 1016,6 hPa 0,0 mm 0,0 km/h (0 Bft) SW 236 0 min 0,000 mm 0,0 UV-I 0 W/m 13,8 C 0,0 km/h (0 Bft)
11.09.2016 20:51 16,1 C 16,1 C 86 % 1016,6 hPa 0,0 mm 0,0 km/h (0 Bft) SW 236 0 min 0,000 mm 0,0 UV-I 0 W/m 13,8 C 0,0 km/h (0 Bft)
11.09.2016 20:52 16,1 C 16,1 C 86 % 1016,6 hPa 0,0 mm 0,0 km/h (0 Bft) SW 236 0 min 0,000 mm 0,0 UV-I 0 W/m 13,8 C 0,0 km/h (0 Bft)
11.09.2016 20:53 16,1 C 16,1 C 86 % 1016,6 hPa 0,0 mm 0,0 km/h (0 Bft) SW 236 0 min 0,000 mm 0,0 UV-I 0 W/m 13,8 C 0,0 km/h (0 Bft)
11.09.2016 20:54 16,1 C 16,1 C 86 % 1016,6 hPa 0,0 mm 0,1 km/h (0 Bft) SW 236 0 min 0,000 mm 0,0 UV-I 0 W/m 13,8 C 1,6 km/h (1 Bft)
11.09.2016 20:55 16,1 C 16,1 C 86 % 1016,6 hPa 0,0 mm 0,8 km/h (0 Bft) SW 236 0 min 0,000 mm 0,0 UV-I 0 W/m 13,8 C 1,6 km/h (1 Bft)
11.09.2016 20:56 16,1 C 16,1 C 86 % 1016,6 hPa 0,0 mm 0,0 km/h (0 Bft) SW 236 0 min 0,000 mm 0,0 UV-I 0 W/m 13,8 C 0,0 km/h (0 Bft)
11.09.2016 20:57 16,2 C 16,2 C 86 % 1016,6 hPa 0,0 mm 0,6 km/h (0 Bft) W-SW 238 0 min 0,000 mm 0,0 UV-I 0 W/m 13,9 C 3,2 km/h (1 Bft)
11.09.2016 20:58 16,2 C 16,2 C 86 % 1016,6 hPa 0,0 mm 0,6 km/h (0 Bft) W-SW 238 0 min 0,000 mm 0,0 UV-I 0 W/m 13,9 C 3,2 km/h (1 Bft)
11.09.2016 20:59 16,2 C 16,2 C 86 % 1016,6 hPa 0,0 mm 0,4 km/h (0 Bft) W-SW 238 0 min 0,000 mm 0,0 UV-I 0 W/m 13,9 C 1,6 km/h (1 Bft)
11.09.2016 21:00 16,2 C 16,2 C 85 % 1016,6 hPa 0,0 mm 0,1 km/h (0 Bft) W-SW 238 0 min 0,000 mm 0,0 UV-I 0 W/m 13,7 C 1,6 km/h (1 Bft)
11.09.2016 21:01 16,2 C 16,2 C 86 % 1016,6 hPa 0,0 mm 1,0 km/h (0 Bft) W-SW 238 0 min 0,000 mm 0,0 UV-I 0 W/m 13,9 C 3,2 km/h (1 Bft)
11.09.2016 21:02 16,1 C 16,2 C 86 % 1016,6 hPa 0,0 mm 0,2 km/h (0 Bft) W-SW 238 0 min 0,000 mm 0,0 UV-I 0 W/m 13,8 C 1,6 km/h (1 Bft)
11.09.2016 21:03 16,0 C 16,1 C 86 % 1016,6 hPa 0,0 mm 0,0 km/h (0 Bft) W-SW 238 0 min 0,000 mm 0,0 UV-I 0 W/m 13,7 C 0,0 km/h (0 Bft)
11.09.2016 21:04 15,9 C 16,0 C 86 % 1016,6 hPa 0,0 mm 0,0 km/h (0 Bft) W-SW 238 0 min 0,000 mm 0,0 UV-I 0 W/m 13,6 C 0,0 km/h (0 Bft)
11.09.2016 21:05 15,9 C 15,9 C 86 % 1016,6 hPa 0,0 mm 0,7 km/h (0 Bft) W-SW 238 0 min 0,000 mm 0,0 UV-I 0 W/m 13,6 C 1,6 km/h (1 Bft)
11.09.2016 21:06 15,9 C 15,9 C 87 % 1016,6 hPa 0,0 mm 0,1 km/h (0 Bft) W-SW 238 0 min 0,000 mm 0,0 UV-I 0 W/m 13,7 C 1,6 km/h (1 Bft)
11.09.2016 21:07 15,8 C 15,9 C 87 % 1016,6 hPa 0,0 mm 0,0 km/h (0 Bft) W-SW 238 0 min 0,000 mm 0,0 UV-I 0 W/m 13,6 C 0,0 km/h (0 Bft)
11.09.2016 21:08 15,7 C 15,8 C 88 % 1016,6 hPa 0,0 mm 0,2 km/h (0 Bft) W-SW 238 0 min 0,000 mm 0,0 UV-I 0 W/m 13,7 C 1,6 km/h (1 Bft)
11.09.2016 21:09 15,7 C 15,7 C 88 % 1016,6 hPa 0,0 mm 1,2 km/h (1 Bft) W 261 0 min 0,000 mm 0,0 UV-I 0 W/m 13,7 C 3,2 km/h (1 Bft)
11.09.2016 21:10 15,7 C 15,7 C 88 % 1016,6 hPa 0,0 mm 1,2 km/h (1 Bft) W 261 0 min 0,000 mm 0,0 UV-I 0 W/m 13,7 C 1,6 km/h (1 Bft)
11.09.2016 21:11 15,7 C 15,7 C 87 % 1016,7 hPa 0,0 mm 1,9 km/h (1 Bft) W 261 0 min 0,000 mm 0,0 UV-I 0 W/m 13,5 C 3,2 km/h (1 Bft)
11.09.2016 21:12 15,7 C 15,7 C 87 % 1016,7 hPa 0,0 mm 1,9 km/h (1 Bft) W 261 0 min 0,000 mm 0,0 UV-I 0 W/m 13,5 C 3,2 km/h (1 Bft)
11.09.2016 21:13 15,8 C 15,8 C 87 % 1016,7 hPa 0,0 mm 2,5 km/h (1 Bft) W 261 0 min 0,000 mm 0,0 UV-I 0 W/m 13,6 C 3,2 km/h (1 Bft)
11.09.2016 21:14 15,8 C 15,8 C 86 % 1016,7 hPa 0,0 mm 3,1 km/h (1 Bft) W-NW 294 0 min 0,000 mm 0,0 UV-I 0 W/m 13,5 C 4,8 km/h (1 Bft)
11.09.2016 21:15 15,8 C 15,8 C 86 % 1016,7 hPa 0,0 mm 0,2 km/h (0 Bft) W-NW 294 0 min 0,000 mm 0,0 UV-I 0 W/m 13,5 C 1,6 km/h (1 Bft)
11.09.2016 21:16 15,9 C 15,9 C 86 % 1016,7 hPa 0,0 mm 0,0 km/h (0 Bft) W-NW 294 0 min 0,000 mm 0,0 UV-I 0 W/m 13,6 C 0,0 km/h (0 Bft)
11.09.2016 21:17 15,9 C 15,9 C 86 % 1016,7 hPa 0,0 mm 0,7 km/h (0 Bft) W-NW 294 0 min 0,000 mm 0,0 UV-I 0 W/m 13,6 C 3,2 km/h (1 Bft)
11.09.2016 21:18 15,9 C 15,9 C 86 % 1016,7 hPa 0,0 mm 3,1 km/h (1 Bft) NW 308 0 min 0,000 mm 0,0 UV-I 0 W/m 13,6 C 4,8 km/h (1 Bft)
11.09.2016 21:19 15,8 C 15,9 C 86 % 1016,7 hPa 0,0 mm 1,0 km/h (0 Bft) NW 308 0 min 0,000 mm 0,0 UV-I 0 W/m 13,5 C 1,6 km/h (1 Bft)
11.09.2016 21:20 15,8 C 15,8 C 86 % 1016,7 hPa 0,0 mm 1,4 km/h (1 Bft) NW 308 0 min 0,000 mm 0,0 UV-I 0 W/m 13,5 C 1,6 km/h (1 Bft)
11.09.2016 21:21 15,8 C 15,8 C 86 % 1016,7 hPa 0,0 mm 0,0 km/h (0 Bft) NW 308 0 min 0,000 mm 0,0 UV-I 0 W/m 13,5 C 0,0 km/h (0 Bft)
11.09.2016 21:22 15,7 C 15,8 C 86 % 1016,7 hPa 0,0 mm 0,0 km/h (0 Bft) NW 308 0 min 0,000 mm 0,0 UV-I 0 W/m 13,4 C 0,0 km/h (0 Bft)
11.09.2016 21:23 15,7 C 15,7 C 86 % 1016,7 hPa 0,0 mm 1,9 km/h (1 Bft) NW 308 0 min 0,000 mm 0,0 UV-I 0 W/m 13,4 C 3,2 km/h (1 Bft)
11.09.2016 21:24 15,6 C 15,7 C 86 % 1016,7 hPa 0,0 mm 1,3 km/h (1 Bft) NW 308 0 min 0,000 mm 0,0 UV-I 0 W/m 13,3 C 1,6 km/h (1 Bft)
11.09.2016 21:25 15,6 C 15,6 C 87 % 1016,6 hPa 0,0 mm 1,1 km/h (1 Bft) NW 308 0 min 0,000 mm 0,0 UV-I 0 W/m 13,4 C 3,2 km/h (1 Bft)
11.09.2016 21:26 15,4 C 15,6 C 87 % 1016,7 hPa 0,0 mm 2,4 km/h (1 Bft) NW 308 0 min 0,000 mm 0,0 UV-I 0 W/m 13,2 C 3,2 km/h (1 Bft)
11.09.2016 21:27 15,4 C 15,4 C 87 % 1016,7 hPa 0,0 mm 0,5 km/h (0 Bft) NW 308 0 min 0,000 mm 0,0 UV-I 0 W/m 13,2 C 1,6 km/h (1 Bft)
11.09.2016 21:28 15,4 C 15,4 C 88 % 1016,7 hPa 0,0 mm 2,9 km/h (1 Bft) N-NO 26 0 min 0,000 mm 0,0 UV-I 0 W/m 13,4 C 4,8 km/h (1 Bft)
11.09.2016 21:29 15,5 C 15,5 C 87 % 1016,7 hPa 0,0 mm 1,9 km/h (1 Bft) W-NW 290 0 min 0,000 mm 0,0 UV-I 0 W/m 13,3 C 3,2 km/h (1 Bft)
11.09.2016 21:30 15,6 C 15,6 C 87 % 1016,7 hPa 0,0 mm 0,4 km/h (0 Bft) W-NW 290 0 min 0,000 mm 0,0 UV-I 0 W/m 13,4 C 1,6 km/h (1 Bft)
11.09.2016 21:31 15,7 C 15,7 C 87 % 1016,7 hPa 0,0 mm 0,0 km/h (0 Bft) W-NW 290 0 min 0,000 mm 0,0 UV-I 0 W/m 13,5 C 0,0 km/h (0 Bft)
11.09.2016 21:32 15,7 C 15,7 C 87 % 1016,7 hPa 0,0 mm 0,0 km/h (0 Bft) W-NW 290 0 min 0,000 mm 0,0 UV-I 0 W/m 13,5 C 0,0 km/h (0 Bft)
11.09.2016 21:33 15,8 C 15,8 C 86 % 1016,7 hPa 0,0 mm 0,0 km/h (0 Bft) W-NW 290 0 min 0,000 mm 0,0 UV-I 0 W/m 13,5 C 0,0 km/h (0 Bft)
11.09.2016 21:34 15,8 C 15,8 C 86 % 1016,7 hPa 0,0 mm 0,7 km/h (0 Bft) W-NW 290 0 min 0,000 mm 0,0 UV-I 0 W/m 13,5 C 1,6 km/h (1 Bft)
11.09.2016 21:35 15,9 C 15,9 C 87 % 1016,7 hPa 0,0 mm 0,7 km/h (0 Bft) W-NW 290 0 min 0,000 mm 0,0 UV-I 0 W/m 13,7 C 3,2 km/h (1 Bft)
11.09.2016 21:36 15,9 C 15,9 C 86 % 1016,7 hPa 0,0 mm 0,7 km/h (0 Bft) W-NW 290 0 min 0,000 mm 0,0 UV-I 0 W/m 13,6 C 1,6 km/h (1 Bft)
11.09.2016 21:37 15,9 C 15,9 C 86 % 1016,8 hPa 0,0 mm 0,1 km/h (0 Bft) W-NW 290 0 min 0,000 mm 0,0 UV-I 0 W/m 13,6 C 1,6 km/h (1 Bft)
11.09.2016 21:38 15,9 C 16,0 C 86 % 1016,8 hPa 0,0 mm 0,0 km/h (0 Bft) W-NW 290 0 min 0,000 mm 0,0 UV-I 0 W/m 13,6 C 0,0 km/h (0 Bft)
11.09.2016 21:39 15,9 C 15,9 C 86 % 1016,8 hPa 0,0 mm 0,4 km/h (0 Bft) W-NW 290 0 min 0,000 mm 0,0 UV-I 0 W/m 13,6 C 1,6 km/h (1 Bft)
11.09.2016 21:40 15,8 C 15,9 C 86 % 1016,7 hPa 0,0 mm 1,3 km/h (1 Bft) W-NW 290 0 min 0,000 mm 0,0 UV-I 0 W/m 13,5 C 1,6 km/h (1 Bft)
11.09.2016 21:41 15,7 C 15,8 C 86 % 1016,8 hPa 0,0 mm 0,7 km/h (0 Bft) W-NW 290 0 min 0,000 mm 0,0 UV-I 0 W/m 13,4 C 1,6 km/h (1 Bft)
11.09.2016 21:42 15,6 C 15,7 C 87 % 1016,8 hPa 0,0 mm 0,2 km/h (0 Bft) W-NW 290 0 min 0,000 mm 0,0 UV-I 0 W/m 13,4 C 1,6 km/h (1 Bft)
11.09.2016 21:43 15,6 C 15,6 C 87 % 1016,8 hPa 0,0 mm 0,0 km/h (0 Bft) W-NW 290 0 min 0,000 mm 0,0 UV-I 0 W/m 13,4 C 0,0 km/h (0 Bft)
11.09.2016 21:44 15,6 C 15,6 C 87 % 1016,8 hPa 0,0 mm 0,0 km/h (0 Bft) W-NW 290 0 min 0,000 mm 0,0 UV-I 0 W/m 13,4 C 0,0 km/h (0 Bft)
11.09.2016 21:45 15,7 C 15,7 C 86 % 1016,8 hPa 0,0 mm 0,0 km/h (0 Bft) W-NW 290 0 min 0,000 mm 0,0 UV-I 0 W/m 13,4 C 0,0 km/h (0 Bft)
11.09.2016 21:46 15,7 C 15,7 C 86 % 1016,8 hPa 0,0 mm 0,2 km/h (0 Bft) W-NW 290 0 min 0,000 mm 0,0 UV-I 0 W/m 13,4 C 1,6 km/h (1 Bft)
11.09.2016 21:47 15,6 C 15,7 C 86 % 1016,8 hPa 0,0 mm 1,1 km/h (1 Bft) W-NW 290 0 min 0,000 mm 0,0 UV-I 0 W/m 13,3 C 3,2 km/h (1 Bft)
11.09.2016 21:48 15,4 C 15,6 C 87 % 1016,8 hPa 0,0 mm 1,3 km/h (1 Bft) W-NW 290 0 min 0,000 mm 0,0 UV-I 0 W/m 13,2 C 3,2 km/h (1 Bft)
11.09.2016 21:49 15,4 C 15,4 C 87 % 1016,8 hPa 0,0 mm 0,6 km/h (0 Bft) W-NW 290 0 min 0,000 mm 0,0 UV-I 0 W/m 13,2 C 1,6 km/h (1 Bft)
11.09.2016 21:50 15,3 C 15,4 C 87 % 1016,9 hPa 0,0 mm 0,0 km/h (0 Bft) W-NW 290 0 min 0,000 mm 0,0 UV-I 0 W/m 13,1 C 0,0 km/h (0 Bft)
11.09.2016 21:51 15,3 C 15,4 C 87 % 1016,9 hPa 0,0 mm 0,0 km/h (0 Bft) W-NW 290 0 min 0,000 mm 0,0 UV-I 0 W/m 13,1 C 0,0 km/h (0 Bft)
11.09.2016 21:52 15,3 C 15,3 C 88 % 1016,8 hPa 0,0 mm 0,8 km/h (0 Bft) W-NW 290 0 min 0,000 mm 0,0 UV-I 0 W/m 13,3 C 1,6 km/h (1 Bft)
11.09.2016 21:53 15,3 C 15,3 C 88 % 1016,8 hPa 0,0 mm 0,0 km/h (0 Bft) W-NW 290 0 min 0,000 mm 0,0 UV-I 0 W/m 13,3 C 0,0 km/h (0 Bft)
11.09.2016 21:54 15,2 C 15,3 C 86 % 1016,9 hPa 0,0 mm 0,0 km/h (0 Bft) W-NW 290 0 min 0,000 mm 0,0 UV-I 0 W/m 12,9 C 0,0 km/h (0 Bft)
11.09.2016 21:55 15,2 C 15,2 C 87 % 1016,9 hPa 0,0 mm 0,6 km/h (0 Bft) W-NW 290 0 min 0,000 mm 0,0 UV-I 0 W/m 13,0 C 1,6 km/h (1 Bft)
11.09.2016 21:56 15,2 C 15,2 C 87 % 1016,9 hPa 0,0 mm 0,5 km/h (0 Bft) W-NW 290 0 min 0,000 mm 0,0 UV-I 0 W/m 13,0 C 1,6 km/h (1 Bft)
11.09.2016 21:57 15,1 C 15,2 C 87 % 1016,9 hPa 0,0 mm 0,0 km/h (0 Bft) W-NW 290 0 min 0,000 mm 0,0 UV-I 0 W/m 13,0 C 0,0 km/h (0 Bft)
11.09.2016 21:58 15,1 C 15,2 C 87 % 1016,9 hPa 0,0 mm 0,0 km/h (0 Bft) W-NW 290 0 min 0,000 mm 0,0 UV-I 0 W/m 13,0 C 0,0 km/h (0 Bft)
11.09.2016 21:59 15,0 C 15,1 C 87 % 1016,9 hPa 0,0 mm 0,5 km/h (0 Bft) W-NW 290 0 min 0,000 mm 0,0 UV-I 0 W/m 12,9 C 1,6 km/h (1 Bft)
11.09.2016 22:00 15,0 C 15,1 C 87 % 1016,9 hPa 0,0 mm 0,2 km/h (0 Bft) W-NW 290 0 min 0,000 mm 0,0 UV-I 0 W/m 12,9 C 1,6 km/h (1 Bft)
11.09.2016 22:01 15,1 C 15,1 C 88 % 1016,9 hPa 0,0 mm 0,0 km/h (0 Bft) W-NW 290 0 min 0,000 mm 0,0 UV-I 0 W/m 13,1 C 0,0 km/h (0 Bft)
11.09.2016 22:02 15,1 C 15,1 C 87 % 1016,9 hPa 0,0 mm 0,1 km/h (0 Bft) W-NW 290 0 min 0,000 mm 0,0 UV-I 0 W/m 13,0 C 1,6 km/h (1 Bft)
11.09.2016 22:03 15,0 C 15,1 C 87 % 1016,9 hPa 0,0 mm 0,5 km/h (0 Bft) W-NW 290 0 min 0,000 mm 0,0 UV-I 0 W/m 12,9 C 1,6 km/h (1 Bft)
11.09.2016 22:04 15,0 C 15,0 C 88 % 1016,9 hPa 0,0 mm 0,0 km/h (0 Bft) W-NW 290 0 min 0,000 mm 0,0 UV-I 0 W/m 13,0 C 0,0 km/h (0 Bft)
11.09.2016 22:05 14,9 C 15,0 C 88 % 1016,9 hPa 0,0 mm 0,0 km/h (0 Bft) W-NW 290 0 min 0,000 mm 0,0 UV-I 0 W/m 12,9 C 0,0 km/h (0 Bft)
11.09.2016 22:06 14,9 C 14,9 C 88 % 1016,9 hPa 0,0 mm 0,0 km/h (0 Bft) W-NW 290 0 min 0,000 mm 0,0 UV-I 0 W/m 12,9 C 0,0 km/h (0 Bft)
11.09.2016 22:07 14,9 C 14,9 C 88 % 1016,9 hPa 0,0 mm 0,0 km/h (0 Bft) W-NW 290 0 min 0,000 mm 0,0 UV-I 0 W/m 12,9 C 0,0 km/h (0 Bft)
11.09.2016 22:08 14,9 C 14,9 C 89 % 1016,9 hPa 0,0 mm 0,5 km/h (0 Bft) W-NW 290 0 min 0,000 mm 0,0 UV-I 0 W/m 13,1 C 1,6 km/h (1 Bft)
11.09.2016 22:09 14,9 C 14,9 C 89 % 1016,9 hPa 0,0 mm 0,3 km/h (0 Bft) W-NW 290 0 min 0,000 mm 0,0 UV-I 0 W/m 13,1 C 1,6 km/h (1 Bft)
11.09.2016 22:10 14,9 C 14,9 C 89 % 1016,9 hPa 0,0 mm 0,0 km/h (0 Bft) W-NW 290 0 min 0,000 mm 0,0 UV-I 0 W/m 13,1 C 0,0 km/h (0 Bft)
11.09.2016 22:11 15,0 C 15,0 C 88 % 1016,9 hPa 0,0 mm 1,0 km/h (0 Bft) W-NW 290 0 min 0,000 mm 0,0 UV-I 0 W/m 13,0 C 1,6 km/h (1 Bft)
11.09.2016 22:12 15,0 C 15,1 C 89 % 1016,9 hPa 0,0 mm 0,3 km/h (0 Bft) W-NW 290 0 min 0,000 mm 0,0 UV-I 0 W/m 13,2 C 1,6 km/h (1 Bft)
11.09.2016 22:13 15,1 C 15,1 C 88 % 1016,9 hPa 0,0 mm 0,1 km/h (0 Bft) W-NW 290 0 min 0,000 mm 0,0 UV-I 0 W/m 13,1 C 1,6 km/h (1 Bft)
11.09.2016 22:14 15,0 C 15,1 C 88 % 1016,9 hPa 0,0 mm 0,1 km/h (0 Bft) W-NW 290 0 min 0,000 mm 0,0 UV-I 0 W/m 13,0 C 1,6 km/h (1 Bft)
11.09.2016 22:15 14,9 C 15,0 C 88 % 1016,9 hPa 0,0 mm 0,0 km/h (0 Bft) W-NW 290 0 min 0,000 mm 0,0 UV-I 0 W/m 12,9 C 0,0 km/h (0 Bft)
11.09.2016 22:16 14,8 C 14,9 C 88 % 1017,0 hPa 0,0 mm 0,0 km/h (0 Bft) W-NW 290 0 min 0,000 mm 0,0 UV-I 0 W/m 12,8 C 0,0 km/h (0 Bft)
11.09.2016 22:17 14,8 C 14,8 C 89 % 1016,9 hPa 0,0 mm 0,0 km/h (0 Bft) W-NW 290 0 min 0,000 mm 0,0 UV-I 0 W/m 13,0 C 0,0 km/h (0 Bft)
11.09.2016 22:18 14,8 C 14,8 C 89 % 1017,0 hPa 0,0 mm 0,0 km/h (0 Bft) W-NW 290 0 min 0,000 mm 0,0 UV-I 0 W/m 13,0 C 0,0 km/h (0 Bft)
11.09.2016 22:19 14,8 C 14,8 C 89 % 1016,9 hPa 0,0 mm 0,0 km/h (0 Bft) W-NW 290 0 min 0,000 mm 0,0 UV-I 0 W/m 13,0 C 0,0 km/h (0 Bft)
11.09.2016 22:20 14,8 C 14,8 C 89 % 1017,0 hPa 0,0 mm 0,0 km/h (0 Bft) W-NW 290 0 min 0,000 mm 0,0 UV-I 0 W/m 13,0 C 0,0 km/h (0 Bft)
11.09.2016 22:21 14,8 C 14,8 C 89 % 1016,9 hPa 0,0 mm 0,2 km/h (0 Bft) W-NW 290 0 min 0,000 mm 0,0 UV-I 0 W/m 13,0 C 1,6 km/h (1 Bft)
11.09.2016 22:22 14,8 C 14,8 C 88 % 1016,9 hPa 0,0 mm 0,6 km/h (0 Bft) W-NW 290 0 min 0,000 mm 0,0 UV-I 0 W/m 12,8 C 1,6 km/h (1 Bft)
11.09.2016 22:23 14,8 C 14,8 C 88 % 1016,9 hPa 0,0 mm 0,0 km/h (0 Bft) W-NW 290 0 min 0,000 mm 0,0 UV-I 0 W/m 12,8 C 0,0 km/h (0 Bft)
11.09.2016 22:24 14,8 C 14,8 C 88 % 1016,9 hPa 0,0 mm 0,0 km/h (0 Bft) W-NW 290 0 min 0,000 mm 0,0 UV-I 0 W/m 12,8 C 0,0 km/h (0 Bft)
11.09.2016 22:25 14,9 C 14,9 C 88 % 1016,9 hPa 0,0 mm 0,0 km/h (0 Bft) W-NW 290 0 min 0,000 mm 0,0 UV-I 0 W/m 12,9 C 0,0 km/h (0 Bft)
11.09.2016 22:26 14,9 C 14,9 C 88 % 1016,9 hPa 0,0 mm 0,0 km/h (0 Bft) W-NW 290 0 min 0,000 mm 0,0 UV-I 0 W/m 12,9 C 0,0 km/h (0 Bft)
11.09.2016 22:27 14,9 C 14,9 C 88 % 1016,9 hPa 0,0 mm 0,0 km/h (0 Bft) W-NW 290 0 min 0,000 mm 0,0 UV-I 0 W/m 12,9 C 0,0 km/h (0 Bft)
11.09.2016 22:28 14,9 C 14,9 C 87 % 1016,9 hPa 0,0 mm 0,0 km/h (0 Bft) W-NW 290 0 min 0,000 mm 0,0 UV-I 0 W/m 12,8 C 0,0 km/h (0 Bft)
11.09.2016 22:29 14,8 C 14,9 C 88 % 1016,9 hPa 0,0 mm 0,0 km/h (0 Bft) W-NW 290 0 min 0,000 mm 0,0 UV-I 0 W/m 12,8 C 0,0 km/h (0 Bft)
11.09.2016 22:30 14,8 C 14,8 C 88 % 1016,9 hPa 0,0 mm 0,0 km/h (0 Bft) W-NW 290 0 min 0,000 mm 0,0 UV-I 0 W/m 12,8 C 0,0 km/h (0 Bft)
11.09.2016 22:31 14,8 C 14,8 C 88 % 1016,9 hPa 0,0 mm 0,0 km/h (0 Bft) W-NW 290 0 min 0,000 mm 0,0 UV-I 0 W/m 12,8 C 0,0 km/h (0 Bft)
11.09.2016 22:32 14,7 C 14,8 C 88 % 1016,9 hPa 0,0 mm 0,0 km/h (0 Bft) W-NW 290 0 min 0,000 mm 0,0 UV-I 0 W/m 12,7 C 0,0 km/h (0 Bft)
11.09.2016 22:33 14,7 C 14,7 C 88 % 1016,9 hPa 0,0 mm 0,0 km/h (0 Bft) W-NW 290 0 min 0,000 mm 0,0 UV-I 0 W/m 12,7 C 0,0 km/h (0 Bft)
11.09.2016 22:34 14,7 C 14,7 C 88 % 1016,9 hPa 0,0 mm 0,4 km/h (0 Bft) W-NW 290 0 min 0,000 mm 0,0 UV-I 0 W/m 12,7 C 1,6 km/h (1 Bft)
11.09.2016 22:35 14,6 C 14,7 C 88 % 1016,9 hPa 0,0 mm 1,0 km/h (0 Bft) W-NW 290 0 min 0,000 mm 0,0 UV-I 0 W/m 12,6 C 1,6 km/h (1 Bft)
11.09.2016 22:36 14,6 C 14,6 C 88 % 1016,9 hPa 0,0 mm 0,9 km/h (0 Bft) W-NW 290 0 min 0,000 mm 0,0 UV-I 0 W/m 12,6 C 3,2 km/h (1 Bft)
11.09.2016 22:37 14,6 C 14,6 C 88 % 1016,9 hPa 0,0 mm 2,1 km/h (1 Bft) W-NW 291 0 min 0,000 mm 0,0 UV-I 0 W/m 12,6 C 3,2 km/h (1 Bft)
11.09.2016 22:38 14,4 C 14,6 C 88 % 1016,9 hPa 0,0 mm 0,1 km/h (0 Bft) W-NW 291 0 min 0,000 mm 0,0 UV-I 0 W/m 12,4 C 1,6 km/h (1 Bft)
11.09.2016 22:39 14,4 C 14,4 C 88 % 1016,9 hPa 0,0 mm 0,3 km/h (0 Bft) W-NW 291 0 min 0,000 mm 0,0 UV-I 0 W/m 12,4 C 1,6 km/h (1 Bft)
11.09.2016 22:40 14,3 C 14,4 C 89 % 1016,9 hPa 0,0 mm 0,0 km/h (0 Bft) W-NW 291 0 min 0,000 mm 0,0 UV-I 0 W/m 12,5 C 0,0 km/h (0 Bft)
11.09.2016 22:41 14,3 C 14,3 C 89 % 1016,9 hPa 0,0 mm 0,0 km/h (0 Bft) W-NW 291 0 min 0,000 mm 0,0 UV-I 0 W/m 12,5 C 0,0 km/h (0 Bft)
11.09.2016 22:42 14,3 C 14,3 C 89 % 1016,9 hPa 0,0 mm 0,0 km/h (0 Bft) W-NW 291 0 min 0,000 mm 0,0 UV-I 0 W/m 12,5 C 0,0 km/h (0 Bft)
11.09.2016 22:43 14,2 C 14,3 C 88 % 1016,9 hPa 0,0 mm 1,6 km/h (1 Bft) W-NW 291 0 min 0,000 mm 0,0 UV-I 0 W/m 12,2 C 3,2 km/h (1 Bft)
11.09.2016 22:44 14,2 C 14,2 C 89 % 1016,9 hPa 0,0 mm 0,1 km/h (0 Bft) W-NW 291 0 min 0,000 mm 0,0 UV-I 0 W/m 12,4 C 1,6 km/h (1 Bft)
11.09.2016 22:45 14,2 C 14,2 C 89 % 1016,9 hPa 0,0 mm 0,2 km/h (0 Bft) W-NW 291 0 min 0,000 mm 0,0 UV-I 0 W/m 12,4 C 1,6 km/h (1 Bft)
11.09.2016 22:46 14,2 C 14,2 C 89 % 1016,9 hPa 0,0 mm 0,0 km/h (0 Bft) W-NW 291 0 min 0,000 mm 0,0 UV-I 0 W/m 12,4 C 0,0 km/h (0 Bft)
11.09.2016 22:47 14,2 C 14,2 C 89 % 1016,9 hPa 0,0 mm 0,0 km/h (0 Bft) W-NW 291 0 min 0,000 mm 0,0 UV-I 0 W/m 12,4 C 0,0 km/h (0 Bft)
11.09.2016 22:48 14,2 C 14,2 C 89 % 1016,9 hPa 0,0 mm 0,0 km/h (0 Bft) W-NW 291 0 min 0,000 mm 0,0 UV-I 0 W/m 12,4 C 0,0 km/h (0 Bft)
11.09.2016 22:49 14,2 C 14,2 C 89 % 1016,9 hPa 0,0 mm 0,5 km/h (0 Bft) W-NW 291 0 min 0,000 mm 0,0 UV-I 0 W/m 12,4 C 1,6 km/h (1 Bft)
11.09.2016 22:50 14,1 C 14,2 C 89 % 1017,0 hPa 0,0 mm 0,3 km/h (0 Bft) W-NW 291 0 min 0,000 mm 0,0 UV-I 0 W/m 12,3 C 1,6 km/h (1 Bft)
11.09.2016 22:51 14,1 C 14,1 C 89 % 1017,0 hPa 0,0 mm 0,0 km/h (0 Bft) W-NW 291 0 min 0,000 mm 0,0 UV-I 0 W/m 12,3 C 0,0 km/h (0 Bft)
11.09.2016 22:52 14,1 C 14,1 C 89 % 1017,0 hPa 0,0 mm 0,2 km/h (0 Bft) W-NW 291 0 min 0,000 mm 0,0 UV-I 0 W/m 12,3 C 1,6 km/h (1 Bft)
11.09.2016 22:53 14,1 C 14,1 C 89 % 1017,0 hPa 0,0 mm 2,2 km/h (1 Bft) NW 317 0 min 0,000 mm 0,0 UV-I 0 W/m 12,3 C 3,2 km/h (1 Bft)
11.09.2016 22:54 14,2 C 14,2 C 89 % 1017,0 hPa 0,0 mm 0,6 km/h (0 Bft) NW 317 0 min 0,000 mm 0,0 UV-I 0 W/m 12,4 C 3,2 km/h (1 Bft)
11.09.2016 22:55 14,2 C 14,2 C 89 % 1017,0 hPa 0,0 mm 0,1 km/h (0 Bft) NW 317 0 min 0,000 mm 0,0 UV-I 0 W/m 12,4 C 1,6 km/h (1 Bft)
11.09.2016 22:56 14,2 C 14,2 C 89 % 1017,0 hPa 0,0 mm 0,8 km/h (0 Bft) NW 317 0 min 0,000 mm 0,0 UV-I 0 W/m 12,4 C 1,6 km/h (1 Bft)
11.09.2016 22:57 14,2 C 14,2 C 89 % 1017,0 hPa 0,0 mm 1,5 km/h (1 Bft) NW 317 0 min 0,000 mm 0,0 UV-I 0 W/m 12,4 C 3,2 km/h (1 Bft)
11.09.2016 22:58 14,2 C 14,2 C 88 % 1017,0 hPa 0,0 mm 0,4 km/h (0 Bft) NW 317 0 min 0,000 mm 0,0 UV-I 0 W/m 12,2 C 1,6 km/h (1 Bft)
11.09.2016 22:59 14,2 C 14,2 C 89 % 1017,0 hPa 0,0 mm 1,1 km/h (1 Bft) NW 317 0 min 0,000 mm 0,0 UV-I 0 W/m 12,4 C 3,2 km/h (1 Bft)
11.09.2016 23:00 14,2 C 14,2 C 88 % 1017,0 hPa 0,0 mm 1,6 km/h (1 Bft) NW 317 0 min 0,000 mm 0,0 UV-I 0 W/m 12,2 C 3,2 km/h (1 Bft)
11.09.2016 23:01 14,2 C 14,2 C 88 % 1017,0 hPa 0,0 mm 1,4 km/h (1 Bft) NW 317 0 min 0,000 mm 0,0 UV-I 0 W/m 12,2 C 1,6 km/h (1 Bft)
11.09.2016 23:02 14,3 C 14,3 C 88 % 1017,0 hPa 0,0 mm 1,2 km/h (1 Bft) NW 317 0 min 0,000 mm 0,0 UV-I 0 W/m 12,3 C 1,6 km/h (1 Bft)
11.09.2016 23:03 14,4 C 14,4 C 88 % 1017,0 hPa 0,0 mm 0,5 km/h (0 Bft) NW 317 0 min 0,000 mm 0,0 UV-I 0 W/m 12,4 C 1,6 km/h (1 Bft)
11.09.2016 23:04 14,4 C 14,4 C 87 % 1017,0 hPa 0,0 mm 1,0 km/h (0 Bft) NW 317 0 min 0,000 mm 0,0 UV-I 0 W/m 12,3 C 1,6 km/h (1 Bft)
11.09.2016 23:05 14,4 C 14,4 C 87 % 1017,1 hPa 0,0 mm 0,3 km/h (0 Bft) NW 317 0 min 0,000 mm 0,0 UV-I 0 W/m 12,3 C 1,6 km/h (1 Bft)
11.09.2016 23:06 14,4 C 14,4 C 87 % 1017,1 hPa 0,0 mm 0,6 km/h (0 Bft) NW 317 0 min 0,000 mm 0,0 UV-I 0 W/m 12,3 C 1,6 km/h (1 Bft)
11.09.2016 23:07 14,4 C 14,4 C 87 % 1017,1 hPa 0,0 mm 0,6 km/h (0 Bft) NW 317 0 min 0,000 mm 0,0 UV-I 0 W/m 12,3 C 1,6 km/h (1 Bft)
11.09.2016 23:08 14,4 C 14,4 C 87 % 1017,1 hPa 0,0 mm 1,5 km/h (1 Bft) NW 317 0 min 0,000 mm 0,0 UV-I 0 W/m 12,3 C 3,2 km/h (1 Bft)
11.09.2016 23:09 14,3 C 14,4 C 87 % 1017,1 hPa 0,0 mm 2,3 km/h (1 Bft) NW 317 0 min 0,000 mm 0,0 UV-I 0 W/m 12,2 C 3,2 km/h (1 Bft)
11.09.2016 23:10 14,2 C 14,3 C 87 % 1017,1 hPa 0,0 mm 2,4 km/h (1 Bft) N 355 0 min 0,000 mm 0,0 UV-I 0 W/m 12,1 C 3,2 km/h (1 Bft)
11.09.2016 23:11 14,2 C 14,2 C 88 % 1017,1 hPa 0,0 mm 0,3 km/h (0 Bft) N 355 0 min 0,000 mm 0,0 UV-I 0 W/m 12,2 C 1,6 km/h (1 Bft)
11.09.2016 23:12 14,2 C 14,2 C 88 % 1017,1 hPa 0,0 mm 0,0 km/h (0 Bft) N 355 0 min 0,000 mm 0,0 UV-I 0 W/m 12,2 C 0,0 km/h (0 Bft)
11.09.2016 23:13 14,2 C 14,2 C 88 % 1017,1 hPa 0,0 mm 0,0 km/h (0 Bft) N 355 0 min 0,000 mm 0,0 UV-I 0 W/m 12,2 C 0,0 km/h (0 Bft)
11.09.2016 23:14 14,2 C 14,2 C 88 % 1017,1 hPa 0,0 mm 0,0 km/h (0 Bft) N 355 0 min 0,000 mm 0,0 UV-I 0 W/m 12,2 C 0,0 km/h (0 Bft)
11.09.2016 23:15 14,2 C 14,2 C 88 % 1017,1 hPa 0,0 mm 0,0 km/h (0 Bft) N 355 0 min 0,000 mm 0,0 UV-I 0 W/m 12,2 C 0,0 km/h (0 Bft)
11.09.2016 23:16 14,2 C 14,2 C 88 % 1017,1 hPa 0,0 mm 0,3 km/h (0 Bft) N 355 0 min 0,000 mm 0,0 UV-I 0 W/m 12,2 C 1,6 km/h (1 Bft)
11.09.2016 23:17 14,2 C 14,2 C 88 % 1017,1 hPa 0,0 mm 0,2 km/h (0 Bft) N 355 0 min 0,000 mm 0,0 UV-I 0 W/m 12,2 C 1,6 km/h (1 Bft)
11.09.2016 23:18 14,2 C 14,2 C 88 % 1017,1 hPa 0,0 mm 0,0 km/h (0 Bft) N 355 0 min 0,000 mm 0,0 UV-I 0 W/m 12,2 C 0,0 km/h (0 Bft)
11.09.2016 23:19 14,1 C 14,2 C 89 % 1017,1 hPa 0,0 mm 0,0 km/h (0 Bft) N 355 0 min 0,000 mm 0,0 UV-I 0 W/m 12,3 C 0,0 km/h (0 Bft)
11.09.2016 23:20 14,1 C 14,1 C 89 % 1017,1 hPa 0,0 mm 0,0 km/h (0 Bft) N 355 0 min 0,000 mm 0,0 UV-I 0 W/m 12,3 C 0,0 km/h (0 Bft)
11.09.2016 23:21 14,1 C 14,1 C 89 % 1017,1 hPa 0,0 mm 0,0 km/h (0 Bft) N 355 0 min 0,000 mm 0,0 UV-I 0 W/m 12,3 C 0,0 km/h (0 Bft)
11.09.2016 23:22 14,1 C 14,1 C 90 % 1017,1 hPa 0,0 mm 0,0 km/h (0 Bft) N 355 0 min 0,000 mm 0,0 UV-I 0 W/m 12,5 C 0,0 km/h (0 Bft)
11.09.2016 23:23 14,0 C 14,1 C 89 % 1017,0 hPa 0,0 mm 0,0 km/h (0 Bft) N 355 0 min 0,000 mm 0,0 UV-I 0 W/m 12,2 C 0,0 km/h (0 Bft)
11.09.2016 23:24 14,0 C 14,0 C 90 % 1017,1 hPa 0,0 mm 0,1 km/h (0 Bft) N 355 0 min 0,000 mm 0,0 UV-I 0 W/m 12,4 C 1,6 km/h (1 Bft)
11.09.2016 23:25 14,0 C 14,0 C 90 % 1017,1 hPa 0,0 mm 0,0 km/h (0 Bft) N 355 0 min 0,000 mm 0,0 UV-I 0 W/m 12,4 C 0,0 km/h (0 Bft)
11.09.2016 23:26 14,0 C 14,0 C 90 % 1017,1 hPa 0,0 mm 0,0 km/h (0 Bft) N 355 0 min 0,000 mm 0,0 UV-I 0 W/m 12,4 C 0,0 km/h (0 Bft)
11.09.2016 23:27 14,0 C 14,0 C 90 % 1017,1 hPa 0,0 mm 0,3 km/h (0 Bft) N 355 0 min 0,000 mm 0,0 UV-I 0 W/m 12,4 C 1,6 km/h (1 Bft)
11.09.2016 23:28 13,9 C 14,0 C 90 % 1017,1 hPa 0,0 mm 0,0 km/h (0 Bft) N 355 0 min 0,000 mm 0,0 UV-I 0 W/m 12,3 C 0,0 km/h (0 Bft)
11.09.2016 23:29 13,9 C 13,9 C 90 % 1017,1 hPa 0,0 mm 1,0 km/h (0 Bft) N 355 0 min 0,000 mm 0,0 UV-I 0 W/m 12,3 C 1,6 km/h (1 Bft)
11.09.2016 23:30 13,9 C 13,9 C 90 % 1017,1 hPa 0,0 mm 0,0 km/h (0 Bft) N 355 0 min 0,000 mm 0,0 UV-I 0 W/m 12,3 C 0,0 km/h (0 Bft)
11.09.2016 23:31 13,8 C 13,9 C 90 % 1017,1 hPa 0,0 mm 0,0 km/h (0 Bft) N 355 0 min 0,000 mm 0,0 UV-I 0 W/m 12,2 C 0,0 km/h (0 Bft)
11.09.2016 23:32 13,8 C 13,8 C 90 % 1017,2 hPa 0,0 mm 0,0 km/h (0 Bft) N 355 0 min 0,000 mm 0,0 UV-I 0 W/m 12,2 C 0,0 km/h (0 Bft)
11.09.2016 23:33 13,8 C 13,8 C 90 % 1017,1 hPa 0,0 mm 0,0 km/h (0 Bft) N 355 0 min 0,000 mm 0,0 UV-I 0 W/m 12,2 C 0,0 km/h (0 Bft)
11.09.2016 23:34 13,8 C 13,8 C 91 % 1017,2 hPa 0,0 mm 0,0 km/h (0 Bft) N 355 0 min 0,000 mm 0,0 UV-I 0 W/m 12,4 C 0,0 km/h (0 Bft)
11.09.2016 23:35 13,8 C 13,8 C 91 % 1017,2 hPa 0,0 mm 0,0 km/h (0 Bft) N 355 0 min 0,000 mm 0,0 UV-I 0 W/m 12,4 C 0,0 km/h (0 Bft)
11.09.2016 23:36 13,7 C 13,8 C 91 % 1017,2 hPa 0,0 mm 0,0 km/h (0 Bft) N 355 0 min 0,000 mm 0,0 UV-I 0 W/m 12,3 C 0,0 km/h (0 Bft)
11.09.2016 23:37 13,7 C 13,7 C 91 % 1017,2 hPa 0,0 mm 0,0 km/h (0 Bft) N 355 0 min 0,000 mm 0,0 UV-I 0 W/m 12,3 C 0,0 km/h (0 Bft)
11.09.2016 23:38 13,7 C 13,7 C 91 % 1017,1 hPa 0,0 mm 0,0 km/h (0 Bft) N 355 0 min 0,000 mm 0,0 UV-I 0 W/m 12,3 C 0,0 km/h (0 Bft)
11.09.2016 23:39 13,7 C 13,7 C 91 % 1017,1 hPa 0,0 mm 0,0 km/h (0 Bft) N 355 0 min 0,000 mm 0,0 UV-I 0 W/m 12,3 C 0,0 km/h (0 Bft)
11.09.2016 23:40 13,7 C 13,7 C 91 % 1017,1 hPa 0,0 mm 0,0 km/h (0 Bft) N 355 0 min 0,000 mm 0,0 UV-I 0 W/m 12,3 C 0,0 km/h (0 Bft)
11.09.2016 23:41 13,7 C 13,7 C 91 % 1017,1 hPa 0,0 mm 0,0 km/h (0 Bft) N 355 0 min 0,000 mm 0,0 UV-I 0 W/m 12,3 C 0,0 km/h (0 Bft)
11.09.2016 23:42 13,7 C 13,7 C 92 % 1017,1 hPa 0,0 mm 0,0 km/h (0 Bft) N 355 0 min 0,000 mm 0,0 UV-I 0 W/m 12,4 C 0,0 km/h (0 Bft)
11.09.2016 23:43 13,7 C 13,7 C 91 % 1017,1 hPa 0,0 mm 0,0 km/h (0 Bft) N 355 0 min 0,000 mm 0,0 UV-I 0 W/m 12,3 C 0,0 km/h (0 Bft)
11.09.2016 23:44 13,7 C 13,7 C 92 % 1017,1 hPa 0,0 mm 0,0 km/h (0 Bft) N 355 0 min 0,000 mm 0,0 UV-I 0 W/m 12,4 C 0,0 km/h (0 Bft)
11.09.2016 23:45 13,6 C 13,7 C 92 % 1017,1 hPa 0,0 mm 0,0 km/h (0 Bft) N 355 0 min 0,000 mm 0,0 UV-I 0 W/m 12,3 C 0,0 km/h (0 Bft)
11.09.2016 23:46 13,6 C 13,7 C 91 % 1017,1 hPa 0,0 mm 0,0 km/h (0 Bft) N 355 0 min 0,000 mm 0,0 UV-I 0 W/m 12,2 C 0,0 km/h (0 Bft)
11.09.2016 23:47 13,6 C 13,6 C 92 % 1017,0 hPa 0,0 mm 0,0 km/h (0 Bft) N 355 0 min 0,000 mm 0,0 UV-I 0 W/m 12,3 C 0,0 km/h (0 Bft)
11.09.2016 23:48 13,6 C 13,6 C 92 % 1017,1 hPa 0,0 mm 0,0 km/h (0 Bft) N 355 0 min 0,000 mm 0,0 UV-I 0 W/m 12,3 C 0,0 km/h (0 Bft)
11.09.2016 23:49 13,6 C 13,6 C 92 % 1017,1 hPa 0,0 mm 0,0 km/h (0 Bft) N 355 0 min 0,000 mm 0,0 UV-I 0 W/m 12,3 C 0,0 km/h (0 Bft)
11.09.2016 23:50 13,6 C 13,6 C 92 % 1017,1 hPa 0,0 mm 0,0 km/h (0 Bft) N 355 0 min 0,000 mm 0,0 UV-I 0 W/m 12,3 C 0,0 km/h (0 Bft)
11.09.2016 23:51 13,5 C 13,6 C 92 % 1017,1 hPa 0,0 mm 0,0 km/h (0 Bft) N 355 0 min 0,000 mm 0,0 UV-I 0 W/m 12,2 C 0,0 km/h (0 Bft)
11.09.2016 23:52 13,6 C 13,6 C 92 % 1017,0 hPa 0,0 mm 0,0 km/h (0 Bft) N 355 0 min 0,000 mm 0,0 UV-I 0 W/m 12,3 C 0,0 km/h (0 Bft)
11.09.2016 23:53 13,6 C 13,6 C 93 % 1017,0 hPa 0,0 mm 0,5 km/h (0 Bft) N 355 0 min 0,000 mm 0,0 UV-I 0 W/m 12,5 C 1,6 km/h (1 Bft)
11.09.2016 23:54 13,5 C 13,6 C 93 % 1017,0 hPa 0,0 mm 0,0 km/h (0 Bft) N 355 0 min 0,000 mm 0,0 UV-I 0 W/m 12,4 C 0,0 km/h (0 Bft)
11.09.2016 23:55 13,5 C 13,5 C 92 % 1017,1 hPa 0,0 mm 0,0 km/h (0 Bft) N 355 0 min 0,000 mm 0,0 UV-I 0 W/m 12,2 C 0,0 km/h (0 Bft)
11.09.2016 23:56 13,5 C 13,6 C 92 % 1017,1 hPa 0,0 mm 0,0 km/h (0 Bft) N 355 0 min 0,000 mm 0,0 UV-I 0 W/m 12,2 C 0,0 km/h (0 Bft)
11.09.2016 23:57 13,4 C 13,5 C 92 % 1017,0 hPa 0,0 mm 0,0 km/h (0 Bft) N 355 0 min 0,000 mm 0,0 UV-I 0 W/m 12,1 C 0,0 km/h (0 Bft)
11.09.2016 23:58 13,4 C 13,4 C 91 % 1017,0 hPa 0,0 mm 0,0 km/h (0 Bft) N 355 0 min 0,000 mm 0,0 UV-I 0 W/m 12,0 C 0,0 km/h (0 Bft)
11.09.2016 23:59 13,3 C 13,4 C 92 % 1017,0 hPa 0,0 mm 0,0 km/h (0 Bft) N 355 0 min 0,000 mm 0,0 UV-I 0 W/m 12,0 C 0,0 km/h (0 Bft)
_ Min-Zeit 06:44 06:44 15:18 02:51 - 23:59 - - - - - - 06:28 23:59
Minimum _ 12,6 C 12,6 C 59 % 1015,1 hPa - 0,0 km/h (0 Bft) - - - - - - 11,8 C 0,0 km/h (0 Bft)
_ Max-Zeit 15:44 15:45 07:23 23:37 23:59 15:46 - - 15:46 13:01 13:42 13:18 13:28 14:53
Maximum _ 24,5 C 24,5 C 95 % 1017,2 hPa 0,0 mm 10,9 km/h
O-NO (2 Bft)
- - 1 min 0,432 mm 5,2 UV-I 803 W/m 18,0 C 16,1 km/h
SO (3 Bft)
Durchschnitt _ 17,5 C 17,5 C 83 % 1016,2 hPa #0,0 mm 0,9 km/h (0 Bft) O-NO - #5:38 h #2,388 mm 2,6 UV-I 160 W/m 14,3 C 1,7 km/h (1 Bft)